     2              OBSERVATION DATA    G (GPS)             RINEX VERSION / TYPE
ASRINEXO V2.4.4 UX USGS 26-AUG-96 15:44                     PGM / RUN BY / DATE
Crustal Strain Project                                      COMMENT
U.S. Geological Survey, Menlo Park, California 94025        COMMENT
345 Middlefield Road, MS/977                                COMMENT
Contact: kwendt@isdmnl.wr.usgs.gov (Ph: 415-329-4866)       COMMENT
HI's are vertical to base of antenna                        COMMENT
p750 P_750_1987_USGS                                        MARKER NAME
CHS USGS                                                    OBSERVER / AGENCY
4600 ASHTECH Z-XII3 1F00                                    REC # / TYPE / VERS
1036 ASH700228D NONE                                        ANT # / TYPE
 -2619086.0000 -3857463.0000  4337539.0000                  APPROX POSITION XYZ
        1.5387        0.0000        0.0000                  ANTENNA: DELTA H/E/N
     1     1                                                WAVELENGTH FACT L1/2
     5    C1    L1    L2    P1    P2                        # / TYPES OF OBSERV
    30                                                      INTERVAL
  1996     8    14    15    55    0.000000                  TIME OF FIRST OBS
                                                            END OF HEADER
 96  8 14 15 55  0.0000000  0  7 16 25 24  4  5  6 10
  18971629.824      -14522.55919
  20152315.430       -3322.22119
  16561057.683       24880.48319
  19215891.289       37192.74419
  16086897.844       26167.53619
  18186525.200      -13576.79819
  18107889.243      -15272.62419     -7635.31059                  18107897.6784
 96  8 14 15 55 30.0000000  0  8 16 25 24  4  5  6  9 10
  18960344.197      -73837.888 9    -49759.50259                  18960346.3794
  20149036.837      -20515.570 9
  16577205.818      109724.67159     71297.92059  16577206.4584   16577212.2954
  19241502.792      171788.54659    113049.28959  19241506.7764   19241513.1034
  16100917.660       99840.958 9
  18179717.786      -49341.801 9
  20330283.736      129763.71219
  18100615.388      -53503.00659    -37425.22649  18100615.3074   18100622.8504
 96  8 14 15 56  0.0000000  0  7 16 25 24  4  5  6 10
  23445567.422     -135101.10359    -97497.06449  23445568.7034   23445576.6234
  24642348.666      -39373.458 9
  21089892.523      192762.15749    136002.43849  21089894.9704   21089901.1504
  23763600.487      304279.86049    216289.23449  23763605.8864   23763612.5784
  20611500.907      171811.092 9
  22669416.637      -87110.702 9    -59403.86559                  22669423.7844
  22589890.234      -93500.88749    -68592.37649  22589891.1264   22589897.6154
 96  8 14 15 56 30.0000000  0  8 16 25 24  4  5  6  9 10
  23433508.281     -198491.01259   -146891.72859  23433505.8254   23433513.4184
  24638410.994      -60035.954 9    -45184.98259                  24638417.2584
  21105343.092      273963.17159    199275.94259  21105346.2624   21105352.1344
  23788422.772      434687.19859    317905.29659  23788422.0514   23788428.1064
  20624861.640      242034.753 9
  22661816.534     -127037.58359    -90515.70059  22661820.4084   22661826.4944
  24878526.188      399607.69359    283020.31259  24878521.5834   24878529.9084
  22581910.861     -135436.61059   -101269.53859  22581910.6474   22581917.1264
 96  8 14 15 57  0.0000000  0  8 16 25 24  4  5  6  9 10
  23421049.168     -263940.88249   -197891.58549  23421050.7254   23421056.6014
  24634147.537      -82465.97059    -62662.91359  24634143.5044   24634148.5404
  21120445.836      353307.15149    261102.42449  21120445.5184   21120452.6264
  23812834.572      562983.77749    417876.61349  23812835.7734   23812840.9454
  20637893.153      310506.98959     53888.46459  20637895.2894   20637901.1594
  22653817.276     -169069.48759   -123267.82249  22653822.3434   22653828.5814
  24903550.027      531125.33959    385501.48959  24903548.1224   24903555.7174
  22573569.323     -179268.69849   -135424.40349  22573569.5444   22573575.7044
 96  8 14 15 57 30.0000000  0  8 16 25 24  4  5  6  9 10
  23408223.994     -331330.75949   -250403.17749  23408226.9694   23408233.8284
  24629545.079     -106563.21959    -81439.96749  24629557.7924   24629565.7814
  21135206.034      430896.01249    321561.25449  21135211.2264   21135215.7554
  23836860.860      689260.88949    516274.32449  23836865.0434   23836871.8024
  20650611.108      377341.25659    105967.09449  20650613.4514   20650619.6454
  22645440.746     -213114.64949   -157588.70849  22645441.0044   22645447.3374
  24928158.105      660451.00749    486274.59649  24928159.1344   24928166.1874
  22564888.377     -224889.80649   -170973.30549  22564888.6954   22564895.2494
 96  8 14 15 58  0.0000000  0  8 16 25 24  4  5  6  9 10
  23395064.997     -400486.65049   -304290.80949  23395067.3214   23395075.2344
  24624684.927     -132146.04149   -101374.62949  24624690.7754   24624694.5604
  21149670.570      506911.90249    380794.39849  21149674.5254   21149682.4024
  23860536.834      813684.99949    613228.15249  23860542.4244   23860548.5224
  20663052.417      442715.02649    156907.67749  20663053.6354   20663059.7334
  22636704.963     -259014.35049   -193354.69049  22636706.3924   22636712.1894
  24952384.502      787737.28249    585458.59149  24952381.6894   24952388.3704
  22555898.969     -272117.17149   -207773.83749  22555901.2914   22555908.8024
 96  8 14 15 58 30.0000000  0  8 16 25 24  4  5  6  9 10
  23381599.587     -471263.37849   -359441.47149  23381599.1044   23381604.9724
  24619560.186     -159066.50849   -122351.57949  24619566.3664   24619574.1544
  21163863.954      581478.10949    438897.95349  21163864.5784   21163871.3054
  23883889.026      936396.09049    708847.15249  23883893.5344   23883899.2744
  20675238.992      506754.27949    206808.37349  20675239.9784   20675245.8294
  22627640.646     -306628.18049   -230456.37049  22627646.0994   22627651.1434
  24976237.828      913125.83149    683163.85149  24976240.7374   24976248.1544
  22546635.652     -320799.64049   -245708.22249  22546636.6854   22546644.2974
 96  8 14 15 59  0.0000000  0  7 16 25 24  4  5  6 10
  23367835.625     -543571.76349   -415785.63449  23367838.1084   23367845.7654
  24614194.425     -187235.58749   -144301.53449  24614205.5824   24614213.6024
  21177793.140      654679.31249    495937.81849  21177795.7044   21177800.7614
  23906932.762     1057469.36349    803189.90349  23906932.9274   23906939.5084
  20687184.556      569534.21149    255727.78949  20687186.6034   20687192.6044
  22618274.173     -355865.05649   -268822.75849  22618276.6704   22618281.6504
  22537115.491     -370834.13949   -284696.11149  22537115.8064   22537122.1314
 96  8 14 15 59 30.0000000  0  7 16 25 24  4  5  6 10
  23353795.631     -617341.66449   -473268.64949  23353801.6124   23353809.2654
  24608624.293     -216582.46849   -167169.22849  24608622.6034   24608629.8314
  21191476.140      726592.57949    551974.12549  21191479.4254   21191485.9204
  23929670.960     1176965.48949    896303.71849  23929672.7044   23929678.9034
  20698904.161      631110.59049    303709.36049  20698904.7114   20698910.2914
  22608609.590     -406655.54449   -308399.74749  22608611.7454   22608616.9034
  22527354.727     -422130.69949   -324667.44849  22527354.7724   22527361.7364
 96  8 14 16  0  0.0000000  0  7 16 25 24  4  5  6 10
  23339496.365     -692499.30249   -531832.98749  23339498.9874   23339505.5204
  24602819.057     -247052.12849   -190911.80849  24602823.8974   24602830.1694
  21204928.345      797282.86749    607057.45649  21204930.8264   21204936.8034
  23952121.282     1294966.86549    988252.78249  23952127.8344   23952134.5334
  20710402.352      691538.51449    350796.03749  20710403.6414   20710409.2164
  22598664.427     -458921.09349   -349126.13449  22598665.7604   22598670.6634
  22517369.510     -474598.69749   -365551.57349  22517371.2334   22517377.3854
 96  8 14 16  0 30.0000000  0  7 16 25 24  4  5  6 10
  23324945.156     -768970.40049   -591420.81649  23324947.3624   23324954.2964
  24596819.249     -278591.10449   -215487.62849  24596822.1834   24596828.0284
  21218160.571      866814.60749    661238.03149  21218162.8314   21218170.0034
  23974304.593     1411541.22049   1079089.91849  23974310.7854   23974317.5714
  20721699.820      750903.14249    397054.16849  20721700.2824   20721706.0174
  22588449.931     -512593.79949   -390949.01349  22588452.2524   22588457.3164
  22507175.792     -528165.69749   -407292.06649  22507177.3534   22507184.0524
 96  8 14 16  1  0.0000000  0  7 16 25 24  4  5  6 10
  23310160.109     -846677.62849   -651971.86049  23310160.0804   23310166.6664
  24590629.830     -311126.86749   -240840.16149  24590631.1884   24590635.4354
  21231188.009      935276.49349    714584.94049  21231190.5464   21231195.7894
  23996231.539     1526763.14349   1168873.17149  23996237.7344   23996243.8034
  20732809.533      809297.01949    442555.87349  20732812.3474   20732817.9884
  22577980.674     -567603.57849   -433813.76249  22577984.1224   22577989.4614
  22496784.886     -582758.35149   -449831.78449  22496788.6334   22496795.6324
 96  8 14 16  1 30.0000000  0  7 16 25 24  4  5  6 10
  23295153.146     -925534.09149   -713418.43049  23295153.9774   23295161.3454
  24584257.653     -344581.74049   -266908.85449  24584263.0934   24584269.9974
  21244025.637     1002738.31649    767152.58049  21244027.8584   21244035.1544
  24017919.825     1640713.98049   1257665.99849  24017921.3244   24017927.7674
  20743755.851      866815.39949    487375.37449  20743757.4824   20743763.2434
  22567275.873     -623870.78049   -477658.32349  22567277.0854   22567282.6744
  22486216.339     -638308.51249   -493117.60349  22486217.7434   22486224.5594
 96  8 14 16  2  0.0000000  0  7 16 25 24  4  5  6 10
  23279943.311    -1005451.17149   -775691.43149  23279945.4224   23279954.5324
  24577734.966     -378867.06949   -293624.72049  24577740.4384   24577745.6974
  21256686.193     1069272.63749    818997.49949  21256689.6244   21256695.0894
  24039377.865     1753480.13049   1345535.69949  24039379.1614   24039386.9554
  20754552.143      923560.73349    531592.49549  20754555.7664   20754561.8634
  22556344.672     -681308.25749   -522414.78749  22556346.2584   22556353.1964
  22475478.700     -694740.25649   -537090.37749  22475478.4044   22475486.1914
 96  8 14 16  2 30.0000000  0  7 16 25 24  4  5  6 10
  23264549.329    -1086357.54349   -838735.30649  23264550.0104   23264557.2964
  24571078.239     -413878.86449   -320906.63649  24571078.5864   24571082.6224
  21269185.086     1134961.85049    870183.87549  21269189.2584   21269195.5174
  24060623.835     1865129.56449   1432535.20149  24060625.5614   24060632.5764
  20765221.496      979619.00849    575274.25449  20765223.3814   20765229.2894
  22545206.039     -739840.27249   -568024.13249  22545208.3634   22545214.9214
  22464582.128     -751991.48349   -581701.69649  22464583.8514   22464592.2774
 96  8 14 16  3  0.0000000  0  7 16 25 24  4  5  6 10
  23248981.457    -1168174.25949   -902488.60549  23248980.4174   23248987.3454
  24564300.993     -449511.87249   -348672.62649  24564297.2234   24564302.8344
  21281540.496     1199883.82249    920772.42249  21281543.5994   21281550.6704
  24081672.256     1975737.03049   1518722.79449  24081674.3114   24081680.4704
  20775770.466     1035054.97649    618471.08849  20775772.7184   20775778.5124
  22533880.699     -799367.41449   -614408.90949  22533880.7774   22533887.7274
  22453547.647     -809990.09149   -626895.40849  22453546.9144   22453554.1614
 96  8 14 16  3 30.0000000  0  7 16 25 24  4  5  6 10
  23233247.137    -1250833.23449   -966898.15849  23233251.3474   23233259.0184
  24557412.554     -485691.49749   -376864.54149  24557413.1594   24557417.2384
  21293763.029     1264105.25849    970815.08849  21293765.0674   21293770.0044
  24102535.763     2085380.77849   1604159.43049  24102538.4444   24102545.2564
  20786212.699     1089930.34349    661231.10049  20786214.8014   20786221.0354
  22522373.872     -859818.30249   -661513.49049  22522377.5714   22522383.6264
  22442380.399     -868663.63949   -672615.02949  22442381.4534   22442389.3594
 96  8 14 16  4  0.0000000  0  7 16 25 24  4  5  6 10
  23217370.146    -1334278.51949  -1031920.42749  23217371.6174   23217379.9174
  24550429.480     -522344.86349   -405425.61549  24550437.6354   24550441.4964
  21305862.240     1327696.55149   1020366.73249  21305866.1414   21305873.3844
  24123228.677     2194116.56449   1688888.57649  24123230.9364   24123237.0544
  20796557.783     1144289.40049    703588.78449  20796559.2094   20796565.3034
  22510707.759     -921139.32049   -709296.09849  22510708.0924   22510714.8154
  22431101.359     -927941.07649   -718805.22149  22431102.7574   22431109.7864
 96  8 14 16  4 30.0000000  0  7 16 25 24  4  5  6 10
  23201351.741    -1418462.75249  -1097518.49349  23201352.5744   23201359.5564
  24543381.348     -559417.14249   -434313.13549  24543382.9264   24543388.1474
  21317852.697     1390705.28349   1069464.42849  21317856.0364   21317861.5904
  24143755.276     2301990.60749   1772946.23849  24143758.2204   24143764.4334
  20806811.456     1198180.68449    745581.97649  20806814.2644   20806820.4934
  22498878.765     -983282.78649   -757719.56649  22498882.7554   22498889.3434
  22419714.266     -987776.40749   -765430.13249  22419716.3204   22419723.3024
 96  8 14 16  5  0.0000000  0  7 16 25 24  4  5  6 10
  23185198.919    -1503340.54649  -1163656.99249  23185200.2834   23185208.9914
  24536247.966     -596888.81449   -463511.82649  24536252.7494   24536256.0934
  21329737.478     1453153.17849   1118125.11149  21329739.4904   21329746.5434
  24164126.911     2409033.59849   1856356.31149  24164127.0474   24164133.9594
  20816984.540     1251634.25249    787234.07849  20816986.2234   20816992.4804
  22486906.142    -1046207.80449   -806752.04149  22486908.5314   22486915.2374
  22408232.213    -1048120.34349   -812451.37549  22408232.5544   22408239.3014
 96  8 14 16  5 30.0000000  0  7 16 25 24  4  5  6 10
  23168923.016    -1588865.37649  -1230299.69549  23168926.1394   23168934.3384
  24529045.466     -634750.23349   -493014.22049  24529048.1484   24529052.6284
  21341515.872     1515057.46549   1166362.19849  21341519.7524   21341525.9994
  24184341.696     2515273.80149   1939140.84649  24184344.8254   24184351.0684
  20827076.917     1304678.58849    828567.30649  20827080.3584   20827086.5514
  22474786.885    -1109897.63949   -856380.46649  22474788.9754   22474795.3474
  22396659.590    -1108925.51249   -859832.01149  22396661.9534   22396668.8774
 96  8 14 16  6  0.0000000  0  7 16 25 24  4  5  6 10
  23152529.745    -1675026.29649  -1297438.05949  23152530.2474   23152536.8094
  24521762.049     -673007.86549   -522825.38149  24521767.6044   24521773.1774
  21353193.281     1576422.00549   1214178.70849  21353196.0044   21353203.1154
  24204406.120     2620701.82249   2021292.49449  24204407.2284   24204414.1334
  20837095.443     1357324.49549    869590.07249  20837098.1344   20837104.3244
  22462521.630    -1174340.65649   -906595.78949  22462526.0464   22462531.8374
  22385005.505    -1170177.98649   -907561.19449  22385006.0514   22385012.5614
 96  8 14 16  6 30.0000000  0  7 16 25 24  4  5  6 10
  23136019.601    -1761787.07649  -1365043.82249  23136020.1084   23136026.7914
  24514406.668     -711647.53549   -552934.19449  24514413.6044   24514420.5304
  21364773.569     1637262.10049   1261586.56249  21364773.9514   21364781.3844
  24224315.181     2725342.52549   2102830.64049  24224319.8224   24224327.1964
  20847045.218     1409605.79649    910328.73049  20847047.0984   20847053.4874
  22450125.425    -1239505.73449   -957373.76949  22450125.3394   22450130.9564
  22373269.144    -1231847.94649   -955615.68349  22373270.9784   22373277.4014
 96  8 14 16  7  0.0000000  0  7 16 25 24  4  5  6 10
  23119399.665    -1849119.01049  -1433094.66149  23119401.2514   23119408.3944
  24506987.964     -750666.28449   -583338.41749  24506990.1204   24506994.8894
  21376254.490     1697591.45449   1308596.43849  21376255.2374   21376260.9334
  24244083.967     2829215.81949   2183770.81649  24244084.8424   24244091.9034
  20856923.152     1461519.12049    950780.64449  20856926.1804   20856931.9984
  22437587.806    -1305374.48949  -1008700.06049  22437591.2174   22437596.5784
  22361460.723    -1293909.85549  -1003975.59349  22361461.1824   22361467.5744
 96  8 14 16  7 30.0000000  0  7 16 25 24  4  5  6 10
  23102671.821    -1937021.08249  -1501589.73749  23102674.6814   23102680.9514
  24499492.699     -790040.40649   -614019.54249  24499495.8684   24499502.1224
  21387637.638     1757420.65649   1355216.56649  21387640.6974   21387646.1684
  24263706.047     2932331.17549   2264120.40849  24263708.5284   24263713.8694
  20866732.969     1513067.03449    990947.82449  20866735.5624   20866741.4144
  22424920.495    -1371942.47949  -1060571.20549  22424922.8424   22424928.7434
  22349575.007    -1356362.02249  -1052639.61749  22349576.8614   22349583.4404
 96  8 14 16  8  0.0000000  0  7 16 25 24  4  5  6 10
  23085835.917    -2025494.73149  -1570530.22949  23085838.3454   23085844.5104
  24491939.704     -829740.77249   -644954.91049  24491942.5344   24491948.6104
  21398928.128     1816761.66249   1401456.29649  21398931.7884   21398939.1004
  24283185.630     3034704.37549   2343891.69849  24283189.3584   24283195.6464
  20876473.537     1564252.76949   1030832.79149  20876475.9674   20876481.8974
  22412121.943    -1439193.53149  -1112974.61749  22412126.0124   22412131.5114
  22337618.960    -1419194.69549  -1101600.10949  22337620.1504   22337627.3894
 96  8 14 16  8 30.0000000  0  7 16 25 24  4  5  6 10
  23068895.982    -2114508.88849  -1639891.85849  23068898.7324   23068905.8934
  24484327.483     -869728.71749   -676114.33449  24484332.6894   24484339.5684
  21410129.138     1875622.49249   1447321.87749  21410131.7174   21410138.2474
  24302531.386     3136361.54049   2423105.03449  24302533.6754   24302541.2954
  20886146.978     1615087.15449   1070443.98149  20886149.4654   20886155.5324
  22399197.485    -1507104.72549  -1165892.42149  22399202.9224   22399208.4544
  22325592.306    -1482380.63449  -1150835.87949  22325595.4644   22325603.5804
 96  8 14 16  9  0.0000000  0  7 16 25 24  4  5  6 10
  23051855.237    -2204059.68449  -1709671.67949  23051857.5944   23051865.5394
  24476669.239     -909981.84049   -707480.40149  24476672.7294   24476677.6394
  21421245.478     1934028.76449   1492833.23849  21421247.4494   21421254.6014
  24321740.838     3237316.42149   2501771.12749  24321745.5874   24321752.3184
  20895757.577     1665583.68649   1109791.90949  20895758.6744   20895764.7104
  22386155.373    -1575657.15649  -1219309.89149  22386158.0134   22386163.4374
  22313508.078    -1545899.39349  -1200331.00549  22313508.3944   22313515.7374
 96  8 14 16  9 30.0000000  0  7 16 25 24  4  5  6 10
  23034716.998    -2294125.22949  -1779852.59249  23034720.1204   23034727.5994
  24468964.070     -950466.27749   -739026.72849  24468969.0684   24468975.0454
  21432278.092     1992008.16149   1538011.97249  21432280.9244   21432286.7034
  24340824.335     3337594.12549   2579909.56449  24340827.8674   24340834.5494
  20905307.542     1715777.02049   1148903.57949  20905310.0484   20905316.1184
  22372992.341    -1644830.87049  -1273211.48249  22372994.4064   22373000.6564
  22301364.398    -1609713.54549  -1250056.30349  22301365.7124   22301372.8304
 96  8 14 16 10  0.0000000  0  7 16 25 24  4  5  6 10
  23017483.293    -2384677.05949  -1850412.43149  23017488.6704   23017495.1644
  24461223.050     -991179.85349   -770751.57749  24461221.5534   24461227.0404
  21443231.419     2049573.02549   1582867.68449  21443234.4934   21443241.0844
  24359777.349     3437202.72049   2657526.59549  24359782.2264   24359788.9704
  20914806.976     1765691.32349   1187797.82349  20914808.5084   20914814.6474
  22359709.070    -1714622.98249  -1327594.93649  22359713.8124   22359719.5654
  22289168.212    -1673796.30549  -1299990.90249  22289170.4394   22289178.3134
 96  8 14 16 10 30.0000000  0  7 16 25 24  4  5  6 10
  23000168.172    -2475691.71549  -1921332.89749  23000168.7174   23000176.0564
  24453431.047    -1032114.49249   -802648.71849  24453432.4454   24453437.4164
  21454111.133     2106743.11749   1627415.80349  21454114.1034   21454121.1674
  24378608.053     3536147.72449   2734626.51849  24378610.2984   24378618.5974
  20924257.881     1815364.19349   1226503.94149  20924260.7734   20924266.9204
  22346314.994    -1785020.63349  -1382450.23849  22346317.1204   22346323.5704
  22276924.130    -1738138.65249  -1350127.78249  22276926.1404   22276933.8244
 96  8 14 16 11  0.0000000  0  7 16 25 24  4  5  6 10
  22982760.737    -2567156.42949  -1992604.06649  22982763.6884   22982771.3204
  24445596.902    -1073269.82449   -834717.80449  24445599.9354   24445606.1374
  21464915.330     2163528.94349   1671664.47449  21464919.6914   21464925.6454
  24397311.538     3634441.45649   2811218.94149  24397315.7764   24397323.0494
  20933667.915     1864807.37749   1265031.07149  20933669.5914   20933675.8684
  22332801.756    -1856027.55649  -1437780.29849  22332805.1244   22332811.7334
  22264631.567    -1802745.41249  -1400470.69149  22264632.3344   22264639.5104
 96  8 14 16 11 30.0000000  0  7 16 25 24  4  5  6 10
  22965275.914    -2659032.21849  -2064195.54649  22965279.8474   22965287.9424
  24437731.252    -1114613.82349   -866933.89549  24437733.1924   24437738.9324
  21475653.952     2219938.05449   1715619.61049  21475654.1444   21475661.4034
  24415895.237     3732107.03049   2887321.93349  24415901.6604   24415908.0714
  20943035.951     1914042.80749   1303396.32549  20943038.9094   20943044.4864
  22319178.200    -1927624.23849  -1493569.91049  22319180.6814   22319186.9164
  22252290.122    -1867599.62549  -1451006.43749  22252291.9174   22252298.2834
 96  8 14 16 12  0.0000000  0  7 16 25 24  4  5  6 10
  22947718.674    -2751301.43849  -2136093.61049  22947722.1294   22947727.6214
  24429826.764    -1156136.75349   -899289.46549  24429830.5694   24429837.6984
  21486315.855     2275981.96049   1759290.17749  21486319.7924   21486325.3044
  24434362.306     3829137.10549   2962929.75149  24434365.8714   24434372.7284
  20952369.691     1963084.92449   1341610.93849  20952371.5334   20952377.6984
  22305444.679    -1999788.49549  -1549801.79249  22305448.1714   22305454.9384
  22239898.999    -1932707.97949  -1501740.20449  22239901.2424   22239908.4264
 96  8 14 16 12 30.0000000  0  7 16 25 24  4  5  6 10
  22930085.643    -2843964.78649  -2208298.80849  22930088.0204   22930095.7604
  24421898.281    -1197836.71349   -931782.93549  24421895.3124   24421901.8674
  21496912.072     2331671.67049   1802684.71049  21496917.0614   21496922.7754
  24452706.214     3925537.29249   3038046.74949  24452710.1654   24452716.2144
  20961664.795     2011931.48549   1379673.17249  20961666.7244   20961672.1094
  22291610.810    -2072494.24049  -1606455.61249  22291612.5524   22291619.0094
  22227461.682    -1998077.65149  -1552677.59449  22227462.2574   22227468.7704
 96  8 14 16 13  0.0000000  0  7 16 25 24  4  5  6 10
  22912381.068    -2937007.22649  -2280799.37949  22912381.5904   22912390.1774
  24413923.435    -1239697.43549   -964401.70149  24413929.5254   24413935.7764
  21507444.887     2387021.49049   1845814.44549  21507447.9264   21507456.4964
  24470934.321     4021321.83149   3112684.01949  24470937.0404   24470944.4804
  20970919.193     2060570.78949   1417573.90349  20970922.5124   20970928.0344
  22277673.191    -2145729.32949  -1663521.91049  22277676.3724   22277682.8734
  22214973.829    -2063696.58949  -1603809.20449  22214975.2124   22214982.0594
 96  8 14 16 13 30.0000000  0  7 16 25 24  4  5  6 10
  22894603.728    -3030419.65249  -2353588.22049  22894606.6454   22894614.9834
  24405940.423    -1281699.62249   -997130.67149  24405936.5114   24405942.2144
  21517920.772     2442055.57849   1888698.13749  21517921.8284   21517927.5674
  24489043.528     4116481.85049   3186834.64349  24489046.0194   24489051.4954
  20980138.174     2109020.21749   1455326.69149  20980141.9764   20980147.6414
  22263644.694    -2219465.57849  -1720978.72149  22263645.7744   22263651.1804
  22202445.030    -2129533.77749  -1655110.90449  22202446.6394   22202454.1494
 96  8 14 16 14  0.0000000  0  7 16 25 24  4  5  6 10
  22876758.814    -3124184.07649  -2426651.38749  22876763.7724   22876770.1704
  24397916.233    -1323836.38049  -1029964.52949  24397919.2364   24397925.2674
  21528334.620     2496794.99049   1931352.19049  21528339.7004   21528345.8474
  24507033.708     4211028.77449   3260507.51949  24507037.0604   24507044.1904
  20989328.215     2157302.42849   1492949.17749  20989329.8464   20989335.6034
  22249520.417    -2293684.49849  -1778811.64049  22249522.1344   22249527.8514
  22189879.612    -2195558.52049  -1706558.74949  22189882.7034   22189890.5484
 96  8 14 16 14 30.0000000  0  7 16 25 24  4  5  6 10
  22858856.656    -3218281.90849  -2499974.36249  22858858.1504   22858864.9944
  24389874.662    -1366065.92449  -1062870.68449  24389883.4734   24389888.9214
  21538695.401     2551246.83249   1973782.18149  21538700.5074   21538706.9864
  24524915.979     4305006.77549   3333737.08649  24524920.7584   24524927.1824
  20998487.946     2205436.94249   1530456.56949  20998489.7104   20998495.2934
  22235307.083    -2368368.06449  -1837006.62049  22235309.8514   22235316.1044
  22177287.869    -2261736.47949  -1758125.96549  22177289.3414   22177297.2754
 96  8 14 16 15  0.0000000  0  7 16 25 24  4  5  6 10
  22840893.076    -3312671.02349  -2573524.27749  22840896.0064   22840904.4734
  24381837.604    -1408344.56649  -1095815.09449  24381838.5034   24381843.9774
  21549003.944     2605413.44349   2015989.90949  21549007.7214   21549013.3614
  24542695.203     4398438.02449   3406540.59549  24542699.5504   24542708.8464
  21007621.210     2253442.77949   1567863.69849  21007624.9634   21007630.8994
  22221008.527    -2443502.34349  -1895552.80949  22221012.4584   22221018.9364
  22164674.160    -2328021.82049  -1809776.85949  22164675.7054   22164682.9094
 96  8 14 16 15 30.0000000  0  7 16 25 24  4  5  6 10
  22822883.116    -3407327.33949  -2647282.38349  22822884.6114   22822891.4964
  24373783.140    -1450665.23849  -1128792.24449  24373784.3714   24373790.5624
  21559258.946     2659297.38849   2057977.38949  21559262.0804   21559269.6914
  24560379.817     4491339.68649   3478931.44749  24560378.3534   24560385.5524
  21016735.928     2301339.28249   1605185.63449  21016739.0954   21016744.9534
  22206631.649    -2519057.19849  -1954426.70849  22206635.2134   22206641.2674
  22152045.479    -2394387.47749  -1861490.35749  22152046.8024   22152053.2364
 96  8 14 16 16  0.0000000  0  7 16 25 24  4  5  6 10
  22804820.446    -3502238.22849  -2721238.90249  22804823.0854   22804829.0924
  24365721.723    -1493024.93749  -1161799.81649  24365723.4514   24365730.1084
  21569454.930     2712884.95849   2099733.92049  21569458.2934   21569464.1904
  24577960.571     4583733.78149   3550926.76649  24577961.2714   24577967.7504
  21025829.467     2349120.89149   1642418.04449  21025831.6864   21025838.1694
  22192174.476    -2595031.81849  -2013627.70649  22192177.6654   22192183.2124
  22139400.329    -2460834.06349  -1913266.90049  22139402.3424   22139408.9124
 96  8 14 16 16 30.0000000  0  7 16 25 24  4  5  6 10
  22786715.204    -3597388.07949  -2795381.61649  22786716.9124   22786724.9804
  24357656.372    -1535414.65149  -1194830.77549  24357657.7894   24357663.3894
  21579600.354     2766186.95449   2141267.92449  21579602.0824   21579609.6564
  24595445.424     4675629.06049   3622533.41149  24595447.1464   24595455.9474
  21034899.163     2396788.16849   1679561.36049  21034902.6814   21034908.5314
  22177640.503    -2671408.68349  -2073142.14049  22177643.6194   22177649.1974
  22126743.184    -2527353.95349  -1965100.55549  22126744.2184   22126751.1614
 96  8 14 16 17  0.0000000  0  7 16 25 24  4  5  6 10
  22768566.420    -3692752.36749  -2869691.40049  22768569.5384   22768577.4774
  24349583.639    -1577840.61049  -1227889.97849  24349584.0624   24349591.1814
  21589694.247     2819244.69349   2182611.60149  21589700.2414   21589705.4384
  24612836.576     4767017.99349   3693745.49649  24612838.8734   24612846.5934
  21043951.967     2444359.58449   1716629.97249  21043955.2354   21043961.1824
  22163034.318    -2748169.14949  -2132955.47949  22163036.5294   22163041.9534
  22114073.042    -2593920.73949  -2016970.76549  22114076.7984   22114084.6224
 96  8 14 16 17 30.0000000  0  7 16 25 24  4  5  6 10
  22750376.553    -3788338.38949  -2944173.98249  22750379.9544   22750385.8064
  24341505.185    -1620299.68049  -1260974.95849  24341503.9304   24341510.5774
  21599748.569     2872079.46449   2223781.50449  21599752.8384   21599758.2374
  24630132.833     4857907.72149   3764568.62449  24630135.8884   24630141.6324
  21052990.664     2491854.68149   1753639.13249  21052993.2474   21052999.2034
  22148355.131    -2825302.44349  -2193059.33149  22148358.4984   22148364.1004
  22101398.421    -2660530.40849  -2068874.39749  22101401.2004   22101408.1214
 96  8 14 16 18  0.0000000  0  7 16 25 24  4  5  6 10
  22732145.292    -3884151.66349  -3018833.67249  22732147.7444   22732154.5014
  24333421.092    -1662767.91949  -1294067.11549  24333422.7734   24333429.7414
  21609762.455     2924702.98449   2264786.84449  21609765.0434   21609774.1914
  24647329.215     4948293.64949   3834999.15849  24647334.6564   24647341.3584
  21062015.919     2539285.70749   1790598.36549  21062019.2174   21062025.1464
  22133604.128    -2902820.05349  -2253462.65449  22133607.2744   22133613.0954
  22088719.261    -2727171.93949  -2120802.84349  22088719.9344   22088727.6294
 96  8 14 16 18 30.0000000  0  7 16 25 24  4  5  6 10
  22713871.779    -3980172.34649  -3093654.94249  22713875.0274   22713884.2194
  24325339.437    -1705235.65049  -1327158.85949  24325341.0344   24325349.1394
  21619741.728     2977129.27349   2305638.49649  21619742.6724   21619748.8644
  24664439.753     5038177.82049   3905038.72249  24664439.7794   24664445.6914
  21071034.919     2586673.88549   1827524.20149  21071037.0184   21071042.7214
  22118779.758    -2980715.28249  -2314160.22649  22118784.1964   22118789.9574
  22076034.421    -2793825.82849  -2172740.92449  22076036.8344   22076043.2424
 96  8 14 16 19  0.0000000  0  7 16 25 24  4  5  6 10
  22695567.627    -4076376.74849  -3168619.36749  22695568.6814   22695575.0664
  24317262.439    -1747680.73849  -1360232.96049  24317264.8664   24317271.8414
  21629679.607     3029360.99049   2346338.49849  21629683.0474   21629688.7564
  24681449.061     5127582.51949   3974704.64349  24681452.2724   24681459.2264
  21080046.426     2634038.71549   1864431.84349  21080050.0834   21080055.7704
  22103885.580    -3058985.67949  -2375150.13449  22103889.5304   22103895.6364
  22063352.805    -2860468.98449  -2224670.63849  22063354.1414   22063361.4054
 96  8 14 16 19 30.0000000  0  7 16 25 24  4  5  6 10
  22677228.073    -4172741.82049  -3243709.00449  22677230.5984   22677236.6044
  24309192.093    -1790071.29549  -1393264.57949  24309197.5814   24309204.5064
  21639578.133     3081390.46449   2386880.93049  21639583.6594   21639590.7434
  24698375.427     5216545.65649   4044026.52749  24698380.9754   24698387.0244
  21089059.544     2681398.77549   1901335.76249  21089062.3914   21089068.0844
  22088921.581    -3137620.36749  -2436423.90449  22088925.7594   22088931.7394
  22050674.109    -2927088.16749  -2276581.67549  22050676.3754   22050683.8484
 96  8 14 16 20  0.0000000  0  7 16 25 24  4  5  6 10
  22658864.960    -4269228.58649  -3318893.48249  22658869.6254   22658876.7994
  24301142.107    -1832398.12549  -1426246.54249  24301143.1124   24301149.7034
  21649445.605     3133230.57749   2427275.80849  21649447.8164   21649453.7944
  24715229.410     5305089.02549   4113021.30549  24715229.5934   24715237.9634
  21098073.382     2728765.96049   1938245.23449  21098076.0834   21098082.0334
  22073894.397    -3216599.82849  -2497966.33749  22073897.0484   22073902.7104
  22038006.416    -2993662.06049  -2328457.43249  22038008.6244   22038015.3174
 96  8 14 16 20 30.0000000  0  7 16 25 24  4  5  6 10
  22640488.832    -4365813.65049  -3394154.55049  22640490.6144   22640497.6424
  24293102.858    -1874651.89849  -1459171.59249  24293102.4164   24293109.3634
  21659275.019     3184889.78749   2467529.72149  21659278.6344   21659285.9054
  24731996.721     5393236.27249   4181707.43249  24732005.1494   24732010.1894
  21107090.596     2776147.69949   1975166.04549  21107092.7574   21107098.2514
  22058804.555    -3295900.67449  -2559759.19449  22058806.0694   22058812.5954
  22025349.600    -3060173.58149  -2380284.58149  22025351.6934   22025359.2704
 96  8 14 16 21  0.0000000  0  7 16 25 24  4  5  6 10
  22622086.806    -4462499.42149  -3469494.05549  22622091.2944   22622097.4244
  24285074.389    -1916808.47049  -1492020.88449  24285080.0454   24285086.3924
  21669071.587     3236380.41649   2507652.27249  21669076.7774   21669083.3994
  24748701.848     5481001.14549   4250095.60049  24748705.3424   24748713.4464
  21116106.431     2823534.75649   2012091.00549  21116110.2174   21116115.8844
  22043652.403    -3375503.57249  -2621787.41349  22043658.2314   22043664.6474
  22012705.722    -3126624.81849  -2432064.74349  22012705.6794   22012713.2344
 96  8 14 16 21 30.0000000  0  7 16 25 24  4  5  6 10
  22603672.574    -4559282.76249  -3544909.65049  22603675.0934   22603680.3734
  24277081.041    -1958857.24349  -1524786.17449  24277078.9924   24277083.9274
  21678845.572     3287723.90249   2547660.16549  21678847.8824   21678854.2054
  24765333.726     5568384.48549   4318186.45749  24765334.6874   24765342.3684
  21125126.401     2870933.53849   2049025.09849  21125129.7534   21125135.6164
  22028457.498    -3455374.69949  -2684024.64149  22028459.6974   22028465.6954
  22000071.406    -3193005.53349  -2483789.97349  22000074.4544   22000080.6724
 96  8 14 16 22  0.0000000  0  7 16 25 24  4  5  6 10
  22585236.688    -4656153.32249  -3620393.19849  22585240.4884   22585247.2584
  24269090.168    -2000793.87749  -1557464.08949  24269099.2124   24269104.3434
  21688590.851     3338940.88549   2587569.47949  21688594.5424   21688600.6024
  24781888.078     5655380.74049   4385975.70149  24781889.6484   24781896.7254
  21134150.102     2918349.26549   2085972.39749  21134152.4474   21134158.4214
  22013210.151    -3535483.05349  -2746446.72549  22013215.6734   22013221.3204
  21987458.953    -3259301.76749  -2535449.37349  21987459.4824   21987465.6484
 96  8 14 16 22 30.0000000  0  7 16 25 24  4  5  6 10
  22566789.217    -4753101.87149  -3695937.47949  22566791.6954   22566799.6264
  24261139.468    -2042600.34049  -1590040.57949  24261143.2844   24261147.9854
  21698313.693     3390042.24349   2627388.69949  21698317.9544   21698324.8034
  24798371.424     5741995.42149   4453467.61649  24798372.1164   24798379.1344
  21143178.201     2965789.16749   2122938.53049  21143180.3944   21143186.0744
  21997925.642    -3615817.78649  -2809045.20749  21997928.4814   21997934.2644
  21974858.485    -3325517.75049  -2587046.23449  21974858.5204   21974865.6644
 96  8 14 16 23  0.0000000  0  7 16 25 24  4  5  6 10
  22548333.930    -4850091.77949  -3771513.98849  22548335.0464   22548341.4314
  24253210.087    -2084255.34449  -1622499.04549  24253215.9284   24253222.0124
  21708021.640     3441047.31649   2667132.89649  21708023.5234   21708030.4084
  24814780.636     5828240.73449   4520671.70249  24814783.5904   24814791.1344
  21152214.684     3013280.62549   2159944.83149  21152217.7944   21152223.2314
  21982596.942    -3696355.83749  -2871802.11849  21982602.4954   21982608.5064
  21962272.988    -3391637.09849  -2638567.79349  21962276.2064   21962284.0054
 96  8 14 16 23 30.0000000  0  7 16 25 24  4  5  6 10
  22529872.438    -4947090.50049  -3847097.40249  22529875.5594   22529882.7684
  24245316.915    -2125751.15849  -1654833.47449  24245319.4664   24245325.3224
  21717712.844     3491976.51949   2706817.97149  21717716.4374   21717723.0594
  24831124.656     5914127.91949   4587596.73049  24831126.9624   24831135.1134
  21161268.037     3060860.56449   2197020.08349  21161271.6584   21161277.6904
  21967236.249    -3777083.31249  -2934706.63849  21967240.8494   21967246.7704
  21949717.492    -3457628.80849  -2689989.89349  21949718.2164   21949725.4834
 96  8 14 16 24  0.0000000  0  7 16 25 24  4  5  6 10
  22511418.199    -5044076.63449  -3922670.99949  22511421.3144   22511428.8254
  24237454.200    -2167064.08649  -1687025.37649  24237458.3614   24237463.6154
  21727391.886     3542836.84149   2746449.35749  21727395.2774   21727399.8834
  24847404.175     5999672.22949   4654254.57649  24847405.7694   24847414.0194
  21170342.622     3108541.71549   2234174.20749  21170345.1194   21170351.1654
  21951837.657    -3858016.32849  -2997771.31449  21951839.3494   21951845.6944
  21937183.287    -3523489.10349  -2741309.60349  21937185.7574   21937192.1424
 96  8 14 16 24 30.0000000  0  7 16 25 24  4  5  6 10
  22492968.369    -5141035.95149  -3998223.64749  22492970.0004   22492977.9484
  24229637.324    -2208168.01649  -1719054.42349  24229636.6094   24229641.1694
  21737057.634     3593643.15649   2786038.65549  21737062.3194   21737069.4794
  24863625.541     6084892.55349   4720659.96449  24863623.0234   24863632.4554
  21179438.493     3156340.13849   2271419.70949  21179441.0884   21179446.6284
  21936394.793    -3939158.56449  -3060999.02149  21936398.5484   21936404.9984
  21924681.623    -3589192.74549  -2792507.25849  21924683.6044   21924690.7954
 96  8 14 16 25  0.0000000  0  7 16 25 24  4  5  6 10
  22474518.883    -5237975.37349  -4073760.85749  22474522.5004   22474528.4864
  24221851.555    -2249072.35049  -1750927.93949  24221852.1664   24221858.4394
  21746716.305     3644401.00849   2825590.24249  21746720.2224   21746727.8364
  24879780.491     6169789.58149   4786813.44649  24879777.9624   24879787.0564
  21188554.787     3204248.77249   2308751.08449  21188557.6784   21188563.8924
  21920916.885    -4020505.74249  -3124386.42549  21920918.8274   21920924.9884
  21912213.617    -3654708.23149  -2843558.27549  21912215.6794   21912223.3184
 96  8 14 16 25 30.0000000  0  7 16 25 24  4  5  6 10
  22456072.830    -5334922.42249  -4149304.00749  22456075.6174   22456082.0484
  24214099.101    -2289797.05049  -1782661.48249  24214103.0504   24214109.4224
  21756366.158     3695098.20349   2865094.52149  21756368.1114   21756374.9924
  24895863.847     6254351.48949   4852705.77249  24895869.8484   24895878.3114
  21197687.384     3252238.52849   2346145.67849  21197689.8824   21197695.5254
  21905393.855    -4102071.91149  -3187944.47149  21905396.9194   21905403.2964
  21899783.192    -3720040.62149  -2894466.61849  21899783.9594   21899790.7284
 96  8 14 16 26  0.0000000  0  7 16 25 24  4  5  6 10
  22437626.137    -5431854.06849  -4224835.12349  22437629.7774   22437637.2054
  24206391.321    -2330323.38249  -1814240.47949  24206391.1564   24206396.6994
  21766003.082     3745736.53849   2904552.96549  21766004.7724   21766012.1334
  24911901.148     6338594.98149   4918349.99649  24911901.9084   24911909.0464
  21206834.427     3300310.60649   2383604.41749  21206837.9494   21206844.0414
  21889837.125    -4183827.14749  -3251649.84549  21889839.3344   21889845.4094
  21887389.491    -3785158.12349  -2945207.51849  21887391.7664   21887399.1954
 96  8 14 16 26 30.0000000  0  6 16 25 24  5  6 10
  22419183.178    -5528777.03349  -4300359.49649  22419184.7374   22419191.3074
  24198708.136    -2370692.12949  -1845696.67549  24198709.4524   24198714.5044
  21775620.507     3796284.82349   2943941.21449  21775624.9934   21775629.8384
  21215991.820     3348431.30049   2421101.04049  21215995.2124   21216001.1224
  21874245.602    -4265767.94349  -3315499.81449  21874247.1644   21874252.3814
  21875038.340    -3850065.36349  -2995784.59649  21875041.2084   21875047.3164
 96  8 14 16 27  0.0000000  0  6 16 25 24  5  6 10
  22400742.572    -5625679.60049  -4375867.98149  22400744.9654   22400751.7964
  24191052.652    -2410906.45849  -1877032.52249  24191056.3694   24191062.2084
  21785216.849     3846719.05949   2983240.58549  21785221.8704   21785227.4564
  21225156.380     3396588.21849   2458625.89149  21225158.9594   21225164.7954
  21858616.473    -4347896.40049  -3379496.01149  21858618.6604   21858624.4124
  21862723.687    -3914781.32049  -3046212.62149  21862725.9724   21862732.7424
 96  8 14 16 27 30.0000000  0  6 16 25 24  5  6 10
  22382306.428    -5722555.46649  -4451355.64149  22382310.9364   22382317.7854
  24183432.583    -2450963.03249  -1908245.46049  24183434.8414   24183439.9084
  21794788.573     3897012.50949   3022430.27549  21794790.9274   21794798.2544
  21234328.632     3444786.93949   2496183.31149  21234331.1334   21234337.1534
  21842947.234    -4430229.97449  -3443652.02949  21842950.7834   21842956.6794
  21850437.489    -3979337.01949  -3096515.75949  21850440.8274   21850447.3984
 96  8 14 16 28  0.0000000  0  6 16 25 24  5  6 10
  22363879.433    -5819404.06249  -4526822.07149  22363881.1274   22363887.5074
  24175834.869    -2490870.38649  -1939342.13449  24175840.8264   24175845.3214
  21804332.523     3947158.60449   3061505.13549  21804333.8784   21804340.0334
  21243508.432     3493034.15249   2533778.52449  21243511.7394   21243517.7514
  21827237.320    -4512784.57149  -3507980.27749  21827241.2554   21827246.9544
  21838182.204    -4043745.47349  -3146704.15849  21838183.9504   21838191.7124
 96  8 14 16 28 30.0000000  0  6 16 25 24  5  6 10
  22345456.264    -5916212.63249  -4602257.31049  22345458.9924   22345465.3414
  24168274.752    -2530603.64549  -1970303.13049  24168279.5514   24168284.2804
  21813852.090     3997193.00049   3100492.95549  21813855.9204   21813863.1144
  21252704.833     3541362.76449   2571437.16149  21252708.6624   21252714.7894
  21811489.583    -4595541.54849  -3572466.22349  21811492.9514   21811498.7274
  21825954.729    -4108003.85149  -3196775.63049  21825956.3354   21825964.3804
 96  8 14 16 29  0.0000000  0  6 16 25 24  5  6 10
  22327034.399    -6013022.96449  -4677693.88749  22327036.5014   22327043.9904
  24160743.982    -2570181.95749  -2001143.39049  24160747.5434   24160753.4924
  21823347.240     4047096.68549   3139378.92549  21823352.6224   21823357.8994
  21261915.298     3589761.80549   2609150.68049  21261918.7524   21261924.6904
  21795697.132    -4678533.01849  -3637134.88249  21795700.1514   21795706.2154
  21813748.908    -4172140.89649  -3246752.52949  21813751.1034   21813758.3204
 96  8 14 16 29 30.0000000  0  6 16 25 24  5  6 10
  22308608.459    -6109852.89049  -4753145.76549  22308610.9614   22308617.3794
  24153238.167    -2609622.40549  -2031876.23249  24153243.6294   24153249.2374
  21832824.122     4096881.92349   3178172.57849  21832826.1484   21832832.3964
  21271139.884     3638235.35349   2646922.25149  21271143.1154   21271149.0584
  21779863.256    -4761745.08049  -3701975.44249  21779865.5264   21779871.6114
  21801570.039    -4236148.20849  -3296628.35649  21801571.0664   21801577.5424
 96  8 14 16 30  0.0000000  0  6 16 25 24  5  6 10
  22290175.394    -6206713.36649  -4828621.44049  22290177.5574   22290185.2424
  24145767.266    -2648932.82549  -2062507.75549  24145761.9714   24145768.1894
  21842274.532     4146549.75149   3216874.77749  21842276.4254   21842284.2484
  21280374.745     3686765.14549   2684737.64949  21280378.0854   21280383.9604
  21763989.065    -4845165.24349  -3766978.16349  21763991.3114   21763997.2614
  21789414.462    -4300021.44249  -3346399.71349  21789415.9394   21789422.5914
 96  8 14 16 30 30.0000000  0  6 16 25 24  5  6 10
  22271742.779    -6303583.64449  -4904104.74949  22271745.0454   22271751.2254
  24138310.983    -2688093.80249  -2093022.80649  24138309.9484   24138316.5654
  21851701.114     4196099.59249   3255485.02749  21851705.7114   21851712.0634
  21289621.363     3735359.56649   2722603.41149  21289625.2874   21289631.1794
  21748077.461    -4928771.38649  -3832125.80049  21748081.6754   21748087.5404
  21777287.494    -4363747.10149  -3396056.07249  21777290.1954   21777297.2354
 96  8 14 16 31  0.0000000  0  6 16 25 24  5  6 10
  22253307.431    -6400448.77149  -4979584.06849  22253311.7304   22253317.3834
  24130885.721    -2727092.22649  -2123411.20349  24130888.3544   24130894.7994
  21861109.694     4245533.66849   3294005.06049  21861114.0024   21861120.4874
  21298882.465     3784025.46549   2760524.86549  21298885.6094   21298891.7684
  21732133.910    -5012565.15649  -3897419.64949  21732136.2754   21732141.9154
  21765194.856    -4427303.59649  -3445580.60149  21765196.2874   21765202.8164
 96  8 14 16 31 30.0000000  0  6 16 25 24  5  6 10
  22234876.985    -6497298.86549  -5055051.65649  22234881.0854   22234888.3574
  24123497.680    -2765919.41349  -2153666.20349  24123500.9634   24123507.6524
  21870491.490     4294850.56249   3332433.78649  21870497.8914   21870504.7764
  21308154.163     3832748.74449   2798491.03949  21308157.3334   21308163.2914
  21716148.545    -5096552.97149  -3962864.69549  21716154.1654   21716159.4914
  21753130.772    -4490695.22349  -3494976.66349  21753132.3964   21753139.8944
 96  8 14 16 32  0.0000000  0  7 16 25 24  5  6 17 10
  22216455.540    -6594112.87149  -5130491.12549  22216459.2254   22216465.2554
  24116143.434    -2804566.91049  -2183781.14449  24116146.4664   24116152.2574
  21879852.209     4344039.73449   3370762.98149  21879857.4804   21879864.8404
  21317436.446     3881521.81549   2836496.01349  21317438.8004   21317445.1464
  21700129.629    -5180746.01549  -4028469.66149  21700132.6324   21700138.0904
  25005913.817    -2912457.33659  -2246129.27559  25005907.3154   25005916.0174
  21741101.150    -4553913.57649  -3544237.71949  21741102.7454   21741109.0654
 96  8 14 16 32 30.0000000  0  7 16 25 24  5  6 17 10
  22198043.514    -6690871.39749  -5205887.35149  22198045.4444   22198052.4084
  24108828.477    -2843017.36049  -2213742.54849  24108829.3204   24108836.0054
  21889191.223     4393108.64649   3408998.49949  21889194.9084   21889203.3244
  21326729.150     3930353.40649   2874546.58149  21326731.3324   21326737.2944
  21684067.883    -5265147.27149  -4094236.86649  21684071.3094   21684077.1954
  24981278.325    -3041851.50949  -2346955.82649  24981285.2704   24981294.7494
  21729107.654    -4616939.21449  -3593348.60749  21729109.4024   21729116.1184
 96  8 14 16 33  0.0000000  0  7 16 25 24  5  6 17 10
  22179648.747    -6787544.53849  -5281217.05449  22179649.6874   22179656.6404
  24101555.896    -2881228.93049  -2243517.81849  24101557.7484   24101564.3704
  21898516.606     4442096.81149   3447171.07849  21898518.6524   21898523.8224
  21336035.698     3979264.68249   2912659.24249  21336038.4444   21336044.5724
  21667974.789    -5349723.59849  -4160140.49349  21667977.2524   21667983.0454
  24956612.096    -3171494.70549  -2447976.47049  24956615.2704   24956621.1804
  21717160.237    -4679715.12049  -3642264.88849  21717162.8044   21717170.0024
 96  8 14 16 33 30.0000000  0  7 16 25 24  5  6 17 10
  22161280.768    -6884058.31749  -5356422.61149  22161283.9254   22161291.6974
  24094334.255    -2919154.22649  -2273070.00449  24094341.4284   24094347.1804
  21907831.381     4491050.18049   3485316.51749  21907833.7434   21907840.2724
  21345366.264     4028304.96849   2950872.43249  21345370.7804   21345377.0154
  21651859.595    -5434399.38249  -4226121.61649  21651863.8184   21651869.5824
  24931912.069    -3301332.18849  -2549148.50749  24931908.2884   24931914.4904
  21705274.888    -4742186.99249  -3690944.27449  21705275.4854   21705282.6904
 96  8 14 16 34  0.0000000  0  7 16 25 24  5  6 17 10
  22142931.237    -6980471.55249  -5431549.75249  22142936.4814   22142945.4524
  24087165.791    -2956849.93849  -2302443.31249  24087168.0944   24087173.9974
  21917124.257     4539904.79349   3523385.04649  21917130.0284   21917136.7774
  21354717.192     4077431.16649   2989152.56649  21354719.2774   21354724.8134
  21635720.928    -5519221.96249  -4292217.12449  21635722.4954   21635728.2444
  24907153.687    -3431428.37849  -2650522.13249  24907150.1184   24907157.5784
  21693434.422    -4804402.11949  -3739423.57949  21693436.5244   21693444.0664
 96  8 14 16 34 30.0000000  0  7 16 25 24  5  6 17 10
  22124606.911    -7076791.95349  -5506604.61549  22124607.8234   22124614.5654
  24080036.039    -2994307.09149  -2331630.73149  24080039.4644   24080045.6914
  21926406.134     4588669.18449   3561383.24849  21926409.5144   21926415.3494
  21364081.095     4126646.26949   3027501.97249  21364084.5404   21364090.7124
  21619549.629    -5604195.01949  -4358429.89149  21619552.8604   21619558.4744
  24882340.518    -3561777.95849  -2752093.16749  24882344.9014   24882353.8674
  21681641.991    -4866369.11149  -3787709.55249  21681644.2604   21681651.7314
 96  8 14 16 35  0.0000000  0  7 16 25 24  5  6 17 10
  22106287.491    -7173042.62949  -5581605.12949  22106291.6264   22106298.5214
  24072946.219    -3031567.57849  -2360664.87949  24072949.1804   24072955.8444
  21935661.650     4637312.95949   3599287.47549  21935666.4584   21935673.2004
  21373458.775     4175914.45649   3065892.74049  21373460.0134   21373466.0544
  21603345.207    -5689347.47449  -4424782.45049  21603348.7554   21603354.6184
  24857491.269    -3692394.37349  -2853872.16649  24857490.7054   24857499.2434
  21669889.494    -4928134.82049  -3835838.67649  21669890.3734   21669897.9404
 96  8 14 16 35 30.0000000  0  7 16 25 24  5  6 17 10
  22087991.092    -7269202.55949  -5656534.91249  22087993.2224   22088000.7314
  24065896.036    -3068635.80349  -2389549.22549  24065896.3684   24065901.2244
  21944897.261     4685843.92349   3637103.80049  21944901.6814   21944907.1994
  21382842.883     4225246.74649   3104333.45849  21382847.6024   21382853.4424
  21587108.852    -5774672.26849  -4491269.30149  21587112.1724   21587117.6034
  24832585.067    -3823260.80049  -2955845.96949  24832586.7294   24832593.9044
  21658168.418    -4989724.05649  -3883830.28849  21658170.4114   21658177.8784
 96  8 14 16 36  0.0000000  0  7 16 25 24  5  6 17 10
  22069707.895    -7365279.80349  -5731400.30049  22069710.9644   22069717.6314
  24058875.493    -3105506.69549  -2418279.79949  24058878.9044   24058885.7044
  21954113.945     4734269.72349   3674838.16949  21954116.9224   21954122.4464
  21392245.309     4274648.44149   3142828.26349  21392247.7554   21392254.3034
  21570836.247    -5860182.76649  -4557900.84949  21570839.7184   21570845.7544
  24807640.651    -3954364.22849  -3058004.46449  24807639.4874   24807646.3054
  21646482.949    -5051126.90649  -3931676.66149  21646485.7324   21646493.4704
 96  8 14 16 36 30.0000000  0  7 16 25 24  5  6 17 10
  22051440.879    -7461263.08449  -5806192.43649  22051444.8414   22051452.5444
  24051896.697    -3142194.33449  -2446867.56149  24051897.6624   24051904.6664
  21963309.683     4782597.62349   3712496.24649  21963314.0244   21963319.5444
  21401659.684     4324111.30449   3181370.73449  21401660.6824   21401666.8684
  21554530.301    -5945874.73649  -4624673.80449  21554533.1564   21554539.3564
  24782642.136    -4085692.36349  -3160338.01249  24782647.3764   24782655.6594
  21634834.780    -5112346.61749  -3979380.31749  21634836.2304   21634844.1974
 96  8 14 16 37  0.0000000  0  7 16 25 24  5  6 17 10
  22033195.897    -7557151.45949  -5880910.63349  22033198.1634   22033205.2294
  24044944.220    -3178708.59249  -2475320.25749  24044949.2114   24044956.0874
  21972483.778     4830814.93149   3750068.15949  21972488.7104   21972495.1034
  21411084.554     4373646.24549   3219969.35849  21411087.3474   21411093.4474
  21538194.271    -6031728.79749  -4691573.06949  21538195.5754   21538201.8924
  24757609.746    -4217256.90049  -3262855.82049  24757612.0114   24757620.0424
  21623222.017    -5173371.05349  -4026931.81949  21623223.9474   21623231.2844
 96  8 14 16 37 30.0000000  0  7 16 25 24  5  6 17 10
  22014966.538    -7652948.97949  -5955558.02749  22014969.4024   22014976.1034
  24038031.966    -3215040.75449  -2503631.06249  24038035.9134   24038042.2334
  21981637.481     4878918.52949   3787551.46449  21981642.7684   21981648.9044
  21420528.625     4423282.90349   3258647.24649  21420532.9794   21420538.5014
  21521825.853    -6117725.48149  -4758583.46649  21521831.0394   21521837.4244
  24732537.214    -4349048.54549  -3365550.55549  24732532.0184   24732540.1074
  21611653.677    -5234164.88049  -4074303.62649  21611655.3314   21611661.9464
 96  8 14 16 38  0.0000000  0  7 16 25 24  5  6 17 10
  21996754.497    -7748640.40449  -6030122.74149  21996758.9414   21996766.2654
  24031161.553    -3251161.73249  -2531777.28649  24031162.0514   24031168.5044
  21990775.176     4926931.53549   3824964.18849  21990779.3894   21990786.7124
  21430002.346     4473059.45549   3297434.13949  21430004.7804   21430011.6164
  21505442.201    -6203828.32449  -4825676.58749  21505446.3894   21505452.4224
  24707409.967    -4481026.21649  -3468390.25549  24707418.0004   24707426.2244
  21600140.150    -5294667.56549  -4121448.57049  21600142.5284   21600148.7194
 96  8 14 16 38 30.0000000  0  7 16 25 24  5  6 17 10
  21978567.280    -7844221.62449  -6104601.59049  21978571.0844   21978577.7554
  24024320.758    -3287062.96549  -2559752.28349  24024330.6074   24024336.1604
  21999893.317     4974854.27749   3862306.55049  21999899.0734   21999904.8294
  21439495.252     4522961.65649   3336318.94849  21439501.0554   21439507.0814
  21489037.365    -6290033.18649  -4892849.21149  21489042.1394   21489048.2124
  24682262.184    -4613196.66749  -3571380.19249  24682266.8484   24682275.2544
  21588680.633    -5354885.08849  -4168371.30849  21588683.1394   21588690.2254
 96  8 14 16 39  0.0000000  0  7 16 25 24  5  6 17 10
  21960398.284    -7939706.96749  -6179005.71949  21960400.5964   21960407.3114
  24017535.812    -3322747.51049  -2587558.42749  24017540.5554   24017546.5774
  22008989.316     5022651.46249   3899551.09849  22008993.7904   22009001.3794
  21449012.034     4572955.77749   3375275.37449  21449014.6204   21449020.7884
  21472606.932    -6376376.30349  -4960129.55649  21472611.6274   21472617.8714
  24657071.047    -4745570.48549  -3674528.57349  24657076.3814   24657083.6424
  21577272.725    -5414830.70949  -4215082.16949  21577275.5124   21577282.7414
 96  8 14 16 39 30.0000000  0  7 16 25 24  5  6 17 10
  21942252.506    -8035055.90949  -6253303.56849  21942256.5904   21942263.0954
  24010793.363    -3358185.23849  -2615172.24749  24010796.2024   24010802.6064
  22018068.957     5070353.78949   3936721.73449  22018071.2384   22018077.6394
  21458545.360     4623044.08749   3414305.20649  21458546.2934   21458552.8014
  21456153.307    -6462842.97949  -5027506.17949  21456157.3514   21456163.5954
  24631852.507    -4878098.15549  -3777796.86849  24631858.6134   24631866.7954
  21565922.311    -5474484.63249  -4261565.73649  21565924.1224   21565931.2674
 96  8 14 16 39 59.9990000  0  7 16 25 24  5  6 17 10
  21924136.273    -8130256.25249  -6327485.60749  21924139.9504   21924147.0794
  24004099.603    -3393372.43649  -2642590.85649  24004101.3844   24004106.4964
  22027126.898     5117960.87749   3973818.13549  22027130.5114   22027137.8754
  21468087.166     4673197.88349   3453386.05149  21468090.4314   21468095.6954
  21439673.573    -6549447.44449  -5094990.17149  21439677.2434   21439683.4084
  24606601.100    -5010787.33249  -3881191.00149  24606607.7784   24606615.2434
  21554622.478    -5533861.75149  -4307833.61149  21554625.1854   21554631.9504
 96  8 14 16 40 29.9990000  0  7 16 25 24  5  6 17 10
  21906049.377    -8225302.15049  -6401547.31149  21906053.1174   21906059.3534
  23997445.397    -3428308.23649  -2669813.58749  23997452.1864   23997459.3784
  22036165.414     5165466.70349   4010835.63249  22036171.5234   22036178.0834
  21477639.620     4723395.43249   3492501.00649  21477642.4254   21477649.2524
  21423164.241    -6636209.30849  -5162596.81549  21423166.9174   21423172.9014
  24581314.334    -5143665.82949  -3984732.66249  24581320.7444   24581330.2274
  21543372.801    -5592976.07449  -4353896.70949  21543375.7314   21543382.4974
 96  8 14 16 40 59.9990000  0  7 16 25 24  5  6 17 10
  21887998.727    -8320172.58249  -6475472.31049  21888000.4554   21888006.6074
  23990848.953    -3462988.67849  -2696837.33949  23990853.7934   23990858.3384
  22045189.053     5212879.89349   4047780.93349  22045193.3394   22045199.6884
  21487205.809     4773663.33149   3531670.76349  21487208.8214   21487213.9134
  21406627.550    -6723097.28049  -5230301.72449  21406632.3674   21406638.4444
  24555996.247    -5276721.43149  -4088412.33649  24556002.4184   24556010.8574
  21532181.334    -5651795.74049  -4399730.20749  21532183.0224   21532189.3834
 96  8 14 16 41 29.9990000  0  7 16 25 24  5  6 17 10
  21869976.541    -8414871.12249  -6549263.34949  21869979.7344   21869986.9554
  23984302.250    -3497414.64449  -2723662.80149  23984301.7904   23984309.1004
  22054199.298     5260222.06649   4084670.92849  22054202.1534   22054209.7404
  21496791.638     4824032.86149   3570919.72349  21496793.2504   21496799.2754
  21390078.164    -6810077.10249  -5298078.20449  21390081.0144   21390086.8464
  24530643.292    -5409958.46349  -4192233.34849  24530648.3464   24530655.8024
  21521047.410    -5710303.04849  -4445320.30349  21521049.3014   21521055.5294
 96  8 14 16 41 59.9990000  0  7 16 25 24  5  6 17 10
  21851984.414    -8509421.47749  -6622938.91649  21851986.8314   21851993.7764
  23977794.279    -3531599.63449  -2750300.47049  23977797.3294   23977803.5294
  22063192.746     5307477.23149   4121493.10949  22063194.7994   22063200.5684
  21506393.815     4874500.87449   3610245.43649  21506396.9564   21506403.4374
  21373505.938    -6897160.09349  -5365935.07249  21373509.7254   21373515.6244
  24505250.077    -5543403.37049  -4296216.38549  24505253.6204   24505261.5794
  21509969.056    -5768517.99949  -4490682.59949  21509971.5694   21509978.2014
 96  8 14 16 42 29.9990000  0  7 16 25 24  5  6 17 10
  21834019.078    -8603831.03249  -6696504.77549  21834022.0544   21834028.1124
  23971323.750    -3565564.26649  -2776766.43549  23971334.5274   23971339.2804
  22072162.772     5354629.41249   4158235.03149  22072167.8324   22072174.9874
  21516013.484     4925051.89749   3649635.81549  21516016.3384   21516022.3934
  21356915.662    -6984344.32149  -5433870.82749  21356919.0694   21356924.9424
  24479811.618    -5677064.27149  -4400367.69049  24479817.8284   24479827.8234
  21498943.588    -5826461.52549  -4535833.38549  21498945.5724   21498952.3044
 96  8 14 16 42 59.9990000  0  7 16 25 24  5  6 17 10
  21816073.036    -8698127.55649  -6769982.57549  21816077.2984   21816084.1304
  23964899.508    -3599346.82249  -2803090.51949  23964905.0174   23964910.9774
  22081112.351     5401656.11249   4194879.19849  22081116.6634   22081123.2824
  21525644.205     4975668.01549   3689076.92249  21525648.4244   21525654.4464
  21340303.125    -7071646.56749  -5501898.54549  21340306.0464   21340312.0504
  24454345.563    -5810951.96449  -4504695.77549  24454342.1204   24454348.6484
  21487959.978    -5884178.25849  -4580807.45349  21487962.2664   21487969.0744
 96  8 14 16 43 29.9990000  0  7 16 25 24  5  6 17 10
  21798159.412    -8792266.44549  -6843337.49649  21798162.9754   21798170.3234
  23958515.442    -3632919.08349  -2829250.74649  23958516.1774   23958521.5874
  22090043.460     5448590.57249   4231451.46949  22090047.6284   22090054.0514
  21535290.263     5026362.61149   3728579.18049  21535295.1994   21535301.1734
  21323671.052    -7159050.56749  -5570005.55649  21323673.9894   21323679.3574
  24428823.541    -5945027.96249  -4609170.53049  24428828.2634   24428836.6954
  21477021.567    -5941657.07249  -4625596.13649  21477024.3224   21477031.0014
 96  8 14 16 43 59.9990000  0  7 16 25 24  5  6 17 10
  21780286.129    -8886207.97149  -6916538.67749  21780287.0464   21780292.9384
  23952166.716    -3666258.17149  -2855229.25449  23952172.5054   23952178.6714
  22098962.450     5495451.34949   4267966.36549  22098964.8694   22098972.5744
  21544952.938     5077127.98249   3768136.59049  21544955.7314   21544961.9114
  21307021.199    -7246547.38149  -5638184.88949  21307023.5584   21307029.4364
  24403276.494    -6079262.42149  -4713768.79649  24403284.4934   24403291.0484
  21466133.063    -5998880.51849  -4670185.82049  21466134.3484   21466141.7074
 96  8 14 16 44 29.9990000  0  7 16 25 24  5  6 17 10
  21762445.014    -8979947.38549  -6989582.34949  21762448.8554   21762455.2774
  23945867.047    -3699374.45749  -2881034.16349  23945870.8564   23945875.2294
  22107865.742     5542232.07649   4304418.83849  22107868.0734   22107873.5114
  21554623.462     5127946.27049   3807735.22949  21554626.6154   21554632.6234
  21290351.293    -7334138.81249  -5706437.94749  21290355.3854   21290361.1684
  24377709.418    -6213657.90049  -4818492.52249  24377708.5984   24377716.5924
  21455293.828    -6055831.95649  -4714563.54849  21455296.8524   21455304.1324
 96  8 14 16 44 59.9990000  0  7 16 25 24  5  6 17 10
  21744642.956    -9073502.15049  -7062482.14549  21744646.4744   21744652.7454
  23939603.608    -3732266.21949  -2906664.13549  23939611.2624   23939616.0084
  22116748.313     5588925.97549   4340803.66349  22116752.9854   22116761.0424
  21564305.306     5178822.25549   3847378.83449  21564307.3014   21564312.9444
  21273662.619    -7421840.50549  -5774776.92849  21273666.5464   21273672.0784
  24352097.114    -6348219.58549  -4923345.79649  24352102.8654   24352109.8074
  21444511.102    -6112502.28049  -4758722.22749  21444512.9654   21444520.5784
 96  8 14 16 45 29.9990000  0  7 16 25 24  5  6 17 10
  21726867.124    -9166914.47549  -7135270.94649  21726870.5084   21726875.7664
  23933382.901    -3764961.04449  -2932140.64449  23933389.7424   23933395.2264
  22125609.476     5635488.60749   4377086.22849  22125612.3804   22125620.0964
  21573988.230     5229720.39949   3887039.70649  21573992.7274   21574000.0474
  21256944.157    -7509696.20549  -5843235.90849  21256947.9024   21256953.8554
  24326452.857    -6482987.72249  -5028359.90649  24326457.7204   24326465.1814
  21433777.556    -6168900.93049  -4802669.20849  21433780.9344   21433787.7824
 96  8 14 16 45 59.9990000  0  7 16 25 24  5  6 17 10
  21709118.032    -9260191.55449  -7207954.36149  21709120.4744   21709127.0884
  23927209.637    -3797431.30649  -2957442.17449  23927210.6624   23927217.0304
  22134445.059     5681915.53749   4413263.03049  22134448.8644   22134455.4474
  21583685.629     5280662.89949   3926735.13649  21583687.2664   21583693.4754
  21240201.078    -7597683.68049  -5911797.57249  21240204.8784   21240210.3064
  24300771.383    -6617944.80549  -5133521.24149  24300776.6194   24300783.3014
  21423104.165    -6225002.16849  -4846384.44949  21423105.3314   21423111.8784
 96  8 14 16 46 29.9990000  0  7 16 25 24  5  6 17 10
  21691398.929    -9353290.39849  -7280498.88149  21691404.0264   21691411.7124
  23921080.659    -3829619.92549  -2982524.24849  23921085.2214   23921091.7264
  22143260.733     5728244.66149   4449363.61849  22143264.4444   22143270.6184
  21593396.331     5331718.22049   3966518.46749  21593402.6424   21593408.9194
  21223441.526    -7685750.79549  -5980421.29649  21223445.8394   21223451.6574
  24275064.810    -6753039.55749  -5238789.86149  24275069.1014   24275075.9874
  21412492.473    -6280758.93449  -4889831.27449  21412495.3944   21412501.7034
 96  8 14 16 46 59.9990000  0  7 16 25 24  5  6 17 10
  21673721.322    -9446193.85549  -7352891.15249  21673725.2534   21673732.2804
  23915009.982    -3861499.07049  -3007365.16849  23915019.2914   23915024.2704
  22152059.125     5774488.30649   4485397.60549  22152063.7294   22152071.1864
  21603142.057     5382915.61549   4006412.51649  21603145.2304   21603151.5764
  21206669.650    -7773887.44149  -6049099.19249  21206674.3474   21206679.8394
  24249332.655    -6888250.36749  -5344148.91249  24249338.3524   24249345.4414
  21401948.504    -6336165.62549  -4933005.30549  21401951.5534   21401958.3024
 96  8 14 16 47 29.9990000  0  7 16 25 24  5  6 17 10
  21656084.630    -9538875.85049  -7425110.87449  21656088.9514   21656094.2734
  23909014.926    -3893049.58849  -3031950.00849  23909015.4724   23909020.9814
  22160850.177     5820669.75949   4521383.14249  22160852.7634   22160859.5334
  21612912.915     5434262.72849   4046423.22649  21612916.6074   21612922.4174
  21189891.883    -7862065.56049  -6117809.40749  21189894.4424   21189900.3064
  24223588.136    -7023548.35649  -5449575.91949  24223592.4084   24223600.0694
  21391475.159    -6391207.09149  -4975894.74749  21391477.1584   21391483.8144
 96  8 14 16 47 59.9990000  0  7 16 25 24  5  6 17 10
  21638487.342    -9631357.63049  -7497174.58849  21638489.7264   21638495.9534
  23903063.275    -3924296.09249  -3056297.93449  23903070.6804   23903074.7764
  22169621.568     5866768.40649   4557304.12249  22169624.2604   22169630.5844
  21622703.405     5485728.20049   4086526.16749  21622709.7424   21622716.2024
  21173098.091    -7950309.05449  -6186570.56449  21173102.1264   21173107.8884
  24197822.141    -7158964.73049  -5555095.14549  24197822.7394   24197831.5994
  21381060.202    -6445935.78349  -5018540.47549  21381062.8834   21381069.5434
 96  8 14 16 48 29.9990000  0  7 16 25 24  5  6 17 10
  21620924.221    -9723647.96649  -7569089.10149  21620926.7784   21620935.4304
  23897174.731    -3955282.91649  -3080443.53249  23897172.7724   23897178.0744
  22178375.025     5912768.85449   4593148.61549  22178378.5954   22178385.5954
  21632519.664     5537289.10049   4126703.46949  21632521.7334   21632527.3904
  21156286.492    -8038651.73849  -6255409.01849  21156290.9554   21156296.4834
  24172025.258    -7294532.92949  -5660732.68349  24172024.9284   24172033.2864
  21370699.758    -6500383.98549  -5060967.63149  21370701.7054   21370708.7214
 96  8 14 16 48 59.9990000  0  7 16 25 24  5  6 17 10
  21603399.689    -9815736.95149  -7640846.71549  21603402.5034   21603410.5644
  23891317.363    -3986024.31749  -3104397.87349  23891322.7204   23891328.5254
  22187109.642     5958679.18449   4628922.87349  22187114.5334   22187120.3394
  21642345.872     5588937.53249   4166948.97749  21642350.6344   21642356.2134
  21139458.895    -8127087.46849  -6324319.97149  21139462.4744   21139468.2764
  24146189.861    -7430255.75949  -5766490.68049  24146197.2944   24146205.4294
  21360390.301    -6554553.99749  -5103178.02449  21360393.3344   21360400.7544
 96  8 14 16 49 29.9990000  0  7 16 25 24  5  6 17 10
  21585921.367    -9907590.65049  -7712421.00849  21585924.0204   21585931.1754
  23885516.638    -4016507.71849  -3128151.19849  23885521.5124   23885528.8214
  22195833.410     6004527.35349   4664648.70249  22195839.4724   22195845.9224
  21652191.390     5640677.73249   4207265.98149  21652195.8704   21652201.7854
  21122618.028    -8215585.41949  -6393279.41049  21122621.9384   21122627.6574
  24120338.484    -7566123.80949  -5872361.90049  24120344.7114   24120351.5614
  21350139.933    -6608425.80649  -5145156.04549  21350141.5404   21350148.8544
 96  8 14 16 49 59.9990000  0  7 16 25 24  5  6 17 10
  21568496.197    -9999148.60349  -7783764.85249  21568501.2794   21568508.7264
  23879780.656    -4046696.95649  -3151675.31249  23879777.0114   23879783.0584
  22204549.999     6050334.30649   4700342.40049  22204555.9884   22204561.9244
  21662062.705     5692546.93449   4247683.51249  21662065.6254   21662072.2794
  21105771.325    -8304116.65149  -6462264.78049  21105774.6474   21105780.5604
  24094460.632    -7702106.56649  -5978322.42349  24094466.8674   24094474.1644
  21339951.299    -6661954.69649  -5186866.85649  21339955.4504   21339963.2214
 96  8 14 16 50 29.9990000  0  7 16 25 24  5  6 17 10
  21551134.318   -10090396.22749  -7854866.86049  21551137.3384   21551145.4334
  23874086.436    -4076592.75449  -3174970.75749  23874087.7974   23874094.3414
  22213259.403     6096098.85749   4736003.06549  22213264.4204   22213271.5774
  21671960.991     5744554.71049   4288209.01949  21671963.2394   21671969.1264
  21088919.278    -8392671.09749  -6531268.23549  21088923.3254   21088929.2004
  24068570.659    -7838184.38549  -6084357.08749  24068571.9934   24068580.9554
  21329839.099    -6715106.72449  -5228284.01049  21329841.4724   21329848.2324
 96  8 14 16 50 59.9990000  0  7 16 25 24  5  6 17 10
  21533829.261   -10181334.27449  -7925727.64949  21533832.2914   21533839.1854
  23868448.697    -4106187.23649  -3198031.41049  23868455.7194   23868462.6444
  22221959.438     6141810.34749   4771622.40149  22221962.9744   22221969.9474
  21681880.828     5796681.22349   4328827.05649  21681883.1084   21681888.8784
  21072065.915    -8481244.20749  -6600286.23149  21072068.4424   21072074.2044
  24042657.571    -7974342.03349  -6190453.93249  24042662.3744   24042670.8024
  21319797.003    -6767877.36649  -5269403.97449  21319799.4524   21319806.4634
 96  8 14 16 51 29.9990000  0  7 16 25 24  5  6 17 10
  21516582.167   -10271974.41849  -7996356.32749  21516584.2734   21516590.6754
  23862884.775    -4135471.29549  -3220850.18449  23862883.1074   23862889.9894
  22230648.656     6187464.89449   4807197.34549  22230651.7124   22230658.1744
  21691821.500     5848937.02949   4369545.82949  21691826.4654   21691832.8434
  21055207.345    -8569835.20349  -6669318.17349  21055210.3954   21055216.2864
  24016733.103    -8110566.56449  -6296602.88449  24016738.0284   24016747.9124
  21309829.827    -6820254.68549  -5310217.46949  21309832.4004   21309838.9964
 96  8 14 16 51 59.9990000  0  7 16 25 24  5  6 17 10
  21499384.971   -10362336.17849  -8066768.06449  21499388.7374   21499396.6314
  23857367.580    -4164449.87649  -3243430.92749  23857369.3294   23857376.4404
  22239319.385     6233045.57349   4842714.74049  22239324.4544   22239331.9304
  21701792.778     5901336.98549   4410376.95049  21701797.6394   21701804.1824
  21038345.269    -8658441.05049  -6738361.67849  21038349.0524   21038355.0484
  23990804.663    -8246838.92249  -6402789.12849  23990807.8964   23990814.8884
  21299939.884    -6872227.27549  -5350715.58349  21299942.4194   21299949.0214
 96  8 14 16 52 29.9990000  0  7 16 25 24  5  6 17 10
  21482239.098   -10452444.26849  -8136982.12349  21482242.3214   21482249.5554
  23851904.406    -4193144.28849  -3265790.22849  23851910.0114   23851914.9764
  22247979.183     6278551.80849   4878174.12649  22247984.5464   22247991.2204
  21711791.911     5953863.81049   4451306.90449  21711793.5404   21711799.0934
  21021482.961    -8747057.09149  -6807413.13049  21021486.3734   21021491.9494
  23964860.841    -8383161.87249  -6509014.75849  23964866.2884   23964872.9934
  21290123.965    -6923806.17349  -5390906.92149  21290127.1864   21290134.0484
 96  8 14 16 52 59.9990000  0  7 16 25 24  5  6 17 10
  21465138.852   -10542307.00449  -8207005.01049  21465141.1614   21465147.8564
  23846494.768    -4221569.10649  -3287939.44149  23846500.0254   23846507.5884
  22256624.039     6323972.78149   4913567.06749  22256627.7234   22256634.7534
  21721803.252     6006493.84149   4492317.28149  21721808.3594   21721815.0154
  21004618.408    -8835688.36649  -6876476.46149  21004620.1974   21004626.1504
  23938901.025    -8519561.88549  -6615300.41049  23938909.4374   23938917.8044
  21280380.340    -6975014.75649  -5430809.71349  21280382.5694   21280389.6054
 96  8 14 16 53 29.9990000  0  7 16 25 24  5  6 17 10
  21448083.403   -10631930.68849  -8276841.63249  21448086.7784   21448093.1144
  23841133.336    -4249740.31649  -3309891.07149  23841139.4774   23841147.0844
  22265248.306     6369300.33649   4948887.21949  22265253.0984   22265259.7314
  21731840.676     6059222.86149   4533404.79749  21731842.8904   21731849.5744
  20987747.286    -8924340.95249  -6945556.39149  20987750.2754   20987756.0834
  23912931.699    -8656062.19749  -6721664.27049  23912934.7404   23912942.4834
  21270706.160    -7025859.00449  -5470428.59049  21270707.4774   21270714.5794
 96  8 14 16 53 59.9990000  0  7 16 25 24  5  6 17 10
  21431081.770   -10721276.47749  -8346461.70749  21431085.0664   21431091.9824
  23835827.989    -4277648.46149  -3331637.70649  23835829.1054   23835835.6594
  22273860.211     6414549.60049   4984146.36649  22273864.2574   22273871.0754
  21741890.531     6112038.02749   4574559.44449  21741892.6454   21741899.8694
  20970874.263    -9013007.05349  -7014646.85449  20970877.5784   20970883.1874
  23886936.848    -8792657.39449  -6828102.03949  23886942.1834   23886949.9734
  21261098.996    -7076330.07549  -5509756.68849  21261102.5914   21261110.1324
 96  8 14 16 54 29.9990000  0  7 16 25 24  5  6 17 10
  21414140.192   -10810308.94049  -8415837.63249  21414142.5314   21414149.9424
  23830563.015    -4305272.04349  -3353162.60349  23830571.8864   23830579.5374
  22282461.344     6459749.76549   5019367.23849  22282466.2264   22282472.0504
  21751961.802     6164958.57349   4615796.20049  21751963.2644   21751970.6474
  20954000.913    -9101675.74349  -7083739.33849  20954004.4784   20954010.2664
  23860926.097    -8929341.01749  -6934608.73749  23860931.1834   23860939.8924
  21251571.015    -7126415.78049  -5548784.50249  21251571.3784   21251578.8084
 96  8 14 16 54 59.9990000  0  7 16 25 24  5  6 17 10
  21397255.708   -10899023.83849  -8484966.09349  21397260.0634   21397268.0044
  23825368.429    -4332591.91449  -3374450.82649  23825374.3014   23825380.0454
  22291053.119     6504907.75649   5054555.27149  22291058.2724   22291066.4094
  21762055.224     6218005.03249   4657131.06549  21762057.3804   21762064.5394
  20937128.259    -9190342.23149  -7152830.10649  20937131.7964   20937137.4524
  23834901.314    -9066098.80349  -7041173.23049  23834907.2904   23834915.3214
  21242109.568    -7176118.50849  -5587513.90049  21242113.6904   21242121.0684
 96  8 14 16 55 29.9990000  0  7 16 25 24  5  6 17 10
  21380436.255   -10987416.41149  -8553843.39749  21380439.9264   21380447.3894
  23820229.426    -4359583.26149  -3395483.08349  23820236.9564   23820243.7884
  22299641.441     6550032.78049   5089717.61049  22299645.7744   22299652.2164
  21772175.499     6271191.53249   4698575.06349  21772178.7464   21772185.6084
  20920257.150    -9279002.35649  -7221915.91649  20920260.4744   20920265.8564
  23808866.624    -9202897.77349  -7147769.80049  23808875.2344   23808883.8634
  21232728.792    -7225424.87849  -5625934.42349  21232731.0034   21232738.4814
 96  8 14 16 55 59.9990000  0  7 16 25 24  5  6 17 10
  21363678.121   -11075482.21749  -8622466.07949  21363681.9464   21363687.8764
  23815162.696    -4386228.17949  -3416245.39349  23815167.0834   23815173.6974
  22308222.294     6595130.44349   5124858.60449  22308227.8004   22308234.2824
  21782329.081     6324538.06149   4740143.74949  21782330.0894   21782336.7044
  20903388.089    -9367648.30349  -7290990.67449  20903391.6414   20903397.2374
  23782838.848    -9339715.91049  -7254381.31949  23782839.6584   23782848.1234
  21223423.013    -7274328.75249  -5664041.32949  21223425.3074   21223432.2864
 96  8 14 16 56 29.9990000  0  7 16 25 24  5  6 17 10
  21346976.951   -11163254.72449  -8690860.24449  21346979.6824   21346984.5474
  23810155.194    -4412539.06649  -3436747.40249  23810160.3954   23810166.9424
  22316795.689     6640176.49649   5159959.41149  22316799.4854   22316806.9274
  21792509.667     6378048.74149   4781840.34849  21792513.3204   21792519.9934
  20886521.571    -9456281.36849  -7360055.39549  20886525.3044   20886531.0194
  23756795.679    -9476558.92249  -7361012.18949  23756798.7284   23756807.8324
  21214189.555    -7322853.15449  -5701852.54449  21214190.9064   21214198.3824
 96  8 14 16 56 59.9990000  0  7 16 25 24  5  6 17 10
  21330327.763   -11250738.99549  -8759029.79349  21330330.9804   21330338.9034
  23805215.541    -4438522.92949  -3456994.60749  23805215.0944   23805221.3474
  22325358.121     6685162.23249   5195013.20749  22325360.5714   22325367.1914
  21802720.161     6431697.87949   4823644.84849  21802722.0414   21802729.1784
  20869659.138    -9544900.68349  -7429109.40249  20869661.6274   20869666.9744
  23730750.113    -9613428.62549  -7467663.87949  23730752.8804   23730761.0774
  21205025.310    -7370999.25349  -5739368.98549  21205029.5244   21205035.7894
 96  8 14 16 57 29.9990000  0  7 16 25 24  5  6 17 10
  21313740.565   -11337905.12449  -8826951.38249  21313744.1714   21313752.5484
  23800331.394    -4464180.48249  -3476987.51649  23800332.9714   23800339.9494
  22333906.322     6730096.22149   5230026.67249  22333910.7284   22333917.7364
  21812954.214     6485482.69149   4865555.06449  21812957.2014   21812963.4684
  20852798.616    -9633500.65749  -7498148.34049  20852801.6604   20852806.9424
  23704698.642    -9750329.44349  -7574339.79249  23704702.6644   23704711.0284
  21195942.858    -7418734.33649  -5776565.14349  21195945.6314   21195952.6764
 96  8 14 16 57 59.9990000  0  7 16 25 24  5  6 17 10
  21297218.404   -11424738.73449  -8894613.90849  21297221.1464   21297227.0684
  23795500.696    -4489532.12649  -3496742.08649  23795508.7854   23795515.7054
  22342447.652     6774987.55649   5265006.92349  22342453.6754   22342461.0424
  21823212.301     6539395.18249   4907564.77149  21823216.3764   21823222.2854
  20835941.991    -9722083.74249  -7567174.11949  20835944.4064   20835950.2594
  23678634.273    -9887280.22549  -7681054.65349  23678641.7894   23678650.5204
  21186937.063    -7466059.12349  -5813441.58749  21186939.6534   21186947.2994
 96  8 14 16 58 29.9990000  0  7 16 25 24  5  6 17 10
  21280755.997   -11511246.96949  -8962022.92149  21280758.8274   21280763.5104
  23790740.879    -4514600.02149  -3516275.51549  23790740.2394   23790744.9544
  22350982.841     6819832.65549   5299951.11449  22350987.1484   22350993.9864
  21833490.105     6593402.09149   4949648.04449  21833493.3964   21833499.8174
  20819082.803    -9810666.71749  -7636199.80649  20819087.7464   20819093.6904
  23652561.197   -10024307.14649  -7787828.86049  23652565.0964   23652574.6064
  21178009.916    -7512975.62849  -5849999.88649  21178012.2064   21178019.0784
 96  8 14 16 58 59.9990000  0  7 16 25 24  5  6 17 10
  21264355.687   -11597425.03949  -9029174.64149  21264358.4154   21264365.7804
  23786012.762    -4539396.08749  -3535597.14749  23786021.4034   23786026.4874
  22359506.877     6864618.47549   5334849.15849  22359510.0214   22359517.2854
  21843780.485     6647477.79849   4991784.93049  21843784.6284   21843790.0154
  20802221.697    -9899271.10749  -7705242.18049  20802226.8884   20802232.8904
  23626475.563   -10161421.72749  -7894671.34349  23626472.8484   23626482.8614
  21169158.592    -7559480.63449  -5886237.55349  21169162.0204   21169169.7144
 96  8 14 16 59 29.9990000  0  7 16 25 24  5  6 17 10
  21248018.332   -11683277.33549  -9096072.50349  21248022.2074   21248029.5994
  23781344.477    -4563920.35449  -3554706.98449  23781352.4084   23781360.4244
  22368014.135     6909336.70149   5369694.48349  22368018.8414   22368025.8474
  21854082.251     6701619.05849   5033972.89349  21854086.8074   21854093.7994
  20785357.342    -9987895.24949  -7774299.94349  20785362.1534   20785368.2344
  23600356.899   -10298632.49849  -8001588.80549  23600363.0094   23600371.3454
  21160383.686    -7605595.96949  -5922171.56649  21160386.4644   21160394.2124
 96  8 14 16 59 59.9990000  0  7 16 25 24  5  6 17 10
  21231741.814   -11768819.16849  -9162728.45349  21231743.9814   21231750.7394
  23776732.475    -4588160.85249  -3573595.70049  23776740.1024   23776747.7614
  22376510.883     6953983.99649   5404484.57749  22376515.3964   22376522.5184
  21864399.130     6755835.60449   5076219.51949  21864403.7084   21864409.7924
  20768493.093   -10076519.99749  -7843358.18149  20768497.7874   20768503.2904
  23574230.969   -10435918.95449  -8108565.22549  23574240.0404   23574248.0044
  21151678.817    -7651336.60449  -5957813.60549  21151682.2954   21151690.0034
 96  8 14 17  0 29.9990000  0  7 16 25 24  5  6 17 10
  21215521.393   -11854044.61149  -9229137.87949  21215526.0084   21215532.2544
  23772182.111    -4612091.28549  -3592242.81149  23772187.6734   23772193.9624
  22384990.805     6998544.79149   5439207.22049  22384994.4514   22385001.7374
  21874737.410     6810143.28549   5118537.16649  21874738.3274   21874745.0814
  20751634.408   -10165118.89649  -7912396.27749  20751637.9904   20751643.4404
  23548103.850   -10573254.12049  -8215579.61549  23548104.9104   23548112.4214
  21143048.910    -7696695.02549  -5993157.82249  21143050.9574   21143058.4684
 96  8 14 17  0 59.9990000  0  7 16 25 24  5  6 17 10
  21199365.476   -11938951.26249  -9295298.89049  21199368.3434   21199374.2424
  23767691.440    -4635706.04649  -3610643.94449  23767693.7794   23767698.5144
  22393452.491     7043008.18949   5473854.01249  22393455.8114   22393462.0124
  21885088.250     6864547.95549   5160930.37749  21885091.5534   21885097.9564
  20734780.877   -10253682.65149  -7981406.99249  20734785.0334   20734790.7404
  23521965.624   -10710623.05849  -8322620.31049  23521963.7164   23521972.4164
  21134487.501    -7741679.35549  -6028210.53849  21134490.6094   21134497.4274
 96  8 14 17  1 29.9990000  0  7 16 25 24  5  6 17 10
  21183269.533   -12023538.35049  -9361210.89149  21183272.4204   21183278.9024
  23763253.529    -4658994.10549  -3628790.52249  23763261.1224   23763267.7844
  22401897.198     7087389.60549   5508436.89749  22401900.6724   22401908.3854
  21895461.322     6919055.39949   5203403.67849  21895463.1304   21895470.2034
  20717937.189   -10342194.18649  -8050377.01349  20717941.4914   20717947.3124
  23495811.714   -10848027.89849  -8429688.96249  23495817.2224   23495825.5334
  21126002.070    -7786281.13849  -6062965.17149  21126004.1814   21126010.2754
 96  8 14 17  1 59.9990000  0  7 16 25 24  5  6 17 10
  21167233.848   -12107804.23549  -9426872.59649  21167236.9254   21167244.7034
  23758893.540    -4681954.48649  -3646681.74549  23758893.3124   23758897.8124
  22410325.596     7131682.82349   5542951.07849  22410330.8094   22410336.2304
  21905853.011     6973672.15749   5245962.16249  21905857.1304   21905862.9534
  20701101.018   -10430675.86349  -8119323.76749  20701103.9694   20701109.7284
  23469662.067   -10985453.62149  -8536773.91749  23469666.0444   23469673.1834
  21117590.689    -7830481.33349  -6097406.87949  21117593.5104   21117599.1674
 96  8 14 17  2 29.9990000  0  7 16 25 24  5  6 17 10
  21151262.740   -12191730.47549  -9492269.63849  21151266.2144   21151273.4844
  23754585.404    -4704584.37849  -3664315.45349  23754586.3154   23754592.8794
  22418737.198     7175894.07149   5577401.37349  22418743.5344   22418749.8114
  21916265.948     7028388.56049   5288598.28849  21916269.1464   21916275.1924
  20684269.791   -10519136.25149  -8188253.93449  20684270.7034   20684276.5504
  23443498.953   -11122909.15349  -8643882.08149  23443509.3594   23443517.1864
  21109259.321    -7874265.68249  -6131524.55049  21109260.9814   21109266.7344
 96  8 14 17  2 59.9980000  0  7 16 25 24  5  6 17 10
  21135361.303   -12275288.24049  -9557379.57249  21135365.7244   21135371.7374
  23750345.931    -4726866.23149  -3681677.96449  23750347.7444   23750352.7464
  22427144.781     7220063.49049   5611819.07449  22427148.8264   22427154.9264
  21926699.816     7083216.96549   5331321.68349  21926702.9394   21926708.7964
  20667441.506   -10607556.40049  -8257152.74849  20667444.7834   20667450.8444
  23417349.450   -11260370.64949  -8750994.89649  23417350.8934   23417358.9304
  21101010.740    -7917605.69949  -6165295.99049  21101013.8084   21101019.7734
 96  8 14 17  3 29.9980000  0  7 16 25 24  5  6 17 10
  21119532.163   -12358478.08749  -9622202.81549  21119535.5944   21119541.5214
  23746165.624    -4748791.37249  -3698762.51649  23746173.4324   23746180.9344
  22435546.287     7264204.88149   5646214.95649  22435548.4774   22435555.7234
  21937155.900     7138168.46749   5374141.00949  21937159.6084   21937166.1224
  20650624.286   -10695929.31649  -8326014.75749  20650628.0074   20650633.7474
  23391189.975   -11397842.24049  -8858115.57749  23391190.5164   23391198.1144
  21092847.101    -7960507.57549  -6198726.01649  21092849.8504   21092855.9454
 96  8 14 17  3 59.9980000  0  7 16 25 24  5  6 17 10
  21103776.727   -12441274.78449  -9686719.71049  21103779.5564   21103786.1884
  23742064.727    -4770353.95249  -3715564.55249  23742070.8594   23742077.0444
  22443938.330     7308313.96849   5680585.63449  22443942.3304   22443948.7794
  21947638.053     7193263.85749   5417072.45049  21947644.0014   21947650.7144
  20633818.745   -10784243.77149  -8394831.20949  20633822.2234   20633827.9374
  23365027.520   -11535294.16849  -8965220.95349  23365035.7174   23365041.8204
  21084766.634    -8002962.56749  -6231807.82349  21084770.6714   21084776.8134
 96  8 14 17  4 29.9980000  0  7 16 25 24  5  6 17 10
  21088096.858   -12523669.79649  -9750923.58749  21088100.3424   21088107.3044
  23738036.230    -4791565.30349  -3732092.90249  23738034.5814   23738042.1014
  22452324.330     7352396.92449   5714935.97649  22452330.8094   22452337.3604
  21958150.434     7248500.00549   5460113.56749  21958155.3654   21958161.1874
  20617029.547   -10872478.54749  -8463585.57649  20617031.7914   20617037.1294
  23338881.932   -11672729.01849  -9072313.01149  23338881.6594   23338889.1924
  21076775.507    -8044970.83149  -6264541.51749  21076776.4614   21076783.1394
 96  8 14 17  4 59.9980000  0  7 16 25 24  5  6 17 10
  21072492.485   -12605674.14249  -9814823.06849  21072496.2114   21072502.1514
  23734054.170    -4812449.54849  -3748366.36049  23734060.2074   23734066.5944
  22460709.453     7396443.63749   5749258.06249  22460712.1114   22460719.3374
  21968693.026     7303890.51449   5503274.96949  21968695.0804   21968702.1404
  20600253.523   -10960639.39649  -8532282.33749  20600255.3494   20600260.9594
  23312731.105   -11810140.02649  -9179386.49749  23312733.9774   23312740.6474
  21068861.525    -8086550.14049  -6296940.97649  21068864.5114   21068870.3714
 96  8 14 17  5 29.9980000  0  7 16 25 24  5  6 17 10
  21056961.039   -12687292.26449  -9878421.59149  21056963.5484   21056970.2244
  23730141.874    -4833041.00149  -3764411.69749  23730141.8304   23730149.1954
  22469073.185     7440413.73349   5783520.46349  22469080.5384   22469086.4464
  21979259.939     7359428.10649   5546550.96949  21979264.9014   21979270.0864
  20583485.601   -11048747.04749  -8600937.64749  20583489.0214   20583494.5314
  23286580.048   -11947546.14549  -9286456.16349  23286586.1724   23286593.2194
  21061029.067    -8127709.82549  -6329013.45149  21061032.2044   21061039.3704
 96  8 14 17  5 59.9980000  0  7 16 25 24  5  6 17 10
  21041502.308   -12768519.77649  -9941715.73549  21041506.2164   21041512.4114
  23726273.249    -4853367.60549  -3780250.61949  23726273.4384   23726280.9054
  22477425.048     7484296.47149   5817714.76749  22477430.0634   22477437.4874
  21989855.079     7415105.77749   5589936.14349  21989859.1714   21989865.1174
  20566727.798   -11136815.83949  -8669562.67049  20566730.1434   20566735.8954
  23260434.401   -12084948.24849  -9393522.72649  23260439.1344   23260446.2544
  21053279.983    -8168435.28049  -6360747.57249  21053282.6804   21053289.3294
 96  8 14 17  6 29.9980000  0  7 16 25 24  5  6 17 10
  21026120.854   -12849359.31549 -10004707.59649  21026124.2204   21026130.0734
  23722445.896    -4873438.45149  -3795890.25649  23722455.4744   23722461.2744
  22485764.150     7528110.47349   5851855.53849  22485767.8304   22485775.0494
  22000474.839     7470912.39749   5633421.77549  22000479.1664   22000485.0114
  20549978.430   -11224830.85749  -8738145.80249  20549981.3384   20549987.1134
  23234287.773   -12222343.16649  -9500583.64949  23234293.9254   23234301.3974
  21045612.146    -8208728.72349  -6392145.05549  21045614.2594   21045621.7264
 96  8 14 17  6 59.9980000  0  7 16 25 24  5  6 17 10
  21010810.890   -12929808.91849 -10067395.59049  21010813.9584   21010821.7814
  23718683.619    -4893244.38149  -3811323.48449  23718685.9614   23718691.5294
  22494087.747     7571847.88049   5885936.59049  22494091.4564   22494098.4614
  22011117.153     7526834.48349   5676997.41849  22011120.4024   22011125.9984
  20533239.168   -11312790.20549  -8806685.55149  20533243.7214   20533249.2764
  23208147.982   -12359730.17749  -9607638.42849  23208150.8594   23208157.8754
  21038025.949    -8248593.92449  -6423208.84649  21038028.6544   21038035.6414
 96  8 14 17  7 29.9980000  0  7 16 25 24  5  6 17 10
  20995574.502   -13009873.96349 -10129783.90949  20995578.5934   20995586.0264
  23714965.527    -4912773.16149  -3826540.72649  23714969.1484   23714976.0794
  22502397.820     7615511.40149   5919960.09849  22502400.3204   22502407.3024
  22021777.066     7582833.06049   5720632.63749  22021777.1794   22021783.2934
  20516511.978   -11400695.60349  -8875183.26149  20516515.4534   20516521.3604
  23182000.692   -12497126.60549  -9714700.53949  23182004.2144   23182011.3634
  21030521.238    -8288034.81049  -6453942.00149  21030523.1134   21030529.5174
 96  8 14 17  7 59.9980000  0  7 16 25 24  5  6 17 10
  20980408.840   -13089582.82549 -10191894.70549  20980411.4184   20980417.0704
  23711304.302    -4932013.46349  -3841533.19549  23711307.8884   23711314.9604
  22510693.917     7659115.96649   5953937.65549  22510698.5214   22510704.9334
  22032438.071     7638878.46549   5764304.34049  22032442.2734   22032447.7264
  20499792.433   -11488552.56849  -8943643.23049  20499796.7744   20499802.6474
  23155848.530   -12634536.74649  -9821773.35049  23155856.0424   23155864.0764
  21023090.635    -8327075.22149  -6484363.09449  21023093.9484   21023100.7084
 96  8 14 17  8 29.9980000  0  7 16 25 24  5  6 17 10
  20965303.239   -13168955.51249 -10253743.54949  20965306.7044   20965313.2394
  23707696.979    -4950964.42149  -3856300.21449  23707701.7574   23707707.9774
  22518974.573     7702641.22949   5987853.40849  22518980.5684   22518987.8194
  22043106.678     7694946.42949   5807993.62849  22043111.8654   22043117.7784
  20483081.731   -11576371.57549  -9012073.62549  20483085.4954   20483091.2714
  23129699.755   -12771974.35249  -9928867.54449  23129701.8584   23129710.3974
  21015732.683    -8365744.24849  -6514494.80849  21015735.5524   21015741.7774
 96  8 14 17  8 59.9980000  0  7 16 25 24  5  6 17 10
  20950258.510   -13248013.42549 -10315347.10149  20950262.3054   20950269.4614
  23704143.743    -4969633.47649  -3870847.56549  23704149.5544   23704155.6384
  22527235.673     7746054.54749   6021681.94049  22527242.6814   22527248.5334
  22053780.218     7751023.53649   5851690.04849  22053782.7014   22053789.7694
  20466371.219   -11664187.43549  -9080501.56349  20466374.7724   20466380.3624
  23103533.525   -12909465.19149 -10036003.24249  23103537.1904   23103546.4094
  21008443.433    -8404053.31649  -6544346.03149  21008445.7184   21008452.6964
 96  8 14 17  9 29.9980000  0  7 16 25 24  5  6 17 10
  20935269.788   -13326780.79449 -10376724.24649  20935273.4574   20935281.1154
  23700645.326    -4988037.11349  -3885188.08449  23700647.4584   23700654.5354
  22535479.273     7789358.27249   6055425.09049  22535481.9544   22535489.6364
  22064452.977     7807114.12749   5895396.94749  22064457.0004   22064462.2524
  20449660.935   -11752001.76749  -9148928.31049  20449664.2064   20449669.6054
  23077359.531   -13047016.71349 -10143186.22049  23077363.8084   23077370.7254
  21001221.194    -8442002.34249  -6573916.70749  21001223.9884   21001230.9224
 96  8 14 17  9 59.9980000  0  7 16 25 24  5  6 17 10
  20920338.719   -13405247.26249 -10437866.92949  20920342.3364   20920348.8664
  23697191.198    -5006176.63549  -3899322.82849  23697195.5774   23697201.8104
  22543696.906     7832545.41049   6089077.35349  22543701.4664   22543708.1894
  22075134.327     7863247.41349   5939137.13149  22075138.2384   22075145.4014
  20432951.408   -11839800.82149  -9217343.15149  20432956.5174   20432962.0874
  23051177.273   -13184605.93449 -10250398.58249  23051181.2334   23051189.0514
  20994072.982    -8479572.89549  -6603192.46449  20994074.5714   20994081.6524
 96  8 14 17 10 29.9980000  0  7 16 25 24  5  6 17 10
  20905468.110   -13483385.78449 -10498754.08049  20905472.5254   20905478.7994
  23693795.448    -5024048.21149  -3913248.74349  23693794.6474   23693801.0104
  22551891.861     7875618.05949   6122640.42749  22551896.1114   22551903.8924
  22085830.302     7919452.55749   5982933.31049  22085833.6284   22085840.0784
  20416251.644   -11927568.49949  -9285733.53949  20416255.2934   20416260.6814
  23024991.894   -13322223.52049 -10357633.04849  23024993.1874   23025001.5944
  20986999.804    -8516736.97649  -6632151.48749  20987002.9524   20987009.5084
 96  8 14 17 10 59.9980000  0  7 16 25 24  5  6 17 10
  20890668.099   -13561171.49549 -10559366.31049  20890670.3104   20890676.7504
  23690442.576    -5041631.22949  -3926949.83149  23690448.5254   23690456.3734
  22560074.123     7918606.68349   6156138.02249  22560077.8584   22560085.6264
  22096545.051     7975748.85449   6026800.50249  22096546.1224   22096553.1444
  20399560.025   -12015280.70649  -9354080.70849  20399564.0014   20399569.6504
  22998800.082   -13459857.02749 -10464879.91849  22998802.5874   22998810.1234
  20980013.306    -8553455.46749  -6660763.29849  20980015.6034   20980021.5014
 96  8 14 17 11 29.9980000  0  7 16 25 24  5  6 17 10
  20875939.410   -13638565.02049 -10619672.95949  20875943.1964   20875949.7114
  23687155.051    -5058906.59349  -3940411.18349  23687161.4444   23687167.7004
  22568241.434     7961531.32249   6189585.75549  22568245.1574   22568252.6294
  22107277.906     8032155.64649   6070753.79649  22107280.7544   22107286.4774
  20382886.670   -12102902.35949  -9422357.31149  20382889.9134   20382895.7764
  22972612.151   -13597473.50249 -10572113.51849  22972615.8274   22972622.4144
  20973114.256    -8589706.98649  -6689011.24149  20973117.3224   20973123.5774
 96  8 14 17 11 59.9980000  0  7 16 25 24  5  6 17 10
  20861299.470   -13715501.83249 -10679623.71349  20861303.1184   20861310.1964
  23683937.525    -5075843.66049  -3953608.93349  23683938.2914   23683946.6244
  22576403.264     8004409.69549   6222997.44649  22576405.6934   22576412.2774
  22118034.242     8088699.89149   6114814.21249  22118040.9154   22118046.2034
  20366232.492   -12190412.58149  -9490547.09249  20366237.1244   20366243.1134
  22946434.577   -13735037.15949 -10679305.94549  22946437.2114   22946445.3314
  20966310.670    -8625467.64549  -6716876.69149  20966312.4614   20966318.2774
 96  8 14 17 12 29.9980000  0  7 16 25 24  5  6 17 10
  20846753.979   -13791939.94349 -10739185.84949  20846756.5594   20846764.2894
  23680777.864    -5092419.47849  -3966525.14149  23680783.0884   23680789.6474
  22584559.566     8047277.33149   6256400.78549  22584561.6374   22584569.6584
  22128826.200     8145402.91049   6158998.32849  22128830.1174   22128837.3184
  20349606.515   -12277783.45649  -9558628.29149  20349611.0284   20349617.1414
  22920276.566   -13872516.26949 -10786432.50249  22920276.3874   22920283.6284
  20959602.838    -8660707.40449  -6744336.24149  20959606.1844   20959612.0984
 96  8 14 17 12 59.9980000  0  7 16 25 24  5  6 17 10
  20832307.149   -13867854.38849 -10798339.94849  20832310.3274   20832316.5924
  23677697.763    -5108615.87649  -3979145.75149  23677703.9584   23677708.6104
  22592718.639     8090157.98449   6289814.25049  22592723.4444   22592729.0974
  22139651.374     8202279.98749   6203318.08749  22139653.6404   22139660.4074
  20333014.329   -12364984.87249  -9626577.44649  20333017.3334   20333022.9364
  22894133.816   -14009872.53849 -10893463.33649  22894138.0474   22894146.1284
  20952997.872    -8695419.45649  -6771384.58849  20953000.6904   20953006.3624
 96  8 14 17 13 29.9980000  0  7 16 25 24  5  6 17 10
  20817961.432   -13943242.49149 -10857083.92449  20817964.8634   20817970.3624
  23674686.141    -5124436.07949  -3991473.21349  23674690.8454   23674699.0904
  22600881.842     8133048.15549   6323235.14249  22600883.7904   22600891.0524
  22150508.954     8259332.55349   6247774.59049  22150510.6604   22150517.4094
  20316451.762   -12452014.05949  -9694392.39449  20316456.4054   20316462.0324
  22868020.351   -14147091.23949 -11000386.98149  22868025.7094   22868033.8774
  20946488.494    -8729620.39649  -6798034.66849  20946492.0814   20946497.7414
 96  8 14 17 13 59.9980000  0  7 16 25 24  5  6 17 10
  20803713.304   -14018127.41649 -10915435.80549  20803715.4834   20803721.2654
  23671747.646    -5139888.94549  -4003514.45449  23671750.8114   23671756.4614
  22609041.715     8175944.52649   6356660.81249  22609046.7154   22609053.2074
  22161394.928     8316540.90549   6292352.47249  22161397.5194   22161403.8174
  20299922.058   -12538883.71949  -9762083.03349  20299925.6164   20299931.1154
  22841935.445   -14284185.38949 -11107213.55649  22841937.7014   22841945.8784
  20940078.870    -8763317.21149  -6824291.92849  20940080.1414   20940085.7844
 96  8 14 17 14 29.9980000  0  7 16 25 24  5  6 17 10
  20789551.884   -14092538.66049 -10973418.57649  20789555.5024   20789561.4874
  23668874.971    -5154970.32849  -4015266.21149  23668880.9804   23668887.8074
  22617208.789     8218842.66849   6390087.94349  22617210.3774   22617216.2454
  22172307.032     8373891.08649   6337040.89149  22172310.5124   22172317.5144
  20283422.220   -12625592.81049  -9829648.55749  20283425.7234   20283430.8824
  22815865.847   -14421169.90149 -11213954.72949  22815870.7134   22815878.4234
  20933759.110    -8796519.72549  -6850164.02349  20933761.9894   20933767.6694
 96  8 14 17 14 59.9980000  0  7 16 25 24  5  6 17 10
  20775480.256   -14166489.60049 -11031042.67749  20775482.8134   20775488.9024
  23666085.084    -5169677.60549  -4026726.48149  23666083.0384   23666089.2824
  22625370.046     8261728.87649   6423505.70749  22625372.2034   22625378.8404
  22183247.932     8431372.37349   6381831.45649  22183248.4134   22183256.0684
  20266951.812   -12712146.21249  -9897092.75949  20266954.6574   20266960.0554
  22789813.456   -14558073.95349 -11320633.19049  22789818.4804   22789826.2374
  20927533.469    -8829243.23949  -6875662.87249  20927534.7964   20927540.7024
 96  8 14 17 15 29.9980000  0  7 16 25 24  5  6 17 10
  20761496.378   -14239973.71749 -11088303.01149  20761498.9494   20761505.7104
  23663354.689    -5183998.31749  -4037885.51049  23663357.4664   23663363.3704
  22633525.720     8304606.84149   6456917.08249  22633530.7704   22633536.1154
  22194210.590     8488989.62549   6426727.97449  22194213.6634   22194219.6004
  20250512.360   -12798536.70949  -9964410.02249  20250515.2074   20250520.7504
  22763780.331   -14694893.61949 -11427245.90249  22763782.4804   22763789.9704
  20921400.904    -8861462.76149  -6900768.99649  20921403.3754   20921409.6474
 96  8 14 17 15 59.9980000  0  7 16 25 24  5  6 17 10
  20747603.081   -14312975.68149 -11145187.64449  20747606.7444   20747613.3724
  23660707.288    -5197926.86649  -4048738.98249  23660707.0034   23660713.1624
  22641685.779     8347482.72149   6490326.85649  22641689.9244   22641696.7154
  22205203.336     8546759.79649   6471743.65549  22205206.2504   22205212.7304
  20234103.687   -12884764.49949 -10031600.50049  20234106.4434   20234112.1924
  22737756.714   -14831622.62049 -11533787.94649  22737763.8574   22737772.1474
  20915367.107    -8893170.02449  -6925475.95349  20915369.9064   20915376.5014
 96  8 14 17 16 29.9980000  0  7 16 25 24  5  6 17 10
  20733804.805   -14385493.52949 -11201695.06149  20733807.4584   20733813.7114
  23658126.085    -5211468.54849  -4059290.98149  23658129.8744   23658134.9574
  22649845.752     8390359.09749   6523736.96349  22649849.3034   22649856.5714
  22216225.250     8604689.13749   6516883.35149  22216229.8034   22216236.8184
  20217726.743   -12970820.88049 -10098657.42349  20217730.9744   20217736.3414
  22711759.645   -14968255.36049 -11640255.00949  22711763.6014   22711769.6104
  20909429.247    -8924373.88149  -6949790.64649  20909432.4054   20909438.6154
 96  8 14 17 16 59.9980000  0  7 16 25 24  5  6 17 10
  20720100.955   -14457499.44449 -11257803.56549  20720104.9324   20720111.3474
  23655625.759    -5224617.74449  -4069537.14749  23655628.2594   23655634.2114
  22658011.643     8433272.22749   6557175.72749  22658015.3624   22658021.7054
  22227285.184     8662805.09849   6562168.46349  22227289.5344   22227295.8204
  20201387.955   -13056681.65549 -10165561.91649  20201392.0874   20201397.5824
  22685782.883   -15104752.49149 -11746616.39049  22685788.3214   22685796.9844
  20903594.817    -8955040.52449  -6973686.73149  20903596.6014   20903602.8014
 96  8 14 17 17 29.9980000  0  7 16 25 24  5  6 17 10
  20706502.179   -14528962.26649 -11313488.86749  20706505.5904   20706513.2104
  23653204.839    -5237355.88949  -4079462.98749  23653203.8414   23653211.2334
  22666190.925     8476258.41049   6590671.45749  22666195.8504   22666202.8134
  22238384.759     8721129.22249   6607615.77649  22238388.2444   22238394.4474
  20185092.549   -13142318.76449 -10232292.12649  20185095.5494   20185101.3574
  22659846.066   -15241069.60749 -11852837.50049  22659848.7754   22659856.0724
  20897864.251    -8985143.45149  -6997143.56449  20897867.3614   20897874.4334
 96  8 14 17 17 59.9980000  0  7 16 25 24  5  6 17 10
  20693010.423   -14599864.66649 -11368737.48149  20693014.0744   20693020.9214
  23650861.385    -5249671.60649  -4089059.72649  23650860.7264   23650865.8624
  22674386.457     8519324.33449   6624229.25549  22674390.7174   22674398.0574
  22249528.037     8779674.50949   6653235.43249  22249528.5814   22249536.6624
  20168841.298   -13227717.34449 -10298836.46849  20168844.6494   20168850.2924
  22633940.571   -15377207.74649 -11958919.15449  22633942.8554   22633950.9014
  20892243.378    -9014681.51149  -7020160.23949  20892246.9694   20892253.4974
 96  8 14 17 18 29.9980000  0  7 16 25 24  5  6 17 10
  20679626.571   -14670198.27349 -11423542.87549  20679629.7194   20679636.8894
  23648596.068    -5261556.38749  -4098320.64349  23648598.6144   23648603.7874
  22682595.744     8562466.87049   6657846.78749  22682601.5214   22682607.7244
  22260706.158     8838433.94649   6699021.97049  22260710.4984   22260716.9724
  20152642.110   -13312850.92349 -10365174.31749  20152644.3414   20152650.0064
  22608067.622   -15513164.03449 -12064859.08649  22608071.4174   22608079.0234
  20886733.912    -9043641.23049  -7042726.24849  20886736.1264   20886742.6534
 96  8 14 17 18 59.9980000  0  7 16 25 24  5  6 17 10
  20666354.444   -14739937.48349 -11477885.10649  20666358.3924   20666365.6334
  23646413.218    -5273005.28149  -4107241.89749  23646419.3284   23646427.0364
  22690821.584     8605678.06249   6691517.84649  22690823.1044   22690829.5324
  22271926.598     8897407.06749   6744974.98449  22271933.3084   22271939.4474
  20136489.808   -13397729.86549 -10431313.75149  20136492.4804   20136498.2334
  22582229.883   -15648932.90549 -12170652.99349  22582234.8684   22582243.5674
  20881334.021    -9072010.66349  -7064832.31249  20881337.1874   20881344.7614
 96  8 14 17 19 29.9980000  0  7 16 25 24  5  6 17 10
  20653199.326   -14809069.21149 -11531753.98449  20653202.7094   20653209.4154
  23644317.778    -5284017.40249  -4115822.82349  23644325.2584   23644330.3454
  22699050.408     8648929.28649   6725220.02749  22699053.9034   22699060.8834
  22283193.862     8956586.38049   6791088.67549  22283194.1714   22283201.5144
  20120384.147   -13482357.76649 -10497257.56649  20120388.3854   20120394.0624
  22556428.686   -15784520.05249 -12276305.29249  22556432.8544   22556440.9064
  20876046.058    -9099798.26049  -7086484.98649  20876049.0614   20876057.2084
 96  8 14 17 19 59.9980000  0  7 16 25 24  5  6 17 10
  20640158.731   -14877599.63549 -11585154.30349  20640162.2854   20640169.1164
  23642308.593    -5294594.84949  -4124064.99349  23642312.8864   23642316.8224
  22707285.843     8692205.60249   6758941.81749  22707289.3244   22707295.5604
  22294492.577     9015974.08249   6837364.74649  22294494.7204   22294501.7644
  20104329.777   -13566733.51849 -10563004.89749  20104332.2234   20104337.7424
  22530665.428   -15919920.50549 -12381812.11549  22530667.6904   22530675.4704
  20870870.887    -9126999.55349  -7107680.80049  20870873.7064   20870880.6504
 96  8 14 17 20 29.9980000  0  7 16 25 24  5  6 17 10
  20627228.796   -14945552.32249 -11638104.45049  20627232.0904   20627238.4334
  23640374.516    -5304760.76649  -4131986.53949  23640377.2464   23640384.5794
  22715523.435     8735498.12049   6792676.22449  22715526.2274   22715534.5634
  22305827.540     9075535.18049   6883775.93449  22305830.0174   22305836.5514
  20088314.397   -13650884.50549 -10628577.09449  20088318.9834   20088324.3084
  22504934.452   -16055130.09249 -12487170.20149  22504937.9524   22504945.9194
  20865804.494    -9153622.84149  -7128426.21649  20865807.0934   20865813.8284
 96  8 14 17 20 59.9980000  0  7 16 25 24  5  6 17 10
  20614402.125   -15012952.67549 -11690624.21249  20614406.0094   20614412.9354
  23638512.458    -5314542.89949  -4139609.01649  23638515.8394   23638521.6914
  22723761.475     8778795.81449   6826414.60849  22723767.4134   22723774.3894
  22317189.026     9135243.96849   6930302.21649  22317192.1274   22317198.4144
  20072340.397   -13734835.95449 -10693993.80449  20072343.7174   20072348.8694
  22479236.505   -16190170.45949 -12592396.43249  22479241.2324   22479248.5434
  20860844.429    -9179691.18449  -7148739.21249  20860846.6604   20860853.7154
 96  8 14 17 21 29.9970000  0  7 16 25 24  5  6 17 10
  20601674.789   -15079830.14149 -11742736.51249  20601678.5434   20601686.7784
  23636722.652    -5323955.74749  -4146943.77549  23636724.6004   23636731.4004
  22731999.618     8822090.38149   6860150.62249  22732005.8584   22732012.5164
  22328576.664     9195082.12349   6976929.29249  22328578.5934   22328585.2204
  20056405.215   -13818576.79349 -10759246.40149  20056408.2724   20056413.6344
  22453572.479   -16325050.42449 -12697497.66749  22453573.4704   22453582.1034
  20855985.563    -9205218.90949  -7168630.93749  20855989.2444   20855996.2054
 96  8 14 17 21 59.9970000  0  7 16 25 24  5  6 17 10
  20589040.303   -15146225.14349 -11794472.86649  20589044.2824   20589052.1374
  23634996.597    -5333029.36249  -4154014.16049  23634997.4464   23635006.1224
  22740239.675     8865378.78649   6893881.80949  22740244.3114   22740249.4604
  22339982.104     9255020.87549   7023634.74749  22339984.5364   22339992.1524
  20040502.368   -13902141.90349 -10824362.06649  20040506.2514   20040511.7014
  22427926.412   -16459809.13649 -12802504.42349  22427929.5604   22427937.7484
  20851225.850    -9230234.58949  -7188123.67549  20851228.8134   20851235.5944
 96  8 14 17 22 29.9970000  0  7 16 25 24  5  6 17 10
  20576497.280   -15212146.56549 -11845840.20549  20576500.0834   20576507.0484
  23633332.785    -5341783.37849  -4160835.55849  23633333.0874   23633339.1324
  22748471.529     8908651.85249   6927601.01049  22748477.3864   22748485.4754
  22351404.846     9315041.34949   7070403.90149  22351407.0124   22351412.6624
  20024633.443   -13985537.72549 -10889345.82149  20024636.7274   20024641.8894
  22402299.530   -16594470.24849 -12907435.12749  22402304.9524   22402312.5574
  20846558.194    -9254759.24349  -7207233.80549  20846561.8614   20846568.3254
 96  8 14 17 22 59.9970000  0  7 16 25 24  5  6 17 10
  20564044.762   -15277588.37949 -11896833.82549  20564047.3174   20564053.8344
  23631721.477    -5350212.88249  -4167404.03849  23631728.0974   23631734.7564
  22756702.629     8951897.59149   6961298.94049  22756707.0844   22756714.0054
  22362843.066     9375160.41349   7117249.87049  22362846.6544   22362853.4064
  20008798.054   -14068749.09349 -10954185.85449  20008801.7374   20008807.2704
  22376696.628   -16729040.64649 -13012295.14749  22376696.8184   22376703.5244
  20841984.005    -9278800.07649  -7225966.92749  20841987.4194   20841993.7854
 96  8 14 17 23 29.9970000  0  7 16 25 24  5  6 17 10
  20551684.012   -15342537.51549 -11947443.53949  20551687.7874   20551694.0644
  23630185.360    -5358296.10049  -4173702.71149  23630191.4604   23630196.5674
  22764931.452     8995124.63449   6994982.30249  22764932.0494   22764939.8584
  22374305.805     9435396.04349   7164186.66849  22374308.8144   22374315.4294
  19993000.358   -14151768.23249 -11018876.08349  19993003.5164   19993009.1494
  22351105.390   -16863493.86749 -13117063.84649  22351111.8744   22351119.2814
  20837506.344    -9302338.54249  -7244308.58949  20837508.2554   20837514.3974
 96  8 14 17 23 59.9970000  0  7 16 25 24  5  6 17 10
  20539417.547   -15406997.68349 -11997672.24349  20539421.1154   20539427.7834
  23628713.299    -5366032.32149  -4179730.99649  23628717.6094   23628723.9604
  22773149.845     9038319.34649   7028640.51449  22773152.5144   22773159.5744
  22385790.529     9495748.25249   7211214.29949  22385794.0254   22385799.7354
  19977236.624   -14234604.38549 -11083423.73749  19977240.6554   19977246.0194
  22325544.266   -16997841.00149 -13221749.89949  22325545.5854   22325553.4394
  20833118.548    -9325389.79749  -7262270.61049  20833121.1434   20833128.0734
 96  8 14 17 24 29.9970000  0  7 16 25 24  5  6 17 10
  20527241.130   -15470982.39649 -12047530.45249  20527244.8274   20527252.3004
  23627306.111    -5373420.72849  -4185488.22949  23627312.0144   23627318.2584
  22781358.476     9081454.22049   7062252.05749  22781361.3744   22781368.3474
  22397295.237     9556210.79349   7258327.92249  22397299.4414   22397305.8044
  19961509.243   -14317257.07049 -11147828.41949  19961512.2914   19961517.9394
  22299995.548   -17132084.78249 -13326355.41149  22299999.8274   22300007.6554
  20828822.345    -9347969.64849  -7279865.29849  20828824.6364   20828831.0744
 96  8 14 17 24 59.9970000  0  7 16 25 24  5  6 17 10
  20515154.270   -15534505.44549 -12097028.90949  20515156.7054   20515165.4004
  23625971.708    -5380468.21149  -4190979.83749  23625970.5634   23625977.8094
  22789550.242     9124518.59149   7095808.64249  22789555.7744   22789562.7124
  22408822.321     9616774.87549   7305520.65149  22408824.4604   22408831.9124
  19945811.789   -14399745.55349 -11212105.15849  19945815.4374   19945820.7424
  22274472.120   -17266212.87449 -13430870.78849  22274476.3724   22274483.4664
  20824613.218    -9370088.48649  -7297100.76049  20824615.3484   20824621.7454
 96  8 14 17 25 29.9970000  0  7 16 25 24  5  6 17 10
  20503154.016   -15597565.71649 -12146166.78449  20503157.6634   20503165.3284
  23624685.119    -5387198.03849  -4196223.89649  23624690.2944   23624695.5144
  22797735.700     9167521.73749   7129317.57649  22797738.5494   22797745.3564
  22420360.668     9677428.07949   7352782.82149  22420366.6014   22420373.4364
  19930143.410   -14482080.15949 -11276261.98249  19930147.6494   19930153.1114
  22248966.316   -17400231.10349 -13535300.54249  22248973.5024   22248981.0134
  20820489.478    -9391755.79949  -7313984.37949  20820492.1924   20820499.1164
 96  8 14 17 25 59.9970000  0  7 16 25 24  5  6 17 10
  20491242.566   -15660165.73549 -12194946.00249  20491245.1534   20491252.6164
  23623463.901    -5393640.33349  -4201243.91549  23623464.0364   23623470.8424
  22805906.618     9210457.46849   7162773.93849  22805909.6534   22805916.7714
  22431919.726     9738155.40449   7400102.75349  22431922.6724   22431928.4774
  19914505.035   -14564263.17049 -11340300.68949  19914508.6624   19914514.0044
  22223480.966   -17534154.70849 -13639656.57149  22223488.4964   22223496.4794
  20816448.897    -9412985.30249  -7330526.85549  20816452.2324   20816459.1004
 96  8 14 17 26 29.9970000  0  7 16 25 24  5  6 17 10
  20479414.866   -15722325.12649 -12243381.89249  20479417.0414   20479423.6154
  23622280.379    -5399834.38749  -4206070.52349  23622283.2954   23622293.2554
  22814060.319     9253311.43049   7196166.55449  22814064.3144   22814071.7604
  22443483.927     9798922.90949   7447454.00449  22443485.1614   22443493.0794
  19898891.497   -14646318.02149 -11404239.52749  19898894.3504   19898899.6854
  22198018.119   -17667998.53249 -13743950.44049  22198019.2414   22198025.4544
  20812494.119    -9433782.02349  -7346732.09649  20812495.2834   20812501.0374
 96  8 14 17 26 59.9970000  0  7 16 25 24  5  6 17 10
  20467668.657   -15784041.67949 -12291472.72049  20467672.5884   20467678.7184
  23621149.013    -5405810.60949  -4210727.36849  23621148.0904   23621153.6154
  22822200.537     9296084.31649   7229496.05649  22822204.5674   22822210.3274
  22455051.884     9859711.33349   7494821.53049  22455053.8344   22455060.1574
  19883297.812   -14728258.67049 -11468089.38649  19883301.4914   19883306.7784
  22172555.364   -17801779.71449 -13848195.48649  22172561.4094   22172568.4704
  20808617.082    -9454146.87049  -7362600.81149  20808619.8324   20808625.9154
 96  8 14 17 27 29.9970000  0  7 16 25 24  5  6 17 10
  20456005.137   -15845320.04549 -12339222.09649  20456010.5214   20456017.5284
  23620044.744    -5411587.47049  -4215228.88349  23620050.7404   23620055.6074
  22830318.244     9338758.77049   7262748.86749  22830324.5624   22830331.4274
  22466615.330     9920494.38449   7542184.88349  22466619.9594   22466628.0004
  19867725.693   -14810089.98849 -11531854.05049  19867729.4784   19867734.6854
  22147107.567   -17935533.93949 -13952419.53449  22147108.7954   22147116.3344
  20804824.264    -9474081.27749  -7378134.10849  20804826.7834   20804833.1534
 96  8 14 17 27 59.9970000  0  7 16 25 24  5  6 17 10
  20444428.312   -15906171.84249 -12386639.07649  20444431.4534   20444438.0714
  23618986.775    -5417146.91949  -4219560.99549  23618990.6444   23618998.1994
  22838417.478     9381307.88549   7295903.97549  22838421.5794   22838428.7264
  22478183.470     9981270.37249   7589542.73749  22478186.0194   22478192.5674
  19852173.192   -14891813.83849 -11595534.96949  19852177.7564   19852183.0554
  22121658.983   -18069263.16849 -14056624.09349  22121660.8374   22121667.7374
  20801113.067    -9493586.99949  -7393333.37349  20801114.6164   20801120.8734
 96  8 14 17 28 29.9970000  0  7 16 25 24  5  6 17 10
  20432928.428   -15966609.98449 -12433733.73349  20432931.6254   20432937.2294
  23617967.925    -5422487.81649  -4223722.77249  23617975.8344   23617981.4944
  22846486.067     9423707.40449   7328942.51949  22846488.5134   22846496.2194
  22489746.901    10042020.51349   7636880.44249  22489745.6874   22489753.5504
  19836639.865   -14973445.49249 -11659144.05249  19836643.9764   19836649.3074
  22096213.680   -18202978.30249 -14160817.67849  22096216.2154   22096222.9104
  20797475.796    -9512688.53049  -7408217.69549  20797479.2054   20797486.5084
 96  8 14 17 28 59.9970000  0  7 16 25 24  5  6 17 10
  20421507.957   -16026623.09649 -12480497.19549  20421510.9754   20421517.9684
  23617000.432    -5427600.19749  -4227706.49149  23617002.0304   23617009.9874
  22854523.638     9465947.00349   7361856.45149  22854526.8444   22854535.3504
  22501299.316    10102746.15549   7684199.06649  22501302.7954   22501309.5764
  19821122.546   -15054990.05549 -11722685.26349  19821126.5394   19821131.7654
  22070773.932   -18336668.38049 -14264991.73249  22070775.9524   22070783.3364
  20793917.058    -9531399.98449  -7422798.05649  20793919.2524   20793925.7584
 96  8 14 17 29 29.9970000  0  7 16 25 24  5  6 17 10
  20410164.583   -16086228.19649 -12526942.72349  20410168.2284   20410175.4194
  23616063.397    -5432483.50949  -4231511.71049  23616073.1694   23616080.7114
  22862526.220     9508007.64149   7394630.95249  22862531.2264   22862540.3124
  22512848.937    10163440.77949   7731493.52349  22512852.5224   22512859.3024
  19805620.800   -15136455.22549 -11786164.61649  19805624.2594   19805629.4434
  22045336.841   -18470327.81949 -14369141.91849  22045340.2184   22045348.5574
  20790425.088    -9549748.45849  -7437095.57249  20790427.2754   20790434.3294
 96  8 14 17 29 59.9970000  0  7 16 25 24  5  6 17 10
  20398899.399   -16145433.38849 -12573076.63549  20398902.0864   20398908.5744
  23615191.417    -5437132.96449  -4235134.70249  23615188.3644   23615196.2294
  22870497.628     9549895.56549   7427270.83249  22870503.1974   22870510.9244
  22524392.961    10224113.58949   7778770.96449  22524397.5174   22524404.8274
  19790134.655   -15217833.56349 -11849576.30349  19790138.5244   19790143.7414
  22019911.175   -18603938.78849 -14473254.33949  22019915.5214   22019923.1714
  20786997.941    -9567756.59149  -7451127.89349  20787000.4584   20787007.9494
 96  8 14 17 30 29.9970000  0  7 16 25 24  5  6 17 10
  20387706.522   -16204242.45149 -12618901.87349  20387710.6754   20387717.5734
  23614342.484    -5441575.30649  -4238596.33449  23614343.6054   23614350.0684
  22878438.709     9591631.53049   7459792.33149  22878444.3654   22878453.2194
  22535933.527    10284749.63849   7826019.79149  22535936.7724   22535943.5714
  19774664.966   -15299128.97349 -11912923.37049  19774668.6604   19774673.6754
  21994494.441   -18737508.33049 -14577334.47149  21994497.9804   21994504.9304
  20783636.419    -9585423.47349  -7464894.30449  20783638.6074   20783646.0044
 96  8 14 17 30 59.9970000  0  7 16 25 24  5  6 17 10
  20376588.868   -16262664.70849 -12664425.70849  20376592.8794   20376600.2754
  23613526.921    -5445825.25049  -4241908.01349  23613534.6914   23613541.8504
  22886357.802     9633235.87949   7492211.24049  22886361.5294   22886369.1404
  22547463.176    10345359.87149   7873248.46649  22547470.5884   22547477.2334
  19759211.947   -15380335.00149 -11976200.78649  19759215.5334   19759220.9114
  21969084.114   -18871043.91449 -14681388.15349  21969087.7724   21969094.2074
  20780340.174    -9602741.60349  -7478388.95949  20780342.7224   20780350.0794
 96  8 14 17 31 29.9970000  0  7 16 25 24  5  6 17 10
  20365542.523   -16320722.24849 -12709665.34149  20365545.1164   20365552.6004
  23612755.264    -5449907.93649  -4245089.35949  23612757.4324   23612764.5254
  22894250.903     9674716.85049   7524534.02349  22894255.4574   22894262.6204
  22558996.490    10405940.53249   7920454.12949  22558999.2304   22559006.0944
  19743774.609   -15461452.67849 -12039409.35949  19743779.2184   19743784.7784
  21943672.807   -19004575.24549 -14785438.51149  21943677.0754   21943683.6504
  20777109.946    -9619716.00849  -7491615.78149  20777113.0294   20777120.0734
 96  8 14 17 31 59.9970000  0  7 16 25 24  5  6 17 10
  20354565.249   -16378405.91249 -12754613.63349  20354568.2414   20354575.0844
  23612006.232    -5453825.56449  -4248142.09349  23612012.0034   23612018.4134
  22902123.917     9716081.46249   7556766.16349  22902128.1244   22902134.1174
  22570518.007    10466497.17649   7967641.05449  22570522.7374   22570528.9434
  19728357.807   -15542480.29149 -12102547.75449  19728360.4684   19728365.6494
  21918262.656   -19138109.45349 -14889491.12049  21918266.4124   21918272.9674
  20773952.057    -9636312.00549  -7504547.72449  20773954.7724   20773961.2394
 96  8 14 17 32 29.9970000  0  7 16 25 24  5  6 17 10
  20343664.210   -16435690.94449 -12799251.31349  20343667.3464   20343673.9314
  23611294.036    -5457577.53349  -4251065.75849  23611298.5914   23611305.6464
  22909971.121     9757323.81349   7588903.00349  22909975.2904   22909982.9994
  22582037.265    10527023.24549   8014804.17849  22582039.5874   22582047.2884
  19712955.132   -15623417.49649 -12165615.70149  19712958.3724   19712963.9294
  21892848.916   -19271639.82749 -14993540.72149  21892855.8644   21892863.3784
  20770872.788    -9652496.52249  -7517159.04049  20770875.8474   20770881.7024
 96  8 14 17 32 59.9970000  0  7 16 25 24  5  6 17 10
  20332843.068   -16492571.08549 -12843573.50449  20332844.6024   20332850.0644
  23610609.618    -5461154.37049  -4253852.95749  23610618.4474   23610623.8784
  22917792.895     9798412.82649   7620920.36849  22917795.1544   22917802.2364
  22593549.826    10587512.94749   8061938.95649  22593551.0794   22593558.2854
  19697571.391   -15704265.51649 -12228614.15149  19697573.4804   19697578.8784
  21867445.500   -19405164.43949 -15097585.84049  21867447.4164   21867454.0234
  20767870.464    -9668274.03449  -7529453.20649  20767873.1174   20767880.0854
 96  8 14 17 33 29.9970000  0  7 16 25 24  5  6 17 10
  20322093.950   -16549044.74949 -12887578.95249  20322098.0104   20322102.9974
  23609975.997    -5464548.51449  -4256497.77149  23609971.8214   23609978.2204
  22925575.117     9839320.42949   7652796.40249  22925579.2334   22925586.2904
  22605051.196    10647947.97449   8109031.12749  22605050.3024   22605058.3384
  19682202.698   -15785023.74849 -12291542.64149  19682206.0184   19682210.9604
  21842038.644   -19538672.88749 -15201618.35549  21842040.7114   21842049.4934
  20764945.782    -9683638.55649  -7541425.56549  20764949.1254   20764955.8364
 96  8 14 17 33 59.9970000  0  7 16 25 24  5  6 17 10
  20311431.112   -16605084.90349 -12931246.60049  20311433.5994   20311439.6074
  23609366.820    -5467728.82749  -4258975.99849  23609366.6524   23609374.0304
  22933324.731     9880048.92749   7684532.87749  22933329.2584   22933337.5014
  22616539.444    10708336.34249   8156086.92149  22616542.8264   22616550.6304
  19666858.042   -15865650.88349 -12354368.97349  19666862.9724   19666868.0514
  21816642.484   -19672134.02749 -15305614.03649  21816644.8354   21816651.7994
  20762103.612    -9698575.69849  -7553064.90249  20762106.7274   20762113.5434
 96  8 14 17 34 29.9970000  0  7 16 25 24  5  6 17 10
  20300856.159   -16660654.82649 -12974547.83649  20300859.0004   20300864.9984
  23608806.946    -5470668.33549  -4261266.55349  23608807.3184   23608814.3584
  22941047.812     9920639.36149   7716161.72649  22941053.2874   22941060.8814
  22628028.576    10768698.23449   8203122.09449  22628029.1324   22628036.3914
  19651552.080   -15946096.17849 -12417053.61449  19651554.7784   19651559.7984
  21791261.413   -19805507.32349 -15409541.25049  21791263.9234   21791272.2544
  20759344.351    -9713077.40849  -7564364.95549  20759347.0034   20759353.8344
 96  8 14 17 34 59.9970000  0  7 16 25 24  5  6 17 10
  20290372.829   -16715746.77749 -13017476.61849  20290375.5804   20290381.3944
  23608295.479    -5473341.40249  -4263349.51449  23608298.5234   23608304.8894
  22948754.067     9961130.48549   7747713.18949  22948758.3474   22948766.5774
  22639512.982    10829068.25849   8250163.60849  22639518.3284   22639524.6304
  19636281.924   -16026332.37049 -12479575.31549  19636286.2694   19636291.4264
  21765901.203   -19938770.27249 -15513382.48249  21765905.4864   21765911.2184
  20756667.039    -9727150.34549  -7575330.88949  20756669.0784   20756675.7534
 96  8 14 17 35 29.9970000  0  7 16 25 24  5  6 17 10
  20279979.711   -16770353.19149 -13060027.05749  20279983.9604   20279990.0864
  23607832.439    -5475746.72549  -4265223.83249  23607841.8074   23607846.4904
  22956445.177    10001554.61649   7779212.46249  22956450.5964   22956458.1144
  22651006.785    10889462.47349   8297223.96749  22651009.5134   22651017.6644
  19621057.759   -16106334.80449 -12541914.86849  19621062.3104   19621067.5384
  21740567.317   -20071899.57949 -15617119.57849  21740571.8524   21740578.2264
  20754070.350    -9740795.35949  -7585963.37049  20754073.0314   20754079.0054
 96  8 14 17 35 59.9970000  0  7 16 25 24  5  6 17 10
  20269687.468   -16824444.71449 -13102176.29649  20269690.3574   20269696.9134
  23607427.209    -5477880.11849  -4266886.25949  23607435.0064   23607443.4424
  22964127.685    10041929.36849   7810673.27949  22964133.4574   22964142.5004
  22662505.430    10949889.73849   8344310.07749  22662509.2984   22662516.1094
  19605878.875   -16186101.70949 -12604070.89749  19605883.1404   19605888.5854
  21715263.544   -20204876.82149 -15720738.18449  21715266.2484   21715273.5644
  20751554.933    -9754016.50849  -7596265.57249  20751556.7064   20751563.0224
 96  8 14 17 36 29.9970000  0  7 16 25 24  5  6 17 10
  20259494.795   -16878003.97649 -13143910.78249  20259498.3194   20259504.8164
  23607076.403    -5479730.91049  -4268328.46149  23607082.7134   23607091.5804
  22971803.765    10082259.84549   7842099.60749  22971808.8474   22971816.0584
  22674008.464    11010357.50349   8391427.75849  22674015.5274   22674022.0734
  19590740.090   -16265660.76249 -12666064.95349  19590743.5804   19590748.9054
  21689991.801   -20337678.48349 -15824219.97249  21689995.6904   21690002.4564
  20749119.343    -9766806.85049  -7606232.06749  20749122.5184   20749129.3594
 96  8 14 17 36 59.9970000  0  7 16 25 24  5  6 17 10
  20249397.857   -16931067.70349 -13185259.12349  20249400.3104   20249407.3374
  23606776.520    -5481318.32749  -4269565.46749  23606782.3824   23606788.3314
  22979463.616    10122507.38349   7873461.29349  22979466.7194   22979475.9504
  22685523.836    11070850.65049   8438565.20749  22685527.3004   22685533.8274
  19575632.943   -16345051.93149 -12727928.19749  19575635.9294   19575641.4014
  21664749.530   -20470331.02549 -15927585.54849  21664752.6934   21664759.6684
  20746763.792    -9779186.36149  -7615878.43949  20746766.6304   20746772.9874
 96  8 14 17 37 29.9970000  0  7 16 25 24  5  6 17 10
  20239394.150   -16983629.27149 -13226216.17949  20239398.2594   20239405.4184
  23606529.609    -5482648.79949  -4270602.26049  23606527.8834   23606535.6404
  22987099.284    10162643.66849   7904736.27349  22987105.9444   22987113.3214
  22697035.158    11131358.39949   8485714.06249  22697041.7154   22697048.9174
  19560556.692   -16424279.63349 -12789664.06549  19560559.2104   19560564.8194
  21639531.718   -20602843.20349 -16030841.74249  21639536.2814   21639543.2924
  20744491.254    -9791132.11249  -7625186.81549  20744493.4754   20744500.3634
 96  8 14 17 37 59.9970000  0  7 16 25 24  5  6 17 10
  20229489.920   -17035683.59849 -13266777.97949  20229492.6924   20229499.3154
  23606321.550    -5483714.58849  -4271432.78749  23606325.0394   23606332.0784
  22994716.605    10202664.56749   7935921.34349  22994722.0794   22994728.9344
  22708555.426    11191877.10949   8532871.44049  22708557.4234   22708565.1734
  19545508.429   -16503352.55449 -12851279.32249  19545512.2284   19545517.7504
  21614341.093   -20735229.61949 -16133999.95549  21614343.9544   21614350.9224
  20742302.780    -9802627.78849  -7634144.48949  20742305.7644   20742312.9014
 96  8 14 17 38 29.9960000  0  7 16 25 24  5  6 17 10
  20219678.320   -17087242.76849 -13306953.95849  20219681.1094   20219687.7274
  23606159.842    -5484512.91749  -4272054.87349  23606172.1454   23606181.4364
  23002315.368    10242583.47849   7967026.95249  23002317.1134   23002324.8794
  22720077.061    11252425.17949   8580051.69949  22720080.4444   22720087.8134
  19530493.864   -16582252.17749 -12912759.55049  19530498.2744   19530503.3874
  21589171.158   -20867492.37049 -16237061.81249  21589174.9024   21589182.3184
  20740205.123    -9813659.75649  -7642740.83249  20740206.8944   20740213.8264
 96  8 14 17 38 59.9960000  0  7 16 25 24  5  6 17 10
  20209960.029   -17138310.13549 -13346746.69949  20209963.5014   20209969.6524
  23606072.512    -5485046.89749  -4272471.01349  23606072.1274   23606079.5784
  23009892.532    10282418.75549   7998067.37949  23009898.9044   23009905.6964
  22731608.379    11313019.11849   8627267.67949  22731611.7644   22731618.3984
  19515518.084   -16660952.08849 -12974084.15449  19515522.4644   19515527.5224
  21564024.850   -20999643.97749 -16340037.06049  21564027.5284   21564034.2374
  20738194.724    -9824220.08349  -7650969.66249  20738197.1844   20738204.5854
 96  8 14 17 39 29.9960000  0  7 16 25 24  5  6 17 10
  20200342.635   -17188851.99249 -13386129.95749  20200345.4294   20200351.9454
  23606016.342    -5485317.50249  -4272681.91649  23606021.0164   23606027.8044
  23017461.215    10322194.37949   8029061.33249  23017467.7914   23017474.6984
  22743150.373    11373672.08749   8674529.69249  22743153.1204   22743159.6444
  19500583.597   -16739427.21249 -13035233.59449  19500588.7064   19500594.1644
  21538901.657   -21131655.53049 -16442903.18049  21538906.2814   21538913.8234
  20736275.222    -9834296.88749  -7658821.72549  20736279.1374   20736286.2444
 96  8 14 17 39 59.9960000  0  7 16 25 24  5  6 17 10
  20190827.025   -17238865.04149 -13425101.14849  20190829.0304   20190834.7694
  23606019.714    -5485323.60149  -4272686.71249  23606019.9834   23606027.2594
  23025028.150    10361943.94749   8060034.98749  23025032.1124   23025039.2874
  22754699.124    11434393.03649   8721844.66449  22754707.2004   22754714.9824
  19485697.709   -16817662.16849 -13096195.89249  19485701.1374   19485706.5244
  21513813.912   -21263498.41649 -16545637.86849  21513816.7654   21513824.5614
  20734449.891    -9843893.64049  -7666299.71849  20734452.8614   20734459.6984
 96  8 14 17 40 29.9960000  0  7 16 25 24  5  6 17 10
  20181409.391   -17288350.36649 -13463661.13249  20181412.1164   20181418.5774
  23606061.307    -5485071.58049  -4272490.35449  23606066.9274   23606075.3104
  23032583.298    10401658.15049   8090981.08649  23032587.9154   23032595.4624
  22766267.125    11495182.06149   8769212.67449  22766274.9744   22766282.1534
  19470856.626   -16895655.22549 -13156969.69649  19470859.7894   19470864.8744
  21488758.923   -21395163.31949 -16648233.86649  21488761.9854   21488769.6004
  20732712.698    -9853020.09249  -7673411.23249  20732715.8494   20732723.3784
 96  8 14 17 40 59.9960000  0  7 16 25 24  5  6 17 10
  20172093.584   -17337305.58949 -13501808.05249  20172096.4194   20172102.5954
  23606157.479    -5484568.86649  -4272098.68749  23606163.6024   23606169.6784
  23040135.772    10441331.73449   8121895.53049  23040138.0904   23040144.5794
  22777851.492    11556021.23649   8816619.73549  22777852.3554   22777859.4134
  19456060.992   -16973402.91549 -13217552.30749  19456064.8484   19456070.0834
  21463734.844   -21526653.93549 -16750694.05749  21463740.8944   21463747.7294
  20731066.923    -9861678.95749  -7680158.41249  20731069.5114   20731075.8094
 96  8 14 17 41 29.9960000  0  6 16 24  5  6 17 10
  20162873.798   -17385753.45749 -13539559.63249  20162876.9934   20162882.9974
  23047676.862    10480947.46149   8152764.84449  23047676.5144   23047683.7294
  22789427.193    11616875.34849   8864038.44849  22789433.2234   22789441.2944
  19441311.937   -17050917.54949 -13277953.31849  19441314.4324   19441319.4624
  21438743.919   -21657985.95749 -16853030.67049  21438749.3084   21438755.7424
  20729506.172    -9869880.63549  -7686549.32849  20729508.3704   20729515.4994
 96  8 14 17 41 59.9960000  0  6 16 24  5  6 17 10
  20153744.374   -17433731.60649 -13576945.19449  20153747.2124   20153753.0764
  23055195.841    10520474.33549   8183564.94649  23055197.7104   23055204.8434
  22801005.095    11677695.12749   8911430.40749  22801006.7054   22801013.7204
  19426602.341   -17128211.51949 -13338182.37749  19426605.9054   19426611.0294
  21413776.504   -21789199.99549 -16955275.35049  21413780.0114   21413786.9314
  20728027.116    -9877651.82549  -7692604.80449  20728029.2414   20728036.9764
 96  8 14 17 42 29.9960000  0  6 16 24  5  6 17 10
  20144705.086   -17481233.57949 -13613959.71949  20144708.1514   20144714.1204
  23062695.152    10559905.63349   8214290.58249  23062702.1074   23062708.7614
  22812564.699    11738467.41349   8958785.38249  22812571.2464   22812578.1804
  19411935.150   -17205282.81949 -13398237.93449  19411939.6794   19411944.8634
  21388824.045   -21920315.98449 -17057443.63249  21388829.2024   21388836.7504
  20726629.929    -9884992.84349  -7698325.09049  20726632.2934   20726639.3074
 96  8 14 17 42 59.9960000  0  6 16 24  5  6 17 10
  20135753.122   -17528272.26549 -13650613.22649  20135756.5014   20135763.1294
  23070181.612    10599242.11649   8244942.39249  23070188.4474   23070192.7194
  22824121.717    11799176.85449   9006091.37849  22824122.3824   22824130.8054
  19397310.969   -17282129.41849 -13458118.39849  19397315.8894   19397321.2434
  21363893.562   -22051338.82349 -17159539.33249  21363896.3684   21363903.4824
  20725313.921    -9891910.37949  -7703715.37849  20725316.4384   20725322.3364
 96  8 14 17 43 29.9960000  0  6 16 24  5  6 17 10
  20126885.722   -17574870.71349 -13686923.70149  20126888.9634   20126895.8494
  23077643.394    10638441.61359   8275487.46349  23077646.8574   23077654.0034
  22835652.978    11859799.10049   9053329.42049  22835659.2244   22835666.5464
  19382726.188   -17358776.64249 -13517843.50049  19382730.5544   19382736.1024
  21338974.561   -22182286.23149 -17261576.25649  21338977.9464   21338984.6134
  20724072.523    -9898435.28749  -7708799.70249  20724075.0884   20724080.3994
 96  8 14 17 43 59.9960000  0  6 16 24  5  6 17 10
  20118101.957   -17621030.54349 -13722892.39749  20118104.8894   20118111.9674
  23085074.437    10677488.77649   8305913.79349  23085077.9164   23085085.0374
  22847175.556    11920351.62649   9100513.13949  22847182.3214   22847190.7934
  19368176.593   -17435244.24249 -13577428.64349  19368179.4024   19368184.6754
  21314069.661   -22313157.05949 -17363553.50049  21314073.9274   21314081.3884
  20722900.450    -9904592.36049  -7713597.41649  20722902.7904   20722909.2214
 96  8 14 17 44 29.9960000  0  6 16 24  5  6 17 10
  20109404.122   -17666744.36949 -13758513.55049  20109406.4664   20109412.2774
  23092475.563    10716391.89349   8336227.87149  23092479.0354   23092487.6584
  22858690.476    11980866.75349   9147667.73049  22858697.7804   22858705.3424
  19353656.444   -17511538.88749 -13636879.01449  19353661.1054   19353666.2744
  21289185.556   -22443923.54749 -17465449.43849  21289189.7944   21289197.2434
  20721799.946    -9910371.93749  -7718100.99049  20721803.2124   20721810.4064
 96  8 14 17 44 59.9960000  0  6 16 24  5  6 17 10
  20100788.875   -17712012.28249 -13793787.24849  20100792.4084   20100798.0994
  23099851.488    10755150.84949   8366429.57349  23099856.1704   23099863.2224
  22870205.792    12041362.29149   9194807.03649  22870209.8654   22870217.5064
  19339173.709   -17587649.05149 -13696185.63249  19339177.6024   19339182.6614
  21264324.660   -22574566.83449 -17567249.37849  21264329.2404   21264336.5574
  20720771.947    -9915778.80749  -7722314.14349  20720774.7244   20720781.6994
 96  8 14 17 45 29.9960000  0  6 16 24  5  6 17 10
  20092263.486   -17756819.64449 -13828702.06249  20092265.8174   20092271.4634
  23107204.500    10793773.10449   8396524.74349  23107205.6504   23107213.5984
  22881717.952    12101848.74949   9241939.25449  22881720.1804   22881726.9954
  19324726.139   -17663575.76249 -13755349.29849  19324729.5344   19324734.3864
  21239486.879   -22705083.61849 -17668950.74249  21239492.4054   21239500.1954
  20719813.819    -9920818.03549  -7726240.80449  20719815.9334   20719822.1124
 96  8 14 17 45 59.9960000  0  7 16 24 28  5  6 17 10
  20083827.038   -17801143.07849 -13863239.79949  20083830.6504   20083837.2754
  23114532.759    10832300.18249   8426545.78149  23114537.9224   23114544.7344
  23649357.920    -6352781.10119  -4931733.73619  23649366.008    23649375.202
  22893223.938    12162335.80749   9289071.97149  22893230.7624   22893238.8734
  19310314.282   -17739308.66649 -13814361.95149  19310317.8184   19310322.8224
  21214679.109   -22835463.21449 -17770545.21149  21214682.1584   21214689.8874
  20718926.109    -9925471.69649  -7729867.03249  20718929.3734   20718936.0984
 96  8 14 17 46 29.9960000  0  7 16 24 28  5  6 17 10
  20075488.739   -17844962.67749 -13897384.93349  20075491.9534   20075498.6834
  23121849.456    10870750.89749   8456507.33049  23121854.1894   23121861.4314
  23621217.504    -6500709.028 9  -5047002.196 9  23621218.017    23621225.054
  22904732.891    12222816.90649   9336200.04549  22904739.1404   22904747.6474
  19295945.235   -17814819.15949 -13873201.28849  19295948.4814   19295953.7384
  21189892.657   -22965703.05049 -17872030.78849  21189897.9574   21189906.0964
  20718121.302    -9929709.39549  -7733169.13249  20718123.0354   20718128.7014
 96  8 14 17 46 59.9960000  0  7 16 24 28  5  6 17 10
  20067250.980   -17888255.20049 -13931119.36349  20067253.8444   20067260.4144
  23129157.653    10909138.31249   8486419.54449  23129160.2174   23129166.8714
  23593043.972    -6648744.172 9  -5162354.214 9  23593048.911    23593054.433
  22916243.539    12283286.79349   9383319.37749  22916246.6724   22916255.4874
  19281622.833   -17890088.60749 -13931852.80149  19281625.2984   19281630.5964
  21165138.827   -23095802.01949 -17973406.58749  21165141.3194   21165148.9784
  20717396.366    -9933516.65549  -7736135.82149  20717399.5144   20717404.8224
 96  8 14 17 47 29.9960000  0  7 16 24 28  5  6 17 10
  20059114.518   -17931007.78849 -13964433.05749  20059117.8434   20059124.5724
  23136448.696    10947468.39649   8516287.12649  23136453.3084   23136459.9144
  23564852.094    -6796883.604 9  -5277787.505 9  23564860.206    23564863.637
  22927748.426    12343749.28049   9430432.95949  22927752.1374   22927760.7314
  19267344.371   -17965111.64449 -13990312.30749  19267348.9654   19267354.1184
  21140408.350   -23225758.82549 -18074671.62049  21140411.6884   21140418.3754
  20716758.564    -9936866.24149  -7738745.89049  20716761.8544   20716768.2954
 96  8 14 17 47 59.9960000  0  7 16 24 28  5  6 17 10
  20051077.362   -17973240.27149 -13997341.49049  20051081.4274   20051088.2404
  23143728.376    10985718.50149   8546092.36949  23143732.2014   23143740.3334
  23536647.684    -6945135.873 9  -5393308.705 9  23536647.000    23536652.349
  22939251.509    12404195.73249   9477534.03349  22939256.7444   22939262.3304
  19253113.304   -18039898.20149 -14048587.54449  19253117.3424   19253122.6874
  21115702.277   -23355570.16749 -18175823.29049  21115708.8814   21115716.0984
  20716209.208    -9939757.24549  -7740998.63249  20716211.3784   20716218.1134
 96  8 14 17 48 29.9960000  0  7 16 24 28  5  6 17 10
  20043136.686   -18014971.14149 -14029859.05349  20043140.0904   20043147.1244
  23150987.610    11023865.12449   8575816.97149  23150990.8624   23150998.5854
  23508408.271    -7093511.118 9  -5508925.760 9  23508413.416    23508419.643
  22950750.013    12464616.54549   9524615.11849  22950752.5234   22950761.8254
  19238928.705   -18114450.74049 -14106680.42549  19238930.7484   19238935.8504
  21091031.431   -23485230.09149 -18276856.98849  21091035.8774   21091043.0624
  20715742.855    -9942200.57049  -7742902.53349  20715746.5564   20715752.2664
 96  8 14 17 48 59.9960000  0  7 16 24 28  5  6 17 10
  20035284.902   -18056232.80349 -14062010.99849  20035288.0574   20035295.3304
  23158216.909    11061881.38249   8605439.99749  23158225.9384   23158232.8364
  23480150.804    -7242036.759 9  -5624659.965 9  23480148.889    23480156.670
  22962237.047    12524984.73249   9571655.19049  22962240.5704   22962248.6194
  19224779.886   -18188796.65449 -14164612.30549  19224783.1654   19224788.3044
  21066385.181   -23614750.68949 -18377782.11049  21066389.1394   21066396.8414
  20715357.439    -9944231.94349  -7744485.41049  20715360.1724   20715365.5964
 96  8 14 17 49 29.9960000  0  7 16 24 28  5  6 17 10
  20027519.598   -18097039.78449 -14093808.63749  20027522.8604   20027530.3724
  23165427.223    11099748.39149   8634946.71149  23165432.4324   23165439.8714
  23451851.967    -7390711.388 9  -5740510.264 9  23451857.805    23451863.863
  22973718.637    12585305.47749   9618658.27449  22973718.4944   22973727.6804
  19210668.809   -18262941.98549 -14222387.88949  19210673.9174   19210678.8914
  21041766.902   -23744120.97749 -18478590.12249  21041770.6124   21041777.8374
  20715045.876    -9945874.00349  -7745764.93449  20715047.9944   20715053.6554
 96  8 14 17 49 59.9960000  0  7 16 24 28  5  6 17 10
  20019869.352   -18137241.15649 -14125134.39449  20019872.9004   20019880.4764
  23172634.073    11137628.57449   8664463.68149  23172640.1044   23172646.6544
  23423570.672    -7539375.292 9  -5856352.230 9  23423567.926    23423574.447
  22985210.933    12645721.47049   9665735.60549  22985216.0804   22985224.5894
  19196627.748   -18336736.78149 -14279890.33049  19196630.9474   19196636.0274
  21017209.438   -23873171.83549 -18579149.22049  21017213.5604   21017219.9144
  20714831.967    -9946991.27049  -7746635.54449  20714834.8684   20714842.1314
 96  8 14 17 50 29.9960000  0  7 16 24 28  5  6 17 10
  20012279.472   -18177130.36849 -14156216.90749  20012282.5704   20012289.8634
  23179790.180    11175223.46849   8693758.33149  23179793.3704   23179802.8834
  23395214.740    -7688334.650 9  -5972424.446 9  23395222.200    23395227.824
  22996670.620    12705918.55249   9712642.33549  22996672.2704   22996679.0414
  19182594.746   -18410481.45849 -14337353.71949  19182598.1874   19182603.1884
  20992651.242   -24002213.50149 -18679701.15049  20992657.5694   20992663.8604
  20714658.854    -9947895.42649  -7747340.11649  20714662.7564   20714669.6244
 96  8 14 17 50 59.9960000  0  7 16 24 28  5  6 17 10
  20004750.516   -18216695.24549 -14187046.68349  20004754.0694   20004760.8514
  23186885.707    11212532.39449   8722830.15449  23186893.0884   23186901.5134
  23366814.994    -7837586.598 9  -6088724.592 9  23366819.752    23366826.305
  23008079.565    12765900.87249   9759381.74749  23008085.0454   23008094.1444
  19168570.851   -18484171.68549 -14394774.67249  19168575.0854   19168580.3254
  20968097.884   -24131252.03849 -18780250.63549  20968101.9674   20968109.0374
  20714528.474    -9948587.37449  -7747879.29649  20714531.4054   20714536.7624
 96  8 14 17 51 29.9960000  0  7 16 24 28  5  6 17 10
  19997329.024   -18255703.69349 -14217442.86849  19997331.3354   19997338.2084
  23193979.638    11249796.99749   8751867.46449  23193984.7674   23193992.7484
  23338406.802    -7986893.036 9  -6205067.227 9  23338408.806    23338414.740
  23019501.826    12825902.75949   9806136.38049  23019504.0074   23019511.8604
  19154606.682   -18557558.94749 -14451959.54549  19154610.2084   19154615.4974
  20943586.174   -24260066.17649 -18880625.26749  20943589.8164   20943595.8854
  20714483.371    -9948825.61349  -7748064.91649  20714485.7494   20714491.7994
 96  8 14 17 51 59.9960000  0  7 16 24 28  5  6 17 10
  19990017.966   -18294115.32249 -14247374.01249  19990021.6054   19990028.1024
  23201073.105    11287067.45449   8780909.32049  23201077.5184   23201085.2674
  23309994.513    -8136220.106 9  -6321425.938 9  23309991.905    23309998.424
  23030924.250    12885936.39549   9852915.74649  23030927.5924   23030936.2814
  19140707.607   -18630592.14449 -14508868.52649  19140712.2154   19140717.6374
  20919118.281   -24388642.28749 -18980814.42249  20919122.4694   20919129.1454
  20714532.576    -9948555.73049  -7747854.62849  20714536.6334   20714544.2294
 96  8 14 17 52 29.9960000  0  7 16 24 28  5  6 17 10
  19982823.407   -18331920.45649 -14276832.55649  19982827.3324   19982833.6154
  23208167.237    11324351.43449   8809961.73649  23208171.6284   23208179.9214
  23281560.966    -8285556.985 9  -6437792.292 9  23281573.805    23281580.562
  23042359.093    12946018.26549   9899732.70049  23042362.8264   23042368.8044
  19126884.621   -18703240.27049 -14565477.45049  19126887.7614   19126893.0944
  20894697.073   -24516985.13249 -19080821.81349  20894699.9354   20894706.2214
  20714686.874    -9947754.66449  -7747230.44049  20714689.5274   20714696.8594
 96  8 14 17 52 59.9960000  0  7 16 24 28  5  6 17 10
  19975744.937   -18369124.28249 -14305822.53949  19975748.1204   19975753.6514
  23215267.833    11361668.05749   8839039.56749  23215273.2504   23215281.2384
  23253155.732    -8434886.261 9  -6554152.721 9  23253156.849    23253163.085
  23053796.877    13006165.87249   9946600.85149  23053806.6634   23053815.0754
  19113135.539   -18775489.22149 -14621775.33249  19113139.3234   19113144.3414
  20870319.821   -24645085.16449 -19180639.99649  20870322.6654   20870329.9324
  20714942.730    -9946406.50249  -7746179.94049  20714946.1514   20714952.7314
 96  8 14 17 53 29.9950000  0  7 16 24 28  5  6 17 10
  19968775.987   -18405741.99349 -14334355.82149  19968779.2974   19968785.6804
  23222377.468    11399013.40049   8868139.79349  23222381.1924   23222388.4584
  23224739.725    -8584205.979 9  -6670505.702 9  23224742.305    23224748.456
  23065260.690    13066378.14849   9993519.40449  23065265.1654   23065273.4124
  19099461.659   -18847342.92049 -14677765.22349  19099465.9384   19099471.2834
  20845991.481   -24772932.22949 -19280261.05449  20845994.6534   20846001.0264
  20715301.333    -9944522.10649  -7744711.58449  20715304.1974   20715310.8744
 96  8 14 17 53 59.9950000  0  7 16 24 28  5  6 17 10
  19961917.674   -18441786.28049 -14362442.27849  19961920.1574   19961926.6774
  23229483.166    11436358.61149   8897239.91649  23229486.2164   23229494.0734
  23196317.663    -8733546.212 9  -6786874.655 9  23196323.089    23196330.727
  23076733.757    13126643.50949  10040479.34049  23076732.8404   23076741.1214
  19085853.404   -18918854.29249 -14733488.37049  19085857.5994   19085862.9644
  20821709.235   -24900532.25349 -19379689.62649  20821712.7904   20821719.4964
  20715756.395    -9942139.56449  -7742855.06549  20715758.0244   20715764.5854
 96  8 14 17 54 29.9950000  0  7 16 24 28  5  6 17 10
  19955162.702   -18477279.43849 -14390099.29149  19955166.5024   19955173.3314
  23236582.148    11473674.40349   8926317.10449  23236587.7364   23236594.8444
  23167891.571    -8882920.240 9  -6903269.957 9  23167898.943    23167904.767
  23088206.590    13186957.77049  10087477.37749  23088210.2634   23088218.1464
  19072303.826   -18990058.85249 -14788972.43949  19072307.9034   19072313.0594
  20797476.933   -25027883.17649 -19478924.07549  20797478.6604   20797485.6594
  20716297.536    -9939291.96949  -7740636.16849  20716300.5564   20716307.0774
 96  8 14 17 54 59.9950000  0  7 16 24 28  5  6 17 10
  19948507.487   -18512257.58649 -14417354.99249  19948510.2524   19948517.3604
  23243670.492    11510917.99549   8955338.04449  23243676.0404   23243682.0094
  23139456.181    -9032362.897 9  -7019718.720 9  23139460.410    23139467.735
  23099684.007    13247282.60549  10134483.63549  23099689.6374   23099698.3704
  19058804.972   -19061000.79549 -14844251.87349  19058808.2304   19058813.2874
  20773282.097   -25155013.49549 -19577986.64249  20773287.0054   20773293.3624
  20716916.661    -9936035.37049  -7738098.56449  20716919.7824   20716926.9954
 96  8 14 17 55 29.9950000  0  7 16 24 28  5  6 17 10
  19941944.478   -18546745.24849 -14444228.49549  19941947.6304   19941954.8514
  23250737.235    11548049.62149   8984271.73949  23250741.2344   23250749.2764
  23111001.939    -9181908.182 9  -7136247.464 9  23111004.571    23111009.706
  23111158.314    13307569.09249  10181460.03349  23111161.8664   23111170.3074
  19045349.288   -19131708.69149 -14899348.93049  19045353.0384   19045358.1554
  20749124.131   -25281964.54449 -19676909.51049  20749128.9834   20749134.9614
  20717606.292    -9932413.36649  -7735276.24549  20717608.6694   20717615.3854
 96  8 14 17 55 59.9950000  0  7 16 24 28  5  6 17 10
  19935473.961   -18580750.29749 -14470725.93949  19935476.8974   19935484.1354
  23257782.125    11585061.74949   9013112.33349  23257785.4014   23257790.9084
  23082521.001    -9331567.691 9  -7252865.190 9  23082524.108    23082531.086
  23122618.984    13367786.43949  10228382.52549  23122621.1914   23122630.0974
  19031938.380   -19202190.93749 -14954270.15649  19031940.6304   19031945.8614
  20724996.734   -25408766.64249 -19775716.31749  20724999.1064   20725005.5864
  20718364.196    -9928426.75249  -7732169.79149  20718368.4374   20718373.8924
 96  8 14 17 56 29.9950000  0  8 16 24 28  5  6 17 10 23
  19929089.387   -18614297.22349 -14496866.39849  19929092.4664   19929099.5464
  23264797.910    11621957.37649   9041862.12349  23264805.7074   23264812.1044
  23054010.657    -9481348.029 9  -7369577.067 9  23054021.848    23054028.217
  23134060.121    13427918.89549  10275238.88449  23134063.3544   23134071.6444
  19018570.316   -19272428.51749 -15009000.73249  19018574.7604   19018580.1804
  20700890.252   -25535444.42749 -19874426.25549  20700893.0804   20700899.6814
  20719195.195    -9924071.09049  -7728775.76649  20719197.1924   20719204.0624
  23473762.773    -4516554.10159  -3481307.05359  23473759.1474   23473767.2804
 96  8 14 17 56 59.9950000  0  8 16 24 28  5  6 17 10 23
  19922797.935   -18647362.43449 -14522631.50349  19922801.0274   19922806.7934
  23271805.266    11658756.61649   9070536.79349  23271806.7204   23271815.8004
  23025500.729    -9631232.087 9  -7486369.787 9  23025500.754    23025504.825
  23145492.797    13487968.95449  10322031.05649  23145491.7304   23145499.8234
  19005258.401   -19342390.85749 -15063516.83749  19005261.2804   19005266.5434
  20676807.396   -25661987.25749 -19973031.02649  20676812.4754   20676819.5504
  20720096.162    -9919333.25049  -7725083.96849  20720097.2644   20720105.0024
  23442847.406    -4678960.05549  -3607857.06749  23442854.9974   23442863.3604
 96  8 14 17 57 29.9950000  0  8 16 24 28  5  6 17 10 23
  19916598.980   -18679930.04549 -14548008.86149  19916602.8934   19916608.1354
  23278791.628    11695475.00749   9099148.45949  23278794.7204   23278804.5774
  22996950.298    -9781205.185 9  -7603231.891 9  22996961.928    22996966.085
  23156903.769    13547944.22149  10368764.92449  23156904.4794   23156912.7454
  18991998.234   -19412067.89649 -15117810.63549  18992002.1784   18992007.5894
  20652760.261   -25788370.86149 -20071511.73249  20652762.0914   20652769.3374
  20721074.329    -9914186.33149  -7721073.41649  20721077.3214   20721084.0254
  23411938.523    -4841422.26449  -3734450.90149  23411938.8084   23411947.2714
 96  8 14 17 57 59.9950000  0  8 16 24 28  5  6 17 10 23
  19910496.670   -18712007.78049 -14573004.49549  19910499.0154   19910504.0284
  23285761.185    11732096.26549   9127684.45749  23285765.2614   23285771.7834
  22968399.329    -9931272.568 9  -7720167.476 9  22968404.347    22968409.296
  23168300.988    13607848.86249  10415443.79349  23168304.0124   23168312.6054
  18978790.850   -19481472.63349 -15171892.24749  18978795.1234   18978800.4854
  20628740.685   -25914584.72049 -20169860.17049  20628744.8214   20628751.0944
  20722132.275    -9908635.62849  -7716748.18649  20722134.7064   20722139.9624
  23381011.173    -5003948.31349  -3861094.45449  23381011.0794   23381020.4074
 96  8 14 17 58 29.9950000  0  8 16 24 28  5  6 17 10 23
  19904486.382   -18743593.63549 -14597616.85149  19904489.2654   19904494.0924
  23292707.432    11768609.54149   9156136.32259  23292711.8474   23292719.0914
  22939822.068   -10081428.440 9  -7837171.993 9  22939830.711    22939836.114
  23179687.466    13667691.49049  10462074.31949  23179691.8834   23179700.3724
  18965634.465   -19550609.47949 -15225765.11449  18965638.9104   18965644.1174
  20604760.779   -26040614.01249 -20268064.78649  20604762.0744   20604768.9174
  20723260.981    -9902693.50049  -7712117.95849  20723263.9334   20723271.5854
  23350068.862    -5166542.04749  -3987790.76849  23350070.4784   23350079.6444
 96  8 14 17 58 59.9950000  0  9 16 24 28  5  6 17 22 10 23
  19898575.822   -18774657.24949 -14621822.25849  19898577.9024   19898584.1044
  23299637.066    11805020.32049   9184508.29449  23299640.4084   23299646.6104
  22911238.274   -10231649.567 9  -7954227.355 9  22911244.424    22911249.791
  23191065.900    13727490.38849  10508670.77049  23191070.2484   23191079.8224
  18952529.827   -19619478.25749 -15279429.09249  18952533.5704   18952538.6904
  20580817.113   -26166434.25449 -20366106.50849  20580819.5524   20580825.9984
  23218921.242    -7064718.35659  -5132248.22459  23218921.5374   23218928.0674
  20724467.888    -9896353.59949  -7707177.82649  20724470.2594   20724478.2284
  23319112.729    -5329184.91849  -4114525.37749  23319121.4334   23319128.8244
 96  8 14 17 59 29.9950000  0  9 16 24 28  5  6 17 22 10 23
  19892761.971   -18805205.55449 -14645626.13449  19892764.3414   19892771.3814
  23306549.488    11841316.62649   9212791.05949  23306546.8474   23306559.2044
  22882644.995   -10381933.557 9  -8071331.730 9  22882646.979    22882651.738
  23202436.835    13787248.37949  10555235.33549  23202443.4104   23202451.0724
  18939473.409   -19688091.72549 -15332894.13249  18939476.6874   18939481.7804
  20556911.570   -26292045.99249 -20463985.75549  20556915.9174   20556922.8024
  23191731.956    -7207544.53049  -5243541.32449  23191741.3284   23191748.8514
  20725750.802    -9889616.05749  -7701927.79149  20725753.2864   20725759.0594
  23288167.077    -5491858.58749  -4241283.97649  23288165.2984   23288173.3234
 96  8 14 17 59 59.9950000  0  9 16 24 28  5  6 17 22 10 23
  19887045.915   -18835239.68949 -14669029.37149  19887048.5184   19887055.6374
  23313427.046    11877496.36559                                  23313430.5874
  22854039.386   -10532281.432 9  -8188485.874 9  22854036.390    22854041.563
  23213798.979    13846957.42449  10601761.79549  23213805.3174   23213812.3124
  18926465.169   -19756450.46849 -15386160.67949  18926468.4514   18926473.5844
  20533046.469   -26417463.07349 -20561713.32649  20533049.9644   20533056.7904
  23164604.174    -7350122.94049  -5354641.31349  23164611.7014   23164617.2014
  20727106.152    -9882491.72749  -7696376.35949  20727108.3254   20727115.4634
  23257197.117    -5654555.13049  -4368060.42849  23257205.1714   23257213.1194
 96  8 14 18  0 29.9950000  0  9 16 24 28  5  6 17 22 10 23
  19881430.225   -18864745.83249 -14692021.18249  19881434.2484   19881440.7044
  23320308.847    11913575.06058                                  23320297.3844
  22825406.969   -10682684.456 9  -8305682.981 9  22825415.483    22825420.804
  23225152.928    13906610.00749  10648244.20849  23225156.6174   23225165.6234
  18913509.273   -19824533.33149 -15439212.25949  18913512.8574   18913517.9064
  20509217.927   -26542684.74549 -20659288.62849  20509221.1274   20509227.6884
  23137526.766    -7492450.51949  -5465545.89049  23137527.8614   23137533.7174
  20728535.387    -9874977.79449  -7690521.38349  20728538.2294   20728545.8304
  23226239.093    -5817259.35749  -4494842.86249  23226243.4824   23226251.7624
 96  8 14 18  0 59.9950000  0  9 16 24 28  5  6 17 22 10 23
  19875914.922   -18893729.69549 -14714606.01149  19875918.7054   19875924.9244
  23327143.425    11949566.80419
  22796778.693   -10833143.071 9  -8422923.403 9  22796784.275    22796789.228
  23236494.477    13966200.00749  10694677.86549  23236495.0324   23236503.4994
  18900609.511   -19892315.07649 -15492029.20149  18900614.1874   18900619.6844
  20485424.692   -26667709.52349 -20756710.50649  20485429.7064   20485436.3384
  23110492.317    -7634540.44049  -5576265.26849  23110486.9884   23110493.8474
  20730039.045    -9867076.02749  -7684364.17749  20730042.7374   20730048.9004
  23195285.746    -5979953.84849  -4621617.69549  23195283.7224   23195292.2774
 96  8 14 18  1 29.9950000  0  8 16 28  5  6 17 22 10 23
  19870496.692   -18922211.22249 -14736799.40749  19870499.4104   19870504.3724
  22768144.317   -10983673.908 9  -8540220.107 9  22768139.019    22768144.005
  23247815.470    14025710.27449  10741049.35549  23247821.1594   23247829.9174
  18887771.953   -19959786.05249 -15544603.98549  18887775.0914   18887780.4164
  20461666.424   -26792554.91649 -20853992.61549  20461672.6444   20461679.2034
  23083482.980    -7776425.17049  -5686824.74849  23083488.9384   23083494.5654
  20731617.710    -9858788.77849  -7677906.58449  20731619.2844   20731625.4924
  23164322.759    -6142660.99749  -4748402.40149  23164321.7284   23164330.2974
 96  8 14 18  1 59.9950000  0  8 16 28  5  6 17 22 10 23
  19865168.623   -18950205.89049 -14758613.42749  19865171.9454   19865176.8064
  22739474.050   -11134292.043 9  -8657584.838 9  22739476.245    22739483.389
  23259121.931    14085125.65249  10787346.94549  23259128.9614   23259135.8764
  18874991.746   -20026947.56349 -15596937.62749  18874994.6584   18874999.9574
  20437943.824   -26917232.88349 -20951144.25349  20437947.5254   20437953.7854
  23056516.241    -7918137.99549  -5797250.29249  23056519.6514   23056527.6634
  20733262.606    -9850129.62549  -7671159.21349  20733267.2964   20733274.0424
  23133352.345    -6305418.02349  -4875225.97949  23133349.3284   23133358.4914
 96  8 14 18  2 29.9950000  0  8 16 28  5  6 17 22 10 23
  19859931.818   -18977722.35049 -14780054.83149  19859935.1964   19859940.7194
  22710802.468   -11284995.369 9  -8775015.942 9  22710798.609    22710805.633
  23270414.512    14144455.76849  10833578.10349  23270417.6594   23270426.0504
  18862270.163   -20093796.65349 -15649027.83249  18862274.0004   18862279.0594
  20414250.821   -27041738.64849 -21048161.70549  20414254.5174   20414261.1784
  23029576.566    -8059692.80549  -5907552.71449  23029582.9514   23029591.0644
  20734984.154    -9841096.33349  -7664120.30849  20734986.1294   20734993.1464
  23102365.219    -6468229.57849  -5002092.05249  23102367.6644   23102375.6844
 96  8 14 18  2 59.9950000  0  7 16 28  6 17 22 10 23
  19854787.307   -19004761.42649 -14801124.24249  19854790.2394   19854796.1174
  22682103.009   -11435772.142 9  -8892504.271 9  22682107.067    22682113.632
  18849607.769   -20160338.61549 -15700878.71149  18849611.0954   18849616.1754
  20390594.000   -27166061.02149 -21145036.25349  20390596.4054   20390603.0944
  23002669.566    -8201082.85549  -6017726.71649  23002677.2284   23002685.0924
  20736775.432    -9831674.75949  -7656778.84349  20736778.6424   20736785.4754
  23071371.610    -6631099.79149  -5129003.84949  23071373.6774   23071382.1314
 96  8 14 18  3 29.9950000  0  7 16 28  6 17 22 10 23
  19849733.964   -19031315.74149 -14821815.92749  19849737.0614   19849743.7554
  22653399.607   -11586620.885 9  -9010048.712 9  22653401.371    22653408.067
  18836998.514   -20226601.98549 -15752512.50749  18837001.6944   18837006.8984
  20366970.759   -27290194.98649 -21241763.99749  20366974.7694   20366981.5834
  22975811.062    -8342293.08449  -6127760.63649  22975806.5314   22975813.4764
  20738644.045    -9821867.32349  -7649136.70249  20738645.4934   20738652.1594
  23040362.496    -6794027.39349  -5255960.36849  23040369.9714   23040378.7574
 96  8 14 18  3 59.9950000  0  7 16 28  6 17 22 10 23
  19844771.422   -19057395.41149 -14842137.75549  19844774.0784   19844780.9934
  22624675.969   -11737543.460 9  -9127650.677 9  22624682.339    22624688.458
  18824437.981   -20292608.57749 -15803946.21649  18824441.3024   18824446.3924
  20343386.728   -27414132.90849 -21338338.97249  20343390.2384   20343397.1034
  22948971.184    -8483312.48849  -6237645.85749  22948971.7824   22948978.2164
  20740577.224    -9811697.42249  -7641212.12249  20740580.5514   20740587.6834
  23009362.120    -6957005.34149  -5382956.08949  23009356.9514   23009364.2454
 96  8 14 18  4 29.9950000  0  7 16 28  6 17 22 10 23
  19839900.255   -19082991.95049 -14862083.11049  19839903.1764   19839909.5904
  22595953.450   -11888526.618 9  -9245299.839 9  22595950.160    22595957.624
  18811927.805   -20358347.36749 -15855171.24649  18811931.7434   18811936.6734
  20319838.954   -27537874.94849 -21434761.31349  20319843.1664   20319849.5904
  22922173.948    -8624110.36049  -6347358.45049  22922178.4794   22922186.3434
  20742583.081    -9801166.01549  -7633005.85549  20742584.6154   20742590.8854
  22978335.003    -7120012.57949  -5509974.66249  22978337.4214   22978345.8944
 96  8 14 18  4 59.9950000  0  7 16 28  6 17 22 10 23
  19835122.561   -19108098.34849 -14881646.53949  19835125.7644   19835131.9074
  22567206.043   -12039562.688 9  -9362990.237 9  22567209.101    22567216.079
  18799471.180   -20423806.33849 -15906178.23549  18799474.9024   18799480.1224
  20296330.846   -27661409.15049 -21531021.70549  20296335.0084   20296341.4674
  22895431.972    -8764652.55449  -6456871.81049  22895434.2024   22895441.1654
  20744654.478    -9790272.77949  -7624517.62249  20744657.8744   20744663.8254
  22947314.136    -7283031.65549  -5637002.43649  22947316.2384   22947324.4204
 96  8 14 18  5 29.9950000  0  7 16 28  6 17 22 10 23
  19830441.020   -19132693.69149 -14900811.74249  19830444.8194   19830451.3994
  22538464.047   -12190628.775 9  -9480704.011 9  22538462.067    22538469.422
  18787075.529   -20488945.52449 -15956936.04349  18787079.3644   18787084.5064
  20272864.875   -27784720.09849 -21627108.13349  20272869.8304   20272875.9604
  22868741.065    -8904903.83249  -6566158.48549  22868745.7114   22868751.0094
  20746801.134    -9778995.23749  -7615729.94049  20746803.4234   20746810.5674
  22916297.510    -7446018.42849  -5764005.07149  22916300.9744   22916307.8594
 96  8 14 18  5 59.9950000  0  7 16 28  6 17 22 10 23
  19825862.687   -19156760.48149 -14919565.08349  19825865.9064   19825872.0114
  22509712.824   -12341695.958 9  -9598418.646 9  22509714.437    22509721.447
  18774748.691   -20553723.94449 -16007412.72649  18774752.5574   18774757.7224
  20249445.021   -27907788.42249 -21723005.50249  20249450.5624   20249456.7884
  22842104.611    -9044844.70149  -6675203.29149  22842115.7384   22842120.6894
  20749026.503    -9767301.22949  -7606617.75449  20749029.8204   20749036.1434
  22885293.966    -7608957.87449  -5890970.82649  22885294.0844   22885301.9644
 96  8 14 18  6 29.9950000  0  7 16 28  6 17 22 10 23
  19821385.158   -19180287.56049 -14937897.87049  19821388.8134   19821395.4984
  22480965.743   -12492753.785 9  -9716125.985 9  22480969.390    22480976.547
  18762492.981   -20618125.51249 -16057595.76249  18762497.2914   18762502.3694
  20226076.289   -28030607.69049 -21818708.79349  20226078.6104   20226085.3354
  22815546.899    -9184475.81049  -6784006.72749  22815545.5874   22815549.4374
  20751334.479    -9755170.83949  -7597165.50049  20751337.0994   20751343.8014
  22854291.645    -7771836.83849  -6017889.40849  22854298.4964   22854306.7984
 96  8 14 18  6 59.9950000  0  7 16 28  6 17 22 10 23
  19817012.357   -19203270.72749 -14955806.84049  19817014.7074   19817022.0974
  22452225.671   -12643800.862 9  -9833824.955 9  22452226.422    22452232.946
  18750310.512   -20682151.20249 -16107485.91049  18750313.5944   18750318.7224
  20202756.111   -28153157.58649 -21914202.18749  20202757.9434   20202764.9524
  22789029.500    -9323804.48249  -6892574.52449  22789030.8014   22789036.5664
  20753727.487    -9742592.89249  -7587364.52249  20753730.5284   20753736.7784
  22823313.878    -7934639.61249  -6144748.65649  22823318.8674   22823327.0134
 96  8 14 18  7 29.9950000  0  7 16 28  6 17 22 10 23
  19812742.284   -19225703.67349 -14973287.06349  19812745.6134   19812752.7874
  22423481.909   -12794832.180 9  -9951511.646 9  22423485.880    22423492.392
  18738198.467   -20745795.84249 -16157079.13449  18738202.4654   18738207.5854
  20179483.881   -28275446.34449 -22009492.10249  20179487.1874   20179493.8914
  22762566.397    -9462846.15849  -7000918.65849  22762571.7574   22762579.7434
  20756207.834    -9729565.60749  -7577213.40949  20756210.5094   20756216.2924
  22792355.145    -8097374.78749  -6271555.19649  22792350.6044   22792358.9124
 96  8 14 18  7 59.9940000  0  7 16 28  6 17 22 10 23
  19808580.628   -19247571.84649 -14990327.20549  19808583.9274   19808590.2804
  22394748.281   -12945835.126 9 -10069176.237 9  22394751.463    22394757.241
  18726161.168   -20809053.96649 -16206371.18249  18726164.7054   18726169.7054
  20156263.483   -28397453.57949 -22104562.64449  20156270.1794   20156276.5404
  22736168.207    -9601594.37649  -7109034.13049  22736169.5134   22736175.9604
  20758770.339    -9716098.97649  -7566719.93649  20758772.5024   20758778.5714
  22761397.707    -8260036.16249  -6398304.25549  22761398.0884   22761405.7764
 96  8 14 18  8 29.9940000  0  7 16 28  6 17 22 10 23
  19804528.211   -19268873.20649 -15006925.66849  19804531.4074   19804536.8534
  22366020.690   -13096819.891 9 -10186826.647 9  22366019.422    22366026.058
  18714197.658   -20871916.70349 -16255355.12849  18714202.3604   18714207.2834
  20133101.907   -28519191.51449 -22199423.34749  20133104.6964   20133110.6314
  22709819.888    -9740043.30349  -7216916.36449  22709823.1644   22709830.4864
  20761414.463    -9702196.24949  -7555886.66849  20761417.8424   20761424.3454
  22730458.650    -8422616.87749  -6524990.41149  22730458.9024   22730468.1774
 96  8 14 18  8 59.9940000  0  7 16 28  6 17 22 10 23
  19800578.111   -19289631.16549 -15023100.69049  19800582.0884   19800587.5434
  22337281.634   -13247804.290 9 -10304476.785 9  22337288.101    22337293.993
  18702309.113   -20934394.58049 -16304039.18449  18702313.3434   18702318.2874
  20109980.543   -28640688.89849 -22294096.61149  20109984.0564   20109990.5414
  22683531.736    -9878193.42749  -7324565.78949  22683534.1804   22683540.6804
  20764137.782    -9687895.99149  -7544743.63349  20764140.0144   20764146.1914
  22699537.178    -8585128.81949  -6651622.99849  22699534.5724   22699541.6294
 96  8 14 18  9 29.9940000  0  7 16 28  6 17 22 10 23
  19796730.844   -19309849.32149 -15038855.09949  19796734.0774   19796741.0344
  22308552.251   -13398790.031 9 -10422127.963 9  22308556.485    22308562.852
  18690493.438   -20996491.73649 -16352426.57149  18690496.8224   18690501.7464
  20086905.422   -28761960.46249 -22388593.90249  20086906.7994   20086913.3304
  22657297.698   -10016040.23149  -7431978.82549  22657301.9294   22657310.3244
  20766929.575    -9673219.40749  -7533307.35549  20766932.0644   20766938.5604
  22668621.086    -8747572.48449  -6778202.40649  22668622.4214   22668630.6384
 96  8 14 18  9 59.9940000  0  7 16 28  6 17 22 10 23
  19792987.154   -19329521.00149 -15054183.70649  19792990.3514   19792997.1034
  22279821.866   -13549769.404 9 -10539774.176 9  22279826.046    22279832.180
  18678747.161   -21058213.12649 -16400521.16149  18678751.6854   18678756.6664
  20063871.093   -28882985.44149 -22482899.05249  20063876.7284   20063883.3274
  22631127.179   -10153564.60749  -7539140.64249  22631132.5854   22631140.1184
  20769796.201    -9658155.32749  -7521569.13049  20769799.0644   20769805.3384
  22637725.595    -8909929.65349  -6904714.38849  22637726.6254   22637734.9944
 96  8 14 18 10 29.9940000  0  7 16 28  6 17 22 10 23
  19789341.558   -19348682.94049 -15069115.09249  19789344.0284   19789349.5844
  22251089.435   -13700760.326 9 -10657429.399 9  22251093.352    22251099.873
  18667067.099   -21119598.09349 -16448353.60049  18667070.4734   18667075.5574
  20040885.108   -29003778.39349 -22577023.41049  20040890.1724   20040896.7394
  22605021.680   -10290783.16849  -7646064.15049  22605020.2544   22605028.6984
  20772734.896    -9642717.00049  -7509539.27649  20772737.2284   20772742.8484
  22606845.227    -9072216.80249  -7031171.82449  22606844.6034   22606852.8254
 96  8 14 18 10 59.9940000  0  7 16 28  6 17 22 10 23
  19785786.910   -19367350.64649 -15083661.36449  19785791.5554   19785797.6424
  22222349.670   -13851768.375 9 -10775097.967 9  22222357.579    22222363.460
  18655444.676   -21180673.85149 -16495945.10249  18655447.9504   18655453.1884
  20017944.711   -29124326.98849 -22670957.36549  20017950.7134   20017957.1074
  22578956.604   -10427715.16049  -7752764.35349  22578963.9694   22578971.5784
  20775740.750    -9626920.67349  -7497230.47949  20775742.3874   20775749.2254
  22575968.437    -9234454.05949  -7157590.38249  22575971.8864   22575979.9824
 96  8 14 18 11 29.9940000  0  7 16 28  6 17 22 10 23
  19782327.278   -19385541.16649 -15097835.78449  19782330.2714   19782336.5044
  22193612.844   -14002805.519 9 -10892789.203 9  22193616.043    22193621.943
  18643874.302   -21241468.54249 -16543317.58949  18643879.1024   18643884.4014
  19995054.236   -29244629.05449 -22764699.20749  19995057.8934   19995064.3584
  22552956.787   -10564384.60949  -7859259.99649  22552955.5354   22552964.1974
  20778811.491    -9610769.04549  -7484644.81849  20778816.1854   20778822.4884
  22545099.388    -9396669.70349  -7283992.10449  22545102.7614   22545111.2964
 96  8 14 18 11 59.9940000  0  7 16 28  6 17 22 10 23
  19778951.998   -19403274.96749 -15111654.34949  19778954.6934   19778962.6744
  22164864.807   -14153880.911 9 -11010510.260 9  22164867.308    22164873.067
  18632359.603   -21301990.48249 -16590477.54349  18632362.0694   18632367.2794
  19972209.079   -29364684.78449 -22858249.10849  19972212.0144   19972218.5834
  22526987.229   -10700802.00949  -7965559.24949  22526996.6464   22527004.7414
  20781952.340    -9594264.93849  -7471784.48849  20781956.3844   20781963.2334
  22514234.745    -9558888.67249  -7410396.41949  22514233.7644   22514241.9924
 96  8 14 18 12 29.9940000  0  7 16 28  6 17 22 10 23
  19775661.913   -19420556.06049 -15125120.15649  19775666.6524   19775673.8964
  22136108.297   -14304987.604 9 -11128255.685 9  22136112.227    22136118.712
  18620897.327   -21362219.04149 -16637408.88649  18620900.9224   18620905.9934
  19949409.050   -29484492.84749 -22951606.01749  19949413.3774   19949419.5994
  22501088.614   -10836966.46649  -8071661.39649  22501086.0584   22501093.1834
  20785162.414    -9577413.92349  -7458653.85249  20785163.5414   20785170.3614
  22483358.722    -9721101.33649  -7536795.83149  22483365.6584   22483373.6234
 96  8 14 18 12 59.9940000  0  7 16 28  6 17 22 10 23
  19772466.708   -19437366.30749 -15138219.04549  19772468.6544   19772473.6464
  22107348.944   -14456114.368 9 -11246016.762 9  22107353.715    22107360.579
  18609499.803   -21422112.72449 -16684079.28949  18609503.7104   18609508.9984
  19926656.996   -29604058.19349 -23044773.80449  19926660.9074   19926667.1004
  22475219.354   -10972857.07749  -8177550.13249  22475226.2064   22475233.4264
  20788435.319    -9560204.04149  -7445243.58749  20788438.3254   20788445.3864
  22452503.840    -9883292.61249  -7663178.56449  22452502.3914   22452509.2004
 96  8 14 18 13 29.9940000  0  7 16 28  6 17 22 10 23
  19769354.252   -19453711.60649 -15150955.63149  19769357.5244   19769363.3614
  22078591.415   -14607268.977 9 -11363799.520 9  22078590.273    22078596.147
  18598168.707   -21481664.96149 -16730483.63049  18598171.4844   18598176.4494
  19903943.445   -29723418.70949 -23137781.97549  19903947.1594   19903953.3114
  22449417.573   -11108475.07649  -8283226.45749  22449419.4044   22449426.6454
  20791774.037    -9542649.75249  -7431564.92749  20791778.9084   20791785.9434
  22421640.434   -10045451.68349  -7789536.23449  22421643.1814   22421651.4314
 96  8 14 18 13 59.9940000  0  7 16 28  6 17 22 10 23
  19766328.848   -19469608.18949 -15163342.58349  19766332.7304   19766339.5654
  22049816.536   -14758463.703 9 -11481613.558 9  22049818.934    22049825.132
  18586899.184   -21540876.30249 -16776622.34149  18586904.0024   18586908.9644
  19881261.688   -29842608.79749 -23230657.34349  19881265.9994   19881272.3204
  22423661.899   -11243825.74649  -8388694.48449  22423662.7044   22423669.5884
  20795176.287    -9524778.72149  -7417639.47749  20795180.3034   20795186.5814
  22390790.973   -10207570.52249  -7915862.51449  22390792.7734   22390800.8774
 96  8 14 18 14 29.9940000  0  7 16 28  6 17 22 10 23
  19763390.614   -19485054.65749 -15175378.81249  19763393.3094   19763400.5414
  22021032.716   -14909704.101 9 -11599463.183 9  22021038.703    22021044.724
  18575699.074   -21599740.14749 -16822490.26549  18575702.1254   18575707.6494
  19858609.987   -29961653.24149 -23323419.22749  19858612.7384   19858619.0294
  22397953.705   -11378914.73049  -8493958.58949  22397956.3644   22397962.5504
  20798637.359    -9506598.95749  -7403473.45349  20798639.4034   20798646.0684
  22359949.104   -10369643.50949  -8042153.08749  22359951.5214   22359959.9704
 96  8 14 18 14 59.9940000  0  7 16 28  6 17 22 10 23
  19760538.974   -19500037.75549 -15187053.95849  19760542.4164   19760548.4074
  21992249.261   -15060984.235 9 -11717343.773 9  21992250.633    21992257.071
  18564564.798   -21658250.98149 -16868083.12349  18564567.9234   18564573.2644
  19835983.795   -30080555.37249 -23416070.22149  19835986.4994   19835992.2784
  22372293.712   -11513733.25749  -8599011.95149  22372300.6534   22372307.0704
  20802155.727    -9488110.21149  -7389066.66149  20802157.6124   20802163.9514
  22329115.554   -10531666.44449  -8168404.68149  22329119.2774   22329127.6364
 96  8 14 18 15 29.9940000  0  7 16 28  6 17 22 10 23
  19757780.808   -19514530.60249 -15198347.09649  19757783.2264   19757790.0234
  21963456.448   -15212280.489 9 -11835236.923 9  21963460.058    21963466.438
  18553495.613   -21716411.82149 -16913403.26249  18553500.5524   18553505.4534
  19813389.381   -30199277.71449 -23508581.11749  19813393.9074   19813399.9414
  22346705.855   -11648264.52749  -8703841.48049  22346700.3184   22346706.1274
  20805734.041    -9469300.19849  -7374409.52049  20805737.7764   20805743.2324
  22298299.542   -10693626.12349  -8294606.96549  22298300.0034   22298307.6764
 96  8 14 18 15 59.9940000  0  7 16 28  6 17 22 10 23
  19755122.897   -19528492.11049 -15209226.20449  19755127.1014   19755133.3084
  21934669.492   -15363551.799 9 -11953110.630 9  21934674.475    21934680.268
  18542499.348   -21774197.12949 -16958430.78149  18542504.3074   18542509.2464
  19790841.747   -30317765.37949 -23600909.14649  19790846.5334   19790852.6824
  22321156.698   -11782467.15649  -8808414.93249  22321163.0504   22321169.2964
  20809387.138    -9450114.84449  -7359459.92349  20809388.0714   20809394.0924
  22267491.386   -10855498.81049  -8420741.46249  22267497.1044   22267503.8724
 96  8 14 18 16 29.9940000  0  7 16 28  6 17 22 10 23
  19752574.396   -19541894.44849 -15219669.59049  19752577.5914   19752583.5054
  21905895.811   -15514765.817 9 -12070939.696 9  21905899.104    21905905.470
  18531582.594   -21831579.15049 -17003144.04049  18531584.9754   18531589.8454
  19768350.400   -30435965.32949 -23693012.98449  19768354.0024   19768359.9734
  22295690.488   -11916305.30849  -8912704.36849  22295694.2904   22295701.1994
  20813114.792    -9430517.54149  -7344189.31849  20813117.3364   20813123.9844
  22236710.529   -11017264.07749  -8546792.27049  22236713.6464   22236721.7504
 96  8 14 18 16 59.9940000  0  7 16 28  6 17 22 10 23
  19750131.218   -19554733.76449 -15229674.26549  19750134.2114   19750140.5254
  21877137.133   -15665898.962 9 -12188705.753 9  21877139.653    21877145.557
  18520739.662   -21888556.31849 -17047541.83949  18520742.7944   18520747.6084
  19745921.155   -30553831.15349 -23784856.45749  19745924.8614   19745930.9674
  22270301.848   -12049741.84049  -9016680.86949  22270302.1424   22270308.2894
  20816924.409    -9410496.10449  -7328588.21749  20816927.3174   20816933.3624
  22205951.956   -11178901.34549  -8672743.32749  22205954.8274   22205963.1244
 96  8 14 18 17 29.9940000  0  7 16 28  6 17 22 10 23
  19747793.302   -19567014.15649 -15239243.41049  19747796.2684   19747803.0424
  21848399.265   -15816938.276 9 -12306398.693 9  21848398.060    21848403.467
  18509975.410   -21945117.14149 -17091615.21549  18509979.4384   18509984.5124
  19723558.077   -30671343.87649 -23876424.79849  19723562.6724   19723568.9744
  22244991.149   -12182759.40049  -9120330.90049  22244990.3994   22244995.3094
  20820819.402    -9390028.36349  -7312639.36549  20820822.2464   20820829.3334
  22175220.926   -11340402.41249  -8798588.27549  22175222.2474   22175229.5154
 96  8 14 18 17 59.9940000  0  7 16 28  6 17 22 10 23
  19745559.900   -19578745.61749 -15248384.82749  19745563.6564   19745570.7004
  21819670.052   -15967887.292 9 -12424021.264 9  21819673.303    21819678.490
  18499294.054   -22001249.92149 -17135355.04149  18499297.5014   18499302.7594
  19701262.379   -30788513.04749 -23967725.43249  19701266.6404   19701272.8194
  22219748.377   -12315364.76549  -9223659.72649  22219755.7234   22219761.1034
  20824796.633    -9369120.62549  -7296347.64549  20824801.0414   20824808.0194
  22144508.342   -11501761.07549  -8924322.24049  22144517.1714   22144523.2924
 96  8 14 18 18 29.9940000  0  7 16 28  6 17 22 10 23
  19743430.937   -19589947.23349 -15257113.37249  19743434.1834   19743439.9024
  21790964.533   -16118763.069 9 -12541586.773 9  21790962.805    21790967.594
  18488692.101   -22056960.17149 -17178765.62849  18488696.2894   18488701.6114
  19679030.291   -30905345.01349 -24058763.31149  19679034.1144   19679040.4364
  22194593.565   -12447570.86049  -9326677.43549  22194597.7784   22194603.3594
  20828853.532    -9347806.49749  -7279739.26249  20828856.5194   20828863.7284
  22113836.686   -11662990.03249  -9049955.15849  22113836.4044   22113843.2684
 96  8 14 18 18 59.9940000  0  7 16 28  6 17 22 10 23
  19741397.701   -19600634.03049 -15265440.75749  19741399.3994   19741406.2364
  21762260.654   -16269581.984 9 -12659107.971 9  21762263.141    21762268.443
  18478166.899   -22112277.03749 -17221869.68449  18478169.9734   18478175.0454
  19656855.668   -31021871.85849 -24149563.43149  19656859.7144   19656865.9774
  22169511.889   -12579407.43949  -9429407.20249  22169510.7184   22169516.6414
  20832983.830    -9326100.53949  -7262825.55349  20832986.8554   20832993.8784
  22083171.065   -11824093.28749  -9175490.10849  22083178.5134   22083185.9934
 96  8 14 18 19 29.9940000  0  7 16 28  6 17 22 10 23
  19739467.498   -19610761.71249 -15273332.47849  19739471.6474   19739478.3134
  21733574.430   -16420317.928 9 -12776564.510 9  21733578.989    21733583.755
  18467722.031   -22167161.75249 -17264636.99649  18467725.5514   18467730.8504
  19634742.408   -31138084.39649 -24240118.63549  19634745.2894   19634751.5874
  22144495.167   -12710863.94149  -9531840.81749  22144494.9444   22144501.4334
  20837193.721    -9303977.28349  -7245586.66849  20837197.1474   20837204.6544
  22052551.216   -11985036.82349  -9300900.61649  22052552.4904   22052559.8474
 96  8 14 18 19 59.9940000  0  7 16 28  6 17 22 10 23
  19737653.728   -19620305.42349 -15280769.14849  19737656.7854   19737662.0394
  21704914.250   -16570952.009 9 -12893941.679 9  21704913.944    21704919.344
  18457361.276   -22221604.72949 -17307060.10249  18457365.2724   18457370.7634
  19612691.654   -31253959.68549 -24330411.04949  19612694.9564   19612701.2224
  22119555.170   -12841919.50849  -9633962.00049  22119554.7534   22119562.1544
  20841480.884    -9281442.15949  -7228026.87449  20841485.0994   20841492.0754
  22021960.621   -12145790.60349  -9426163.26349  22021961.4564   22021968.9734
 96  8 14 18 20 29.9940000  0  7 16 28  6 17 22 10 23
  19735946.381   -19629279.00249 -15287761.54549  19735948.9524   19735955.2824
  21676262.032   -16721483.576 9 -13011238.976 9  21676269.088    21676273.905
  18447084.051   -22275612.81349 -17349144.33149  18447087.9834   18447093.3614
  19590704.959   -31369502.27749 -24420444.22049  19590707.8344   19590714.1314
  22094690.591   -12972570.33049  -9735767.82349  22094694.0884   22094699.7134
  20845847.981    -9258495.34549  -7210146.25049  20845851.6854   20845859.1984
  21991410.030   -12306348.87049  -9551273.55649  21991408.0334   21991414.8334
 96  8 14 18 20 59.9940000  0  7 16 28  6 17 22 10 23
  19734341.039   -19637707.02249 -15294328.85149  19734343.8394   19734351.8224
  21647636.192   -16871922.476 9 -13128464.058 9  21647641.138    21647646.746
  18436886.466   -22329200.69249 -17390901.12049  18436890.6404   18436895.7554
  19568773.892   -31484741.35549 -24510240.88549  19568778.4284   19568784.7474
  22069905.349   -13102828.21349  -9837267.44149  22069906.8954   22069913.6804
  20850289.300    -9235159.80849  -7191962.75249  20850292.5994   20850300.9374
  21960886.726   -12466716.61449  -9676235.38849  21960891.2934   21960898.7044
 96  8 14 18 21 29.9940000  0  7 16 28  6 17 22 10 23
  19732842.175   -19645581.88949 -15300465.13449  19732846.4144   19732852.7324
  21619027.705   -17022262.782 9 -13245612.312 9  21619032.164    21619037.563
  18426772.206   -22382349.36649 -17432315.67749  18426776.6474   18426782.0424
  19546906.256   -31599661.70049 -24599789.18849  19546910.0694   19546916.4414
  22045194.961   -13232667.54849  -9938440.93149  22045199.1034   22045205.9464
  20854801.610    -9211454.74749  -7173491.31249  20854803.7134   20854810.1884
  21930403.492   -12626906.29549  -9801058.46749  21930407.7584   21930416.2934
 96  8 14 18 21 59.9940000  0  7 16 28  6 17 22 10 23
  19731447.304   -19652915.16249 -15306179.37349  19731450.6634   19731457.0994
  21590442.409   -17172494.043 9 -13362675.599 9  21590444.002    21590448.956
  18416743.824   -22435052.28249 -17473382.88549  18416747.6714   18416753.0104
  19525097.909   -31714253.68449 -24689081.62849  19525103.7544   19525110.3724
  22020569.642   -13362071.01449 -10039274.75449  22020573.8064   22020580.9594
  20859382.741    -9187369.35249  -7154723.47649  20859387.0154   20859393.2714
  21899957.298   -12786918.50749  -9925743.27349  21899959.3974   21899966.7844
 96  8 14 18 22 29.9930000  0  7 16 28  6 17 22 10 23
  19730151.687   -19659714.73149 -15311477.75249  19730155.6834   19730163.3184
  21561877.879   -17322604.965 9 -13479645.116 9  21561879.195    21561884.023
  18406805.324   -22487285.49149 -17514084.09349  18406808.1334   18406813.1954
  19503356.968   -31828517.27749 -24778118.17749  19503360.0774   19503366.5914
  21996029.216   -13491037.98849 -10139768.47549  21996032.2424   21996037.9244
  20864045.171    -9162873.57649  -7135635.87549  20864049.6174   20864055.4674
  21869539.979   -12946750.79149 -10050287.84949  21869544.0274   21869552.2114
 96  8 14 18 22 59.9930000  0  7 16 28  6 17 22 10 23
  19728957.474   -19665999.28349 -15316374.82549  19728960.8254   19728967.8814
  21533326.531   -17472628.425 9 -13596546.488 9  21533330.472    21533335.194
  18396951.931   -22539063.59949 -17554430.66449  18396954.9574   18396960.2034
  19481667.540   -31942480.56349 -24866920.71849  19481673.6164   19481680.1874
  21971564.163   -13619595.97049 -10239943.49549  21971568.4894   21971574.3614
  20868780.372    -9137997.84249  -7116252.22349  20868782.1424   20868789.2544
  21839152.293   -13106446.26249 -10174725.82249  21839155.3294   21839162.6504
 96  8 14 18 23 29.9930000  0  7 16 28  6 17 22 10 23
  19727860.014   -19671775.00149 -15320875.39749  19727862.5204   19727869.0374
  21504791.456   -17622568.618 9 -13713382.961 9  21504797.820    21504803.022
  18387184.832   -22590392.39149 -17594427.12649  18387187.7654   18387192.8134
  19460037.824   -32056148.98349 -24955493.49249  19460043.1344   19460049.5344
  21947181.045   -13747749.88749 -10339803.65149  21947180.6544   21947187.5424
  20873586.275    -9112731.74149  -7096564.37949  20873590.0664   20873596.6994
  21808787.008   -13266002.73549 -10299055.45949  21808792.1304   21808800.6194
 96  8 14 18 23 59.9930000  0  7 16 28  6 17 22 10 23
  19726845.371   -19677096.82849 -15325022.28749  19726848.3034   19726855.6254
  21476270.408   -17772464.690 9 -13830185.054 9  21476273.383    21476278.608
  18377493.061   -22641314.18649 -17634106.44949  18377497.2854   18377502.6144
  19438456.025   -32169573.40049 -25043876.13049  19438459.0534   19438465.6744
  21922857.735   -13875547.02149 -10439385.81349  21922861.5074   21922869.0384
  20878465.771    -9087100.86649  -7076592.27149  20878467.5784   20878474.1364
  21778449.228   -13425440.55849 -10423292.68049  21778452.4694   21778459.5674
 96  8 14 18 24 29.9930000  0  7 16 28  6 17 22 10 23
  19725914.729   -19681990.14349 -15328835.28449  19725918.5894   19725923.5214
  21447747.327   -17922355.930 9 -13946983.394 9  21447749.988    21447755.431
  18367873.242   -22691867.15349 -17673498.37649  18367877.4484   18367882.7924
  19416908.887   -32282788.14849 -25132095.39149  19416915.0024   19416921.2014
  21898602.713   -14003022.55549 -10538717.37749  21898604.2024   21898611.5074
  20883400.573    -9061161.27449  -7056379.65649  20883404.1244   20883410.3164
  21748126.433   -13584783.46649 -10547455.92149  21748129.5874   21748138.1174
 96  8 14 18 24 59.9930000  0  8 16 28  6 17 22 10 23 26
  19725068.074   -19686447.66149 -15332308.66449  19725071.1444   19725076.7094
  21419221.958   -18072245.124 9 -14063780.139 9  21419226.984    21419232.064
  18358318.235   -22742078.19149 -17712623.86349  18358322.5814   18358327.9404
  19395406.613   -32395792.92749 -25220151.05149  19395410.8154   19395416.9244
  21874410.621   -14130162.08649 -10637787.11449  21874410.5154   21874417.3864
  20888389.820    -9034947.88349  -7035953.65849  20888391.8664   20888398.6604
  21717823.460   -13744030.92849 -10671544.78349  21717826.8724   21717833.6754
  22262229.611     -366216.97059   -266408.65759  22262231.8624   22262238.3464
 96  8 14 18 25 29.9930000  0  8 16 28  6 17 22 10 23 26
  19724301.143   -19690468.58249 -15335441.87849  19724304.1044   19724311.1944
  21390699.027   -18222131.398 9 -14180574.610 9  21390704.392    21390709.644
  18348826.358   -22791961.86549 -17751494.26549  18348829.8974   18348835.3174
  19373943.839   -32508590.11749 -25308044.94949  19373946.3104   19373952.5994
  21850276.856   -14256960.86349 -10736591.31649  21850282.0124   21850288.7754
  20893429.354    -9008460.89049  -7015314.47649  20893431.7404   20893439.2384
  21687533.096   -13903181.67149 -10795558.28849  21687540.8254   21687549.5124
  22235993.484     -504117.03259   -373863.15759  22235990.1124   22235997.6234
 96  8 14 18 25 59.9930000  0  8 16 28  6 17 22 10 23 26
  19723615.260   -19694069.91849 -15338248.13649  19723619.4544   19723624.7314
  21362177.847   -18372030.127 9 -14297378.782 9  21362179.572    21362185.238
  18339393.823   -22841531.23849 -17790119.75649  18339397.0534   18339402.7504
  19352516.060   -32621184.48849 -25395780.80649  19352520.2604   19352526.7874
  21826207.456   -14383436.39649 -10835143.67249  21826215.0564   21826221.1764
  20898515.413    -8981735.33349  -6994489.40649  20898518.2954   20898524.9284
  21657267.835   -14062258.76049 -10919514.38949  21657269.5904   21657276.4054
  22209758.571     -641926.26949   -481246.87149  22209765.1024   22209772.8074
 96  8 14 18 26 29.9930000  0  8 16 28  6 17 22 10 23 26
  19723008.742   -19697260.37649 -15340734.20249  19723012.7754   19723018.8084
  21333652.449   -18521948.945 9 -14414198.609 9  21333650.870    21333656.554
  18330016.938   -22890801.02149 -17828511.79749  18330021.4294   18330026.9484
  19331130.059   -32733571.17549 -25483354.82849  19331133.9214   19331140.2544
  21802203.617   -14509596.16749 -10933449.95849  21802207.3054   21802213.6524
  20903645.923    -8954779.53649  -6973484.90949  20903647.5744   20903654.2824
  21627002.473   -14221279.27749 -11043426.41849  21627008.9574   21627016.2874
  22183551.914     -779656.22049   -588568.86349  22183555.9994   22183563.0294
 96  8 14 18 26 59.9930000  0  8 16 28  6 17 22 10 23 26
  19722481.954   -19700026.10549 -15342889.33149  19722485.4944   19722493.3074
  21305121.927   -18671857.480 9 -14531010.425 9  21305124.160    21305129.863
  18320704.006   -22939746.40149 -17866651.06349  18320707.4194   18320712.8544
  19309787.797   -32845723.41449 -25570746.17049  19309792.1184   19309798.2484
  21778263.706   -14635410.78849 -11031487.31049  21778265.9774   21778271.1384
  20908822.953    -8927555.62149  -6952271.50349  20908827.6644   20908835.1524
  21596758.161   -14380223.69649 -11167279.14949  21596762.3954   21596770.2084
  22157365.947     -917274.66249   -695803.92549  22157367.4004   22157375.4974
 96  8 14 18 27 29.9930000  0  8 16 28  6 17 22 10 23 26
  19722032.448   -19702389.11349 -15344730.67349  19722036.1514   19722042.5964
  21276594.938   -18821765.414 9 -14647821.770 9  21276597.907    21276603.317
  18311451.393   -22988364.22149 -17904535.08049  18311455.8684   18311461.3604
  19288489.001   -32957653.20149 -25657964.17149  19288492.2874   19288498.7964
  21754380.286   -14760908.78549 -11129277.92749  21754384.2614   21754389.8184
  20914056.877    -8900067.51949  -6930852.23149  20914058.8734   20914065.5364
  21566531.257   -14539090.84249 -11291071.65549  21566530.4874   21566538.7614
  22131195.597    -1054788.30249   -802957.31149  22131199.9134   22131207.3924
 96  8 14 18 27 59.9930000  0  8 16 28  6 17 22 10 23 26
  19721650.787   -19704399.85649 -15346297.48049  19721653.4344   19721659.0334
  21248062.472   -18971712.503 9 -14764663.631 9  21248063.617    21248069.043
  18302254.634   -23036691.81949 -17942192.94549  18302259.6464   18302264.9894
  19267222.487   -33069401.51549 -25745040.76749  19267227.4524   19267233.6634
  21730549.882   -14886137.15049 -11226858.45549  21730553.2954   21730559.1434
  20919329.648    -8872365.67149  -6909266.40549  20919330.6714   20919337.4584
  21536305.447   -14697908.90549 -11414825.90949  21536308.9524   21536316.8754
  22105042.364    -1192236.16449   -910059.46349  22105044.4214   22105050.8664
 96  8 14 18 28 29.9930000  0  8 16 28  6 17 22 10 23 26
  19721332.140   -19706062.57849 -15347593.12549  19721337.0844   19721343.7544
  21219518.754   -19121703.861 9 -14881539.988 9  21219521.506    21219527.325
  18293114.124   -23084733.99949 -17979628.41349  18293117.2134   18293122.4164
  19245988.705   -33180989.58249 -25831992.48849  19245992.6604   19245999.2794
  21706769.426   -15011102.40249 -11324233.96749  21706772.9234   21706778.8814
  20924635.510    -8844472.20249  -6887531.26449  20924638.5884   20924645.7284
  21506098.048   -14856684.64449 -11538547.20049  21506095.4524   21506102.0654
  22078893.468    -1329630.95549  -1017120.28449  22078899.4714   22078905.4824
 96  8 14 18 28 59.9930000  0  8 16 28  6 17 22 10 23 26
  19721085.610   -19707372.80949 -15348614.10049  19721088.6364   19721095.0404
  21190969.757   -19271735.451 9 -14998447.693 9  21190971.444    21190977.223
  18284029.981   -23132471.31849 -18016826.32849  18284033.3884   18284038.3364
  19224782.280   -33292431.54149 -25918830.36349  19224786.1174   19224792.4074
  21683042.106   -15135800.77249 -11421401.49049  21683044.2094   21683049.8124
  20929977.665    -8816406.67149  -6865662.05849  20929979.7004   20929986.4604
  21475882.389   -15015409.73949 -11662229.00949  21475890.4674   21475897.4784
  22052761.232    -1466967.84749  -1124135.99849  22052765.8594   22052770.7464
 96  8 14 18 29 29.9930000  0  8 16 28  6 17 22 10 23 26
  19720912.179   -19708272.92449 -15349315.49849  19720916.0674   19720922.5934
  21162415.700   -19421758.044 9 -15115348.385 9  21162422.947    21162428.909
  18275014.801   -23179844.72049 -18053740.67349  18275018.4254   18275023.4854
  19203612.486   -33403679.52149 -26005517.08349  19203616.3284   19203622.4454
  21659369.777   -15260185.82849 -11518324.88449  21659375.2294   21659380.4454
  20935357.303    -8788126.07649  -6843625.24849  20935361.0664   20935367.8274
  21445703.620   -15174029.48849 -11785828.75249  21445705.6224   21445712.5924
  22026641.556    -1604214.51849  -1231081.39449  22026647.7274   22026654.3914
 96  8 14 18 29 59.9930000  0  8 16 28  6 17 22 10 23 26
  19720828.987   -19708716.73349 -15349661.33349  19720832.3334   19720838.0604
  21133880.857   -19571729.806 9 -15232209.468 9  21133884.331    21133890.181
  18266077.132   -23226805.43049 -18090333.43549  18266081.9854   18266086.9044
  19182487.556   -33514693.30249 -26092021.31249  19182491.2704   19182497.3424
  21635773.232   -15384203.50349 -11614962.00349  21635774.4224   21635780.7574
  20940788.562    -8759586.44249  -6821386.61549  20940791.0064   20940798.9794
  21415541.547   -15332521.81749 -11909329.19649  21415545.7944   21415554.1994
  22000553.995    -1741326.85949  -1337922.11349  22000554.6624   22000562.0134
 96  8 14 18 30 29.9930000  0  8 16 28  6 17 22 10 23 26
  19720822.758   -19708749.94949 -15349687.22549  19720826.3934   19720832.9994
  21105339.906   -19721703.337 9 -15349071.932 9  21105345.505    21105351.287
  18257209.699   -23273409.86449 -18126648.58449  18257213.3924   18257218.7024
  19161396.645   -33625525.17949 -26178383.79649  19161400.6114   19161406.7014
  21612232.319   -15507895.47749 -11711345.33049  21612236.8514   21612242.7484
  20946263.372    -8730828.62249  -6798977.96349  20946264.5754   20946271.7344
  21385398.314   -15490943.05949 -12032774.26149  21385398.9294   21385407.5884
  21974477.700    -1878345.50449  -1444689.82549  21974481.7664   21974487.0544
 96  8 14 18 30 59.9930000  0  8 16 28  6 17 22 10 23 26
  19720889.290   -19708403.15449 -15349417.01349  19720891.5724   19720898.0624
  21076804.279   -19871686.434 9 -15465941.848 9  21076804.667    21076809.934
  18248402.243   -23319690.74949 -18162711.61349  18248406.1284   18248411.7004
  19140342.000   -33736172.21149 -26264602.24449  19140345.3244   19140351.3194
  21588766.678   -15631262.38249 -11807475.36849  21588761.7174   21588766.5744
  20951780.545    -8701828.50949  -6776380.50949  20951782.3544   20951790.1944
  21355258.641   -15649291.03549 -12156162.24149  21355267.3804   21355274.1084
  21948423.568    -2015262.01249  -1551377.93549  21948427.2744   21948434.9364
 96  8 14 18 31 29.9930000  0  8 16 28  6 17 22 10 23 26
  19721028.281   -19707663.61849 -15348840.76049  19721032.8364   19721038.5454
  21048259.641   -20021656.545 9 -15582801.652 9  21048265.943    21048271.663
  18239657.963   -23365643.82549 -18198519.20449  18239661.9784   18239667.2024
  19119327.034   -33846601.08649 -26350650.69649  19119331.1924   19119337.3294
  21565350.710   -15754283.83049 -11903336.21549  21565350.6314   21565356.9284
  20957352.172    -8672552.01549  -6753567.68949  20957354.0614   20957361.4094
  21325152.680   -15807539.68349 -12279472.81249  21325152.8624   21325160.2594
  21922392.808    -2152049.28349  -1657965.38949  21922397.8274   21922404.2934
 96  8 14 18 31 59.9930000  0  8 16 28  6 17 22 10 23 26
  19721247.409   -19706518.83749 -15347948.72249  19721250.6464   19721257.3384
  21019732.858   -20171586.749 9 -15699630.343 9  21019735.094    21019740.952
  18230979.003   -23411258.32349 -18234062.97749  18230981.9344   18230987.1474
  19098359.791   -33956787.98249 -26436510.59749  19098363.4104   19098369.5764
  21542009.346   -15876928.55149 -11998903.50149  21542011.7754   21542018.4704
  20962980.326    -8642971.03749  -6730517.60049  20962982.9154   20962989.4874
  21295061.622   -15965664.29649 -12402686.73149  21295063.1504   21295070.1834
  21896399.309    -2288665.30249  -1764419.30949  21896401.4714   21896408.5484
 96  8 14 18 32 29.9930000  0  8 16 28  6 17 22 10 23 26
  19721536.625   -19704996.23249 -15346762.30949  19721539.7944   19721546.8044
  20991206.998   -20321481.491 9 -15816431.403 9  20991211.409    20991216.942
  18222358.149   -23456557.26649 -18269360.85849  18222361.7384   18222367.1354
  19077437.612   -34066734.78149 -26522183.40749  19077441.0434   19077447.4994
  21518741.848   -15999205.61849 -12094184.30449  21518743.3754   21518749.5884
  20968664.309    -8613101.06449  -6707242.32149  20968667.0364   20968674.6524
  21264997.584   -16123655.09049 -12525796.40249  21264998.8584   21265006.0474
  21870431.278    -2425117.07549  -1870745.37449  21870433.7854   21870441.2104
 96  8 14 18 32 59.9930000  0  8 16 28  6 17 22 10 23 26
  19721897.071   -19703105.86549 -15345289.28849  19721900.4634   19721906.1964
  20962691.999   -20471334.705 9 -15933200.110 9  20962695.284    20962700.713
  18213800.549   -23501525.95049 -18304401.39949  18213804.3334   18213809.4194
  19056562.789   -34176440.36749 -26607668.26649  19056564.8574   19056571.1794
  21495545.280   -16121120.49249 -12189182.87549  21495543.8424   21495549.3374
  20974397.868    -8582963.89649  -6683758.86549  20974402.1434   20974408.6994
  21234955.005   -16281509.12849 -12648799.49149  21234961.0004   21234967.7464
  21844494.349    -2561413.40349  -1976950.27949  21844498.3504   21844504.6784
 96  8 14 18 33 29.9930000  0  8 16 28  6 17 22 10 23 26
  19722331.395   -19700816.90949 -15343505.70049  19722335.0834   19722342.0334
  20934186.525   -20621136.109 9 -16049928.444 9  20934189.114    20934193.763
  18205314.626   -23546122.39449 -18339151.87849  18205318.3194   18205323.2114
  19035731.450   -34285898.27049 -26692960.12349  19035735.7224   19035741.8514
  21472414.685   -16242659.46549 -12283888.56049  21472415.5294   21472420.8524
  20980178.690    -8552582.69049  -6660085.21949  20980183.3464   20980189.9054
  21204941.233   -16439226.79549 -12771696.32749  21204946.4254   21204954.3914
  21818586.852    -2697556.49149  -2083035.76949  21818591.2864   21818596.8524
 96  8 14 18 33 59.9930000  0  8 16 28  6 17 22 10 23 26
  19722842.738   -19698137.45149 -15341417.82849  19722845.5534   19722852.1084
  20905689.583   -20770898.702 9 -16166626.551 9  20905690.059    20905695.183
  18196896.175   -23590350.05449 -18373614.99249  18196901.9124   18196907.0064
  19014948.303   -34395118.91349 -26778067.10249  19014951.7284   19014958.1004
  21449355.158   -16363822.59449 -12378301.34749  21449358.9134   21449365.8694
  20986007.398    -8521980.99849  -6636239.76449  20986006.8824   20986013.5614
  21174959.410   -16596823.10549 -12894498.60149  21174956.1824   21174964.8334
  21792700.338    -2833562.57849  -2189014.45549  21792710.5844   21792716.0244
 96  8 14 18 34 29.9930000  0  8 16 28  6 17 22 10 23 26
  19723427.976   -19695057.54449 -15339017.90249  19723431.5754   19723437.0834
  20877196.526   -20920620.874 9 -16283293.148 9  20877198.700    20877204.078
  18188554.921   -23634196.47349 -18407781.04149  18188558.5324   18188563.7144
  18994210.523   -34504097.86049 -26862985.74849  18994214.1644   18994220.0344
  21426373.418   -16484607.80949 -12472419.67949  21426373.9814   21426380.3574
  20991863.755    -8491176.65449  -6612236.44249  20991868.6644   20991875.4284
  21144990.613   -16754285.68949 -13017196.68049  21144993.7694   21145000.3204
  21766855.176    -2969431.36249  -2294886.17249  21766854.3264   21766860.8094
 96  8 14 18 34 59.9930000  0  8 16 28  6 17 22 10 23 26
  19724101.363   -19691519.84949 -15336261.25849  19724104.7544   19724111.3874
  20848719.415   -21070274.190 9 -16399906.086 9  20848720.489    20848726.044
  18180290.316   -23677624.93249 -18441621.39949  18180294.2654   18180299.2284
  18973523.082   -34612808.51049 -26947695.32649  18973527.2104   18973532.8804
  21403464.150   -16604980.99949 -12566216.96549  21403468.2044   21403474.1194
  20997771.231    -8460150.87949  -6588060.52149  20997772.7624   20997779.0004
  21115056.131   -16911586.06949 -13139768.35249  21115059.4804   21115067.4034
  21741024.845    -3105133.75749  -2400628.25449  21741032.2984   21741038.2434
 96  8 14 18 35 29.9930000  0  8 16 28  6 17 22 10 23 26
  19724859.518   -19687534.32449 -15333155.66949  19724863.1904   19724870.1654
  20820246.040   -21219876.348 9 -16516479.169 9  20820251.952    20820257.166
  18172100.506   -23720663.38749 -18475157.85849  18172104.2554   18172109.2084
  18952882.043   -34721267.87649 -27032209.09849  18952887.4784   18952893.6314
  21380633.752   -16724954.37249 -12659702.68549  21380637.6584   21380644.2434
  21003712.704    -8428917.65749  -6563722.97449  21003715.7774   21003723.4594
  21085150.477   -17068729.69349 -13262217.87449  21085156.8184   21085163.5474
  21715230.515    -3240681.69149  -2506249.98249  21715236.4084   21715243.2334
 96  8 14 18 35 59.9930000  0  8 16 28  6 17 22 10 23 26
  19725701.889   -19683104.93749 -15329704.21749  19725705.7454   19725711.7154
  20791795.283   -21369410.491 9 -16632999.255 9  20791796.608    20791802.161
  18163983.486   -23763316.50549 -18508394.06049  18163987.6854   18163992.7164
  18932291.584   -34829474.60149 -27116526.01149  18932296.1174   18932302.7004
  21357881.544   -16844522.02449 -12752872.25549  21357885.2314   21357891.2794
  21009699.356    -8397461.88149  -6539212.01149  21009702.6864   21009708.5574
  21055285.184   -17225696.36949 -13384529.52549  21055286.1344   21055293.7054
  21689474.852    -3376039.93849  -2611723.89649  21689478.6784   21689485.7054
 96  8 14 18 36 29.9920000  0  8 16 28  6 17 22 10 23 26
  19726631.851   -19678227.28849 -15325903.44849  19726634.8034   19726640.1964
  20763357.164   -21518843.660 9 -16749440.659 9  20763360.757    20763366.470
  18155946.151   -23805558.32449 -18541309.77449  18155949.5134   18155954.4614
  18911753.334   -34937412.46549 -27200633.42649  18911756.6904   18911762.5834
  21335211.422   -16963670.49649 -12845715.20649  21335212.6774   21335217.1134
  21015731.346    -8365765.22249  -6514513.36449  21015734.4124   21015740.4514
  21025456.226   -17382453.47749 -13506677.87549  21025456.6334   21025464.5344
  21663761.735    -3511158.45849  -2717011.00949  21663766.7574   21663773.9864
 96  8 14 18 36 59.9920000  0  8 16 28  6 17 22 10 23 26
  19727639.329   -19672936.71249 -15321780.92649  19727641.3684   19727648.2144
  20734938.658   -21668189.578 9 -16865814.061 9  20734941.089    20734946.720
  18147985.150   -23847399.30249 -18573913.13349  18147987.2454   18147992.2534
  18891260.529   -35045097.40649 -27284543.75249  18891264.9864   18891270.8064
  21312615.494   -17082411.12449 -12938240.35249  21312615.5724   21312621.5144
  21021809.814    -8333821.20549  -6489621.93549  21021812.9514   21021819.5824
  20995655.695   -17539031.02849 -13628686.30949  20995661.0874   20995667.2404
  21638094.777    -3646050.61549  -2822121.68349  21638098.0764   21638105.5984
 96  8 14 18 37 29.9920000  0  8 16 28  6 17 22 10 23 26
  19728708.814   -19667297.99349 -15317387.14749  19728713.5294   19728720.7754
  20706530.637   -21817455.859 9 -16982125.426 9  20706536.778    20706542.401
  18140095.996   -23888846.85349 -18606209.93349  18140099.8344   18140105.0734
  18870813.614   -35152549.73049 -27368272.82249  18870817.6544   18870823.3364
  21290087.402   -17200758.76649 -13030459.28149  21290094.9424   21290101.3344
  21027935.526    -8301628.92749  -6464537.07349  21027939.3924   21027946.1734
  20965893.072   -17695443.85549 -13750566.39749  20965896.6284   20965903.5014
  21612466.979    -3780715.50749  -2927055.33749  21612472.3784   21612478.1054
 96  8 14 18 37 59.9920000  0  8 16 28  6 17 22 10 23 26
  19729844.992   -19661340.87849 -15312745.24249  19729848.1384   19729853.4034
  20678141.870   -21966654.681 9 -17098384.225 9  20678145.007    20678150.529
  18132280.915   -23929912.65749 -18638209.26649  18132285.3974   18132290.1414
  18850407.275   -35259780.01649 -27451828.88149  18850412.4214   18850418.0674
  21267643.547   -17318731.05349 -13122385.72049  21267646.3254   21267652.4924
  21034108.913    -8269187.52449  -6439258.10549  21034112.6834   21034118.7354
  20936156.861   -17851720.28049 -13872340.18049  20936158.1054   20936164.6044
  21586885.220    -3915156.69449  -3031814.67749  21586887.3814   21586895.2414
 96  8 14 18 38 29.9920000  0  8 16 28  6 17 22 10 23 26
  19731037.543   -19655073.86049 -15307861.85749  19731039.8974   19731046.6994
  20649762.139   -22115798.512 9 -17214600.185 9  20649764.028    20649769.515
  18124538.308   -23970601.20049 -18669914.63349  18124542.2704   18124547.1684
  18830046.086   -35366788.02849 -27535211.73849  18830049.1844   18830054.8734
  21245270.283   -17436326.87449 -13214018.80449  21245269.1584   21245273.8454
  21040330.094    -8236499.57149  -6413786.99749  21040332.5094   21040339.4334
  20906436.962   -18007870.06249 -13994015.29749  20906444.8594   20906449.4154
  21561336.000    -4049408.05249  -3136426.07349  21561341.4844   21561348.5754
 96  8 14 18 38 59.9920000  0  8 16 28  6 17 22 10 23 26
  19732284.994   -19648513.72549 -15302750.09249  19732288.6094   19732294.6094
  20621382.010   -22264924.407 9 -17330802.157 9  20621386.098    20621392.095
  18116859.383   -24010957.53749 -18701361.13549  18116863.2744   18116868.0674
  18809716.883   -35473608.30049 -27618448.30149  18809722.0034   18809727.7194
  21222953.599   -17553563.29449 -13305371.84649  21222958.9864   21222965.5164
  21046590.458    -8203596.36549  -6388148.16349  21046594.1924   21046600.5364
  20876743.446   -18163937.13649 -14115625.95449  20876746.2574   20876751.5204
  21535814.766    -4183527.75449  -3240934.88449  21535820.3124   21535825.4244
 96  8 14 18 39 29.9920000  0  8 16 28  6 17 22 10 23 26
  19733592.625   -19641645.14249 -15297397.93649  19733595.8814   19733601.7304
  20593005.815   -22414055.429 9 -17447008.124 9  20593007.181    20593013.498
  18109236.819   -24051017.44749 -18732576.65949  18109240.1174   18109244.6624
  18789423.796   -35580260.21249 -27701553.67649  18789426.6884   18789432.5204
  21200707.570   -17670470.73649 -13396468.53249  21200711.4574   21200717.0234
  21052889.323    -8170506.21349  -6362363.66949  21052891.3004   21052897.9764
  20847059.819   -18319930.14349 -14237178.91249  20847061.6554   20847067.5564
  21510316.170    -4317529.45349  -3345351.75149  21510319.3824   21510325.2324
 96  8 14 18 39 59.9920000  0  8 16 28  6 17 22 10 23 26
  19734968.536   -19634414.30549 -15291763.55649  19734971.8294   19734978.6184
  20564623.345   -22563186.006 9 -17563213.742 9  20564628.241    20564634.453
  18101666.739   -24090786.28049 -18763565.36549  18101672.2934   18101677.3104
  18769160.571   -35686733.74449 -27784520.04849  18769165.5584   18769171.5044
  21178525.255   -17787036.84949 -13487299.24049  21178529.8874   21178536.4474
  21059217.700    -8137243.92449  -6336445.02749  21059220.1864   21059227.7854
  20817391.716   -18475837.69049 -14358665.26549  20817393.3274   20817399.3044
  21484834.500    -4451413.48549  -3449676.93349  21484842.9874   21484848.4704
 96  8 14 18 40 29.9920000  0  8 16 28  6 17 22 10 23 26
  19736417.999   -19626801.84349 -15285831.76149  19736420.5254   19736425.9894
  20536245.341   -22712306.220 9 -17679411.287 9  20536251.512    20536257.528
  18094156.898   -24130260.54549 -18794324.53249  18094160.3184   18094165.4354
  18748934.408   -35793030.30649 -27867348.52749  18748937.7964   18748943.7904
  21156410.977   -17903247.39949 -13577852.91449  21156416.1554   21156422.1334
  21065578.460    -8103824.90449  -6310404.28149  21065580.5534   21065586.6764
  20787737.403   -18631639.28849 -14480069.06449  20787745.7464   20787750.8864
  21459388.382    -4585173.79449  -3553905.71249  21459390.0584   21459394.2254
 96  8 14 18 40 59.9920000  0  8 16 28  6 17 22 10 23 26
  19737943.935   -19618766.98849 -15279570.84949  19737948.4894   19737956.1024
  20507880.366   -22861368.356 9 -17795563.575 9  20507886.194    20507892.066
  18086707.790   -24169403.53849 -18824825.57149  18086711.7194   18086717.1284
  18728749.790   -35899101.28649 -27950001.22749  18728753.4154   18728759.4234
  21134371.641   -18019069.33249 -13668103.74749  21134375.3924   21134382.1064
  21071969.690    -8070216.72849  -6284216.13449  21071974.2524   21071981.8314
  20758127.250   -18787283.48149 -14601350.19649  20758127.4004   20758133.2404
  21433966.834    -4718739.08449  -3657982.51349  21433972.4974   21433977.7634
 96  8 14 18 41 29.9920000  0  8 16 28  6 17 22 10 23 26
  19739548.569   -19610350.46249 -15273012.54749  19739551.8334   19739558.1854
  20479523.747   -23010389.911 9 -17911684.249 9  20479528.364    20479533.922
  18079322.990   -24208215.14949 -18855068.39049  18079325.9474   18079331.4414
  18708605.047   -36004961.04949 -28032489.34149  18708608.8344   18708614.8184
  21112402.533   -18134530.19749 -13758073.24149  21112404.3824   21112410.2234
  21078399.630    -8036446.79149  -6257901.94049  21078401.4914   21078408.5844
  20728534.002   -18942771.08849 -14722509.31649  20728538.4154   20728544.9344
  21408590.152    -4852117.29849  -3761913.54649  21408591.9384   21408597.1574
 96  8 14 18 41 59.9920000  0  8 16 28  6 17 22 10 23 26
  19741205.991   -19601627.35449 -15266215.33449  19741210.2054   19741216.3974
  20451166.002   -23159409.077 9 -18027803.069 9  20451171.004    20451176.320
  18071996.626   -24246711.33749 -18885065.42949  18072000.5574   18072005.9494
  18688493.395   -36110649.75049 -28114844.16149  18688496.8544   18688502.7494
  21090497.440   -18249654.73049 -13847780.65549  21090496.6844   21090504.1914
  21084842.719    -8002570.81249  -6231505.11849  21084847.0494   21084854.9014
  20698969.017   -19098152.85649 -14843585.96949  20698970.0934   20698977.4194
  21383231.926    -4985359.45149  -3865738.58149  21383236.2414   21383241.6894
 96  8 14 18 42 29.9920000  0  8 16 28  6 17 22 10 23 26
  19742923.245   -19592606.60349 -15259186.18449  19742927.0464   19742934.4184
  20422817.767   -23308395.171 9 -18143896.113 9  20422819.782    20422825.595
  18064738.172   -24284857.20149 -18914789.48349  18064741.7784   18064746.8564
  18668423.366   -36216125.38049 -28197032.95749  18668425.9154   18668431.4284
  21068659.013   -18364405.26249 -13937196.62549  21068660.3194   21068667.5424
  21091317.593    -7968561.79749  -6205004.62349  21091318.3554   21091326.0814
  20669423.378   -19253400.37649 -14964558.01649  20669427.5214   20669433.9764
  21357909.940    -5118432.43849  -3969431.78249  21357913.2714   21357919.7834
 96  8 14 18 42 59.9920000  0  8 16 28  6 17 22 10 23 26
  19744697.262   -19583289.45149 -15251926.09449  19744700.2294   19744707.9354
  20394476.272   -23457333.172 9 -18259951.680 9  20394477.855    20394483.212
  18057553.215   -24322617.20349 -18944212.87249  18057556.6724   18057561.3234
  18648394.965   -36321364.67749 -28279037.59349  18648399.2464   18648405.2494
  21046897.859   -18478763.39849 -14026306.85849  21046899.0664   21046905.6904
  21097815.020    -7934407.49849  -6178390.94449  21097818.5404   21097826.1444
  20639907.946   -19408508.12049 -15085421.14849  20639911.6024   20639917.9014
  21332622.230    -5251323.32849  -4072983.07049  21332625.6784   21332631.3314
 96  8 14 18 43 29.9920000  0  8 16 28  6 17 22 10 23 26
  19746526.800   -19573684.18249 -15244441.48849  19746528.6034   19746534.4704
  20366138.974   -23606231.342 9 -18375976.206 9  20366143.081    20366148.777
  18050440.114   -24359988.06949 -18973333.03449  18050444.7674   18050449.8464
  18628409.578   -36426390.63449 -28360875.99049  18628413.5044   18628419.4224
  21025210.170   -18592724.82649 -14115107.96149  21025212.1324   21025218.5794
  21104339.189    -7900119.79649  -6151673.29449  21104343.2884   21104350.7434
  20610415.612   -19563496.22149 -15206191.05749  20610418.3184   20610424.2034
  21307362.873    -5384049.18249  -4176405.76849  21307367.8294   21307374.8054
 96  8 14 18 43 59.9920000  0  8 16 28  6 17 22 10 23 26
  19748414.810   -19563756.84149 -15236705.90249  19748416.8924   19748424.4374
  20337819.316   -23755058.250 9 -18491945.201 9  20337822.930    20337827.926
  18043404.849   -24396961.93349 -19002143.84749  18043408.8934   18043414.1774
  18608468.661   -36531182.35049 -28442531.86549  18608472.0914   18608478.3454
  21003604.063   -18706260.70849 -14203577.47149  21003606.8554   21003613.8924
  21110893.596    -7865674.74949  -6124833.03549  21110898.0074   21110905.5634
  20580945.519   -19718355.50449 -15326860.58849  20580949.4124   20580955.7794
  21282146.010    -5516568.21649  -4279667.27549  21282150.1474   21282156.9274
 96  8 14 18 44 29.9920000  0  8 16 28  6 17 22 10 23 26
  19750366.564   -19553488.47549 -15228704.61249  19750370.9594   19750378.6094
  20309516.026   -23903791.227 9 -18607841.014 9  20309519.830    20309524.865
  18036445.203   -24433531.70249 -19030639.77849  18036449.6594   18036454.8684
  18588575.540   -36635725.81449 -28523994.30149  18588578.4464   18588584.2774
  20982081.888   -18819363.47749 -14291709.47549  20982084.5474   20982091.4964
  21117487.081    -7831042.46149  -6097846.89049  21117488.8924   21117495.8304
  20551506.944   -19873058.70249 -15447408.49749  20551510.4414   20551516.3654
  21256975.103    -5648848.87449  -4382743.07949  21256978.0194   21256984.6894
 96  8 14 18 44 59.9920000  0  8 16 28  6 17 22 10 23 26
  19752386.920   -19542874.26349 -15220433.81149  19752391.0224   19752397.9524
  20281231.740   -24052426.785 9 -18723660.907 9  20281235.644    20281240.338
  18029564.032   -24469694.13249 -19058818.30249  18029568.2724   18029573.8294
  18568724.568   -36740030.70549 -28605270.82849  18568729.6484   18568735.7894
  20960639.004   -18932047.67149 -14379515.34949  20960641.3714   20960648.2394
  21124115.333    -7796209.83449  -6070704.63449  21124117.4934   21124123.5134
  20522101.905   -20027596.76549 -15567827.72949  20522102.4884   20522109.6074
  21231851.139    -5780882.93649  -4485626.72449  21231854.0584   21231860.0354
 96  8 14 18 45 29.9920000  0  8 16 28  6 17 22 10 23 26
  19754473.342   -19531913.57249 -15211893.03949  19754477.2134   19754483.4524
  20252969.696   -24200957.895 9 -18839399.419 9  20252971.229    20252975.663
  18022757.227   -24505466.94449 -19086693.22949  18022761.2414   18022766.3774
  18548923.177   -36844090.99549 -28686356.75849  18548927.4494   18548933.7774
  20939272.133   -19044313.89049 -14466995.49449  20939277.4814   20939284.8014
  21130785.269    -7761165.35749  -6043397.29649  21130785.7264   21130792.9884
  20492728.317   -20181950.53849 -15688103.34649  20492730.0374   20492735.8244
  21206774.614    -5912660.79449  -4588310.70949  21206777.2914   21206782.2284
 96  8 14 18 45 59.9920000  0  8 16 28  6 17 22 10 23 26
  19756619.775   -19520640.28149 -15203108.66649  19756622.3444   19756629.0254
  20224722.230   -24349403.558 9 -18955071.346 9  20224722.636    20224727.356
  18016018.562   -24540880.93549 -19114288.55449  18016022.2924   18016027.4094
  18529165.422   -36947912.85749 -28767256.90249  18529170.8914   18529177.1714
  20917978.969   -19156192.90249 -14554173.92249  20917988.2214   20917995.2594
  21137486.999    -7725931.36649  -6015942.27449  21137490.2524   21137497.8304
  20463386.984   -20336120.14849 -15808235.47849  20463392.6664   20463398.6854
  21181741.020    -6044204.17949  -4690812.01949  21181744.9044   21181751.6494
 96  8 14 18 46 29.9920000  0  8 16 28  6 17 22 10 23 26
  19758829.445   -19509027.63249 -15194059.87449  19758833.2254   19758838.8154
  20196492.953   -24497743.020 9 -19070660.516 9  20196494.640    20196499.413
  18009351.002   -24575914.57349 -19141587.50049  18009355.3034   18009360.6184
  18509460.646   -37051471.38749 -28847951.86049  18509464.4904   18509470.2054
  20896774.400   -19267662.59349 -14641033.42649  20896777.1134   20896782.3444
  21144234.937    -7690481.66449  -5988319.16449  21144236.4724   21144243.4484
  20434094.576   -20490061.43949 -15928189.69349  20434098.4974   20434105.2184
  21156755.896    -6175500.52049  -4793120.80649  21156760.0714   21156766.7134
 96  8 14 18 46 59.9920000  0  8 16 28  6 17 22 10 23 26
  19761108.906   -19497045.08449 -15184722.84549  19761112.3944   19761119.4744
  20168287.806   -24645964.589 9 -19186157.821 9  20168289.292    20168293.927
  18002757.269   -24610566.79749 -19168589.24249  18002761.2714   18002766.5884
  18489804.220   -37154766.12649 -28928441.26249  18489808.2364   18489813.9234
  20875645.086   -19378699.19749 -14727555.42949  20875647.2864   20875652.9754
  21151019.431    -7654812.80449  -5960525.28949  21151024.4274   21151030.7854
  20404844.582   -20643759.90349 -16047954.68949  20404850.1484   20404856.8244
  21131819.292    -6306541.53649  -4895230.63649  21131823.6814   21131829.3764
 96  8 14 18 47 29.9920000  0  8 16 28  6 17 22 10 23 26
  19763465.635   -19484659.78749 -15175072.00049  19763469.1254   19763475.8864
  20140108.636   -24794044.506 9 -19301544.758 9  20140110.302    20140115.136
  17996239.563   -24644827.99149 -19195286.28749  17996241.2944   17996246.6674
  18470200.143   -37257789.99449 -29008719.59449  18470203.3494   18470209.1674
  20854604.864   -19489275.39749 -14813718.71349  20854604.9684   20854610.4624
  21157850.985    -7618926.65349  -5932562.06649  21157852.9604   21157859.2044
  20375649.836   -20797195.73149 -16167515.04649  20375653.2644   20375658.9154
  21106937.207    -6437305.07549  -4997124.29749  21106941.1254   21106945.7574
 96  8 14 18 47 59.9920000  0  8 16 28  6 17 22 10 23 26
  19765899.502   -19471880.85549 -15165114.38049  19765901.2954   19765907.8304
  20111954.277   -24942000.192 9 -19416834.888 9  20111955.154    20111960.462
  17989789.488   -24678714.14349 -19221691.09449  17989792.8964   17989798.4884
  18450640.404   -37360573.80049 -29088810.86249  18450644.2144   18450650.1644
  20833646.292   -19599408.64749 -14899536.81849  20833647.7904   20833653.1004
  21164716.681    -7582845.93249  -5904447.25449  21164719.2374   21164726.0594
  20346496.109   -20950398.20449 -16286893.55749  20346499.5834   20346505.5644
  21082102.336    -6567806.27049  -5098813.49049  21082107.4514   21082112.4444
 96  8 14 18 48 29.9920000  0  8 16 28  6 17 22 10 23 26
  19768408.326   -19458681.70949 -15154829.39849  19768412.5364   19768419.3404
  20083823.516   -25089813.416 9 -19532014.003 9  20083827.320    20083832.359
  17983417.157   -24712198.90749 -19247783.13549  17983421.6084   17983426.8704
  18431127.931   -37463108.11849 -29168707.73149  18431132.5714   18431138.3514
  20812770.202   -19709081.42849 -14984996.12349  20812777.0134   20812784.0194
  21171620.716    -7546550.03149  -5876164.76749  21171625.8524   21171633.0594
  20317387.686   -21103364.59549 -16406088.11349  20317390.8094   20317396.9504
  21057323.762    -6698020.18449  -5200278.84049  21057327.2634   21057334.7724
 96  8 14 18 48 59.9920000  0  8 16 28  6 17 22 10 23 26
  19771000.675   -19445071.46049 -15144224.00349  19771003.0114   19771009.1204
  20055725.949   -25237470.013 9 -19647071.078 9  20055729.096    20055734.401
  17977128.288   -24745258.39349 -19273543.79049  17977130.5834   17977135.8164
  18411667.501   -37565370.47849 -29248392.68349  18411672.5364   18411678.7074
  20791996.018   -19818286.08049 -15070090.65449  20791996.8654   20792002.3464
  21178571.951    -7510039.10949  -5847714.73649  21178573.3864   21178581.0134
  20288325.345   -21256095.11449 -16525098.88649  20288327.3764   20288333.1274
  21032603.818    -6827928.35949  -5301505.95749  21032607.2164   21032614.3644
 96  8 14 18 49 29.9910000  0  8 16 28  6 17 22 10 23 26
  19773664.547   -19431065.03449 -15133309.94249  19773668.1194   19773675.0454
  20027658.976   -25384954.589 9 -19761994.108 9  20027664.054    20027669.224
  17970920.707   -24777866.12049 -19298952.42249  17970925.4784   17970930.7824
  18392269.043   -37667318.23149 -29327832.48349  18392272.7194   18392278.6244
  20771305.169   -19927013.72849 -15154813.48049  20771306.1544   20771312.5064
  21185562.843    -7473306.88449  -5819092.27249  21185563.0364   21185571.1314
  20259307.275   -21408577.70949 -16643916.45549  20259310.4884   20259316.4674
  21007942.984    -6957508.70549  -5402477.63149  21007947.4784   21007955.0604
 96  8 14 18 49 59.9910000  0  8 16 28  6 17 22 10 23 26
  19776403.989   -19416678.57249 -15122099.73149  19776406.6234   19776411.3124
  19999625.409   -25532272.312 9 -19876787.122 9  19999630.544    19999635.798
  17964804.203   -24810003.47049 -19323994.52749  17964809.7634   17964814.7994
  18372933.155   -37768927.20749 -29407008.30849  18372937.4124   18372942.9964
  20750708.238   -20035252.46249 -15239155.34349  20750709.2924   20750715.3534
  21192594.333    -7436337.65049  -5790285.14749  21192598.4474   21192605.4994
  20230334.446   -21560818.39149 -16762545.52049  20230339.9824   20230346.3984
  20983348.288    -7086767.81149  -5503198.97849  20983350.6224   20983358.0174
 96  8 14 18 50 29.9910000  0  8 16 28  6 17 22 10 23 26
  19779204.418   -19401951.86449 -15110624.38249  19779207.7584   19779213.9204
  19971621.323   -25679445.458 9 -19991467.486 9  19971624.353    19971629.442
  17958774.208   -24841697.59849 -19348691.25349  17958778.4844   17958784.2334
  18353660.534   -37870206.62249 -29485927.33249  18353664.3944   18353670.0664
  20730195.721   -20143008.58649 -15323121.16349  20730204.0934   20730209.7184
  21199666.197    -7399169.17949  -5761322.73649  21199670.9184   21199679.7934
  20201408.412   -21712831.63949 -16880997.37749  20201412.8074   20201418.9734
  20958808.675    -7215729.64449  -5603688.68449  20958810.6384   20958817.4054
 96  8 14 18 50 59.9910000  0  8 16 28  6 17 22 10 23 26
  19782065.068   -19386922.53049 -15098913.23049  19782068.6744   19782075.2884
  19943636.079   -25826500.712 9 -20106055.981 9  19943640.773    19943645.774
  17952820.469   -24872990.80649 -19373075.58449  17952823.5834   17952828.7214
  18334444.693   -37971187.35049 -29564613.61149  18334448.4094   18334454.1154
  20709789.052   -20250293.73549 -15406719.96949  20709787.9354   20709794.7934
  21206774.146    -7361840.43849  -5732235.45349  21206775.8564   21206782.1134
  20172523.231   -21864635.67449 -16999286.20149  20172524.9864   20172531.4184
  20934316.035    -7344420.97749  -5703967.59249  20934320.9454   20934327.4984
 96  8 14 18 51 29.9910000  0  8 16 28  6 17 22 10 23 26
  19784986.684   -19371567.36849 -15086948.21149  19784989.9654   19784996.2794
  19915678.199   -25973424.390 9 -20220541.952 9  19915682.127    19915687.405
  17946940.674   -24903881.46449 -19397146.24249  17946945.2694   17946950.4924
  18315283.768   -38071873.93149 -29643070.68149  18315288.2924   18315294.1444
  20689461.128   -20357089.13649 -15489937.16749  20689465.8354   20689471.2674
  21213912.182    -7324331.19849  -5703007.51749  21213913.7134   21213920.1364
  20143679.767   -22016211.88749 -17117397.50649  20143681.3924   20143687.5564
  20909882.056    -7472832.72449  -5804028.66149  20909885.5754   20909891.6144
 96  8 14 18 51 59.9910000  0  8 16 28  6 17 22 10 23 26
  19787971.870   -19355888.32049 -15074730.77749  19787974.2464   19787980.2634
  19887743.109   -26120228.128 9 -20334934.466 9  19887746.182    19887751.328
  17941136.559   -24934393.53049 -19420921.88549  17941139.2644   17941144.6064
  18296171.348   -38172307.07149 -29721330.26749  18296176.5954   18296182.4764
  20669230.674   -20463406.27149 -15572781.68249  20669234.3824   20669240.3524
  21221081.842    -7286651.63349  -5673646.85349  21221083.1144   21221089.8404
  20114876.207   -22167570.55549 -17235339.28249  20114878.3764   20114885.2084
  20885496.667    -7600969.00949  -5903875.10349  20885501.6814   20885508.5864
 96  8 14 18 52 29.9910000  0  8 16 28  6 17 22 10 23 26
  19791019.474   -19339853.26749 -15062235.97849  19791024.9154   19791031.8324
  19859830.110   -26266894.404 9 -20449219.865 9  19859836.165    19859841.711
  17935402.462   -24964524.85149 -19444400.85549  17935405.7244   17935410.7754
  18277107.170   -38272492.45349 -29799396.79549  18277111.4474   18277117.9474
  20649092.561   -20569251.77249 -15655258.69549  20649092.3974   20649098.7884
  21228283.376    -7248787.39249  -5644142.31849  21228287.5604   21228295.6384
  20086116.204   -22318700.41349 -17353102.77949  20086119.4354   20086126.3674
  20861172.160    -7728800.68149  -6003484.15649  20861176.9364   20861182.8774
 96  8 14 18 52 59.9910000  0  8 16 28  6 17 22 10 23 26
  19794144.530   -19323452.60749 -15049456.25649  19794146.4974   19794152.0734
  19831952.114   -26413407.029 9 -20563385.532 9  19831955.571    19831961.277
  17929745.459   -24994252.90249 -19467565.58749  17929748.2714   17929753.3384
  18258088.918   -38372433.97249 -29877273.30249  18258093.2594   18258099.4744
  20629036.342   -20674629.56249 -15737371.24749  20629039.6764   20629045.7364
  21235526.991    -7210734.35549  -5614490.65649  21235529.7214   21235538.2534
  20057402.369   -22469589.51449 -17470678.66649  20057406.4734   20057412.5614
  20836910.624    -7856302.06749  -6102835.83849  20836913.5714   20836919.9034
 96  8 14 18 53 29.9910000  0  8 16 28  6 17 22 10 23 26
  19797332.255   -19306690.66649 -15036395.03149  19797335.5834   19797342.6404
  19804100.571   -26559762.672 9 -20677428.880 9  19804105.046    19804110.443
  17924167.438   -25023560.25549 -19490402.50149  17924171.4474   17924176.6744
  18239117.763   -38472134.71149 -29954962.18749  18239121.0174   18239127.2014
  20609075.158   -20779547.45849 -15819125.44449  20609074.5834   20609081.7324
  21242802.923    -7172504.68949  -5584701.37949  21242805.1874   21242812.1744
  20028737.919   -22620237.24149 -17588066.46649  20028739.6754   20028745.0994
  20812711.508    -7983459.04649  -6201919.17849  20812716.6664   20812721.8054
 96  8 14 18 53 59.9910000  0  8 16 28  6 17 22 10 23 26
  19800595.584   -19289548.08349 -15023037.19949  19800598.5054   19800604.0164
  19776287.048   -26705930.518 9 -20791325.892 9  19776290.092    19776295.966
  17918676.079   -25052411.21549 -19512883.78749  17918681.3694   17918686.4334
  18220195.519   -38571565.48749 -30032440.71549  18220200.2744   18220205.9694
  20589199.309   -20883972.87849 -15900495.91949  20589203.4964   20589209.4904
  21250111.680    -7134093.51349  -5554770.66449  21250114.9774   21250121.8934
  20000121.161   -22770618.39249 -17705246.54549  20000122.5614   20000128.7864
  20788584.081    -8110239.50149  -6300709.12949  20788591.5274   20788596.0324
 96  8 14 18 54 29.9910000  0  8 16 28  6 17 22 10 23 26
  19803929.856   -19272019.51249 -15009378.58649  19803933.1184   19803940.4564
  19748508.194   -26851890.298 9 -20905060.773 9  19748515.045    19748520.754
  17913279.256   -25080774.05349 -19534984.71249  17913284.0384   17913289.6064
  18201333.663   -38670692.83849 -30109682.80449  18201337.0504   18201342.5054
  20569429.862   -20987889.17949 -15981469.65649  20569428.3404   20569434.5194
  21257456.888    -7095502.90949  -5524700.10949  21257458.0204   21257465.4994
  19971559.246   -22920707.04749 -17822198.70949  19971561.8004   19971567.5844
  20764533.873    -8236640.38649  -6399203.28049  20764536.4494   20764543.6654
 96  8 14 18 54 59.9910000  0  8 16 28  6 17 22 10 23 26
  19807330.450   -19254159.39449 -14995461.66049  19807333.0944   19807339.2854
  19720768.039   -26997677.771 9 -21018661.394 9  19720772.793    19720777.986
  17907972.238   -25108672.36449 -19556723.67449  17907975.4164   17907980.4924
  18182523.530   -38769535.60949 -30186703.14149  18182527.8624   18182533.5534
  20549744.504   -21091316.99749 -16062062.76249  20549746.7004   20549752.5274
  21264825.412    -7056775.45049  -5494522.93049  21264827.9004   21264835.0944
  19943050.670   -23070514.15149 -17938931.48349  19943054.2134   19943060.3994
  20740543.260    -8362704.78049  -6497435.25949  20740547.4914   20740554.6014
 96  8 14 18 55 29.9910000  0  8 16 28  6 17 22 10 23 26
  19810787.927   -19235985.59349 -14981300.26849  19810790.4154   19810797.5154
  19693057.313   -27143309.081 9 -21132140.327 9  19693059.926    19693065.253
  17902745.162   -25136131.06249 -19578120.08049  17902750.2044   17902755.1424
  18163767.962   -38868097.54949 -30263504.64249  18163771.9584   18163777.8474
  20530151.574   -21194273.02249 -16142288.24849  20530155.4524   20530161.1034
  21272222.857    -7017908.14849  -5464236.77249  21272224.0064   21272230.7314
  19914595.047   -23220053.60949 -18055455.69749  19914597.8124   19914603.6524
  20716611.482    -8488463.11149  -6595428.69749  20716617.5564   20716623.2144
 96  8 14 18 55 59.9910000  0  8 16 28  6 17 22 10 23 26
  19814301.854   -19217512.86449 -14966905.97249  19814306.0254   19814312.4914
  19665371.668   -27288794.665 9 -21245505.705 9  19665374.749    19665380.437
  17897601.289   -25163166.18949 -19599186.42949  17897605.3764   17897610.9484
  18145064.001   -38966381.70349 -30340089.69949  18145069.0694   18145074.7414
  20510654.206   -21296762.08949 -16222149.86249  20510652.1054   20510658.7894
  21279645.986    -6978892.80549  -5433835.23649  21279647.8254   21279654.7964
  19886188.809   -23369333.28449 -18171777.48349  19886190.5744   19886196.9724
  20692736.226    -8613937.70749  -6693201.11049  20692740.5404   20692747.0084
 96  8 14 18 56 29.9910000  0  8 16 28  6 17 22 10 23 26
  19817871.495   -19198762.02949 -14952294.97349  19817874.2764   19817881.4464
  19637711.448   -27434153.942 9 -21358772.665 9  19637713.988    19637719.150
  17892532.048   -25189811.53249 -19619949.04049  17892534.8184   17892540.1014
  18126413.082   -39064394.23349 -30416463.10149  18126417.9444   18126423.5844
  20491227.844   -21398805.35549 -16301664.09649  20491233.8704   20491240.3214
  21287099.991    -6939722.17449  -5403312.72649  21287102.0684   21287109.4504
  19857826.496   -23518362.97649 -18287904.48949  19857830.5334   19857837.1154
  20668908.510    -8739140.48049  -6790761.68549  20668914.9934   20668920.7214
 96  8 14 18 56 59.9910000  0  8 16 28  6 17 22 10 23 26
  19821500.949   -19179685.25049 -14937429.98449  19821504.5964   19821510.3484
  19610083.726   -27579339.061 9 -21471903.910 9  19610086.083    19610091.442
  17887541.894   -25216036.43349 -19640384.04149  17887544.4584   17887549.7524
  18107821.412   -39162106.10849 -30492602.21949  18107824.1224   18107830.1164
  20471905.551   -21500350.78849 -16380790.40449  20471910.0784   20471916.5014
  21294596.728    -6900337.96049  -5372623.78549  21294596.4384   21294603.6134
  19829520.436   -23667107.01249 -18403808.88649  19829525.9834   19829532.1744
  20645148.833    -8864008.72049  -6888061.58449  20645153.7954   20645158.3894
 96  8 14 18 57 29.9910000  0  8 16 28  6 17 22 10 23 26
  19825200.086   -19160247.85149 -14922283.97449  19825203.3744   19825210.1634
  19582494.337   -27724316.147 9 -21584873.058 9  19582498.091    19582503.218
  17882632.747   -25241827.10149 -19660480.68749  17882636.8134   17882641.9494
  18089285.119   -39259504.64149 -30568497.18149  18089289.8274   18089295.7294
  20452677.828   -21601367.31049 -16459504.57549  20452686.5294   20452693.0034
  21302131.507    -6860726.43349  -5341757.69649  21302134.1524   21302141.1374
  19801271.516   -23815564.66549 -18519490.14449  19801275.2744   19801281.1684
  20621458.271    -8988503.46749  -6985070.43649  20621463.1064   20621468.3504
 96  8 14 18 57 59.9910000  0  8 16 28  6 17 22 10 23 26
  19828959.346   -19140493.67249 -14906891.14749  19828962.1484   19828968.4864
  19554939.492   -27869122.995 9 -21697709.558 9  19554942.365    19554947.237
  17877800.834   -25267221.81749 -19680268.79049  17877804.0824   17877809.4274
  18070803.079   -39356631.52649 -30644180.46449  18070807.1214   18070812.6844
  20433554.480   -21701887.54449 -16537832.02749  20433558.7404   20433565.2824
  21309699.999    -6820954.55849  -5310766.67149  21309702.8644   21309710.2974
  19773069.014   -23963774.79149 -18634978.51949  19773071.9174   19773078.0434
  20597835.511    -9112654.87049  -7081811.78749  20597836.9684   20597843.0434
 96  8 14 18 58 29.9910000  0  8 16 28  6 17 22 10 23 26
  19832773.715   -19120449.93149 -14891272.68149  19832776.6744   19832782.6364
  19527409.270   -28013791.358 9 -21810438.135 9  19527412.717    19527417.907
  17873035.670   -25292260.95149 -19699779.81949  17873039.2764   17873044.8034
  18052365.244   -39453523.80749 -30719680.94049  18052369.1374   18052375.1834
  20414515.325   -21801959.09849 -16615809.86449  20414515.3794   20414522.1874
  21317289.987    -6781079.46949  -5279695.20149  21317291.7114   21317298.0704
  19744905.212   -24111774.30649 -18750302.77749  19744908.5384   19744914.7244
  20574269.749    -9236486.13949  -7178303.64749  20574272.5504   20574279.5314
 96  8 14 18 58 59.9910000  0  8 16 28  6 17 22 10 23 26
  19836648.785   -19100088.35149 -14875406.53849  19836651.5854   19836658.5384
  19499914.683   -28158282.594 9 -21923028.705 9  19499917.218    19499921.859
  17868348.944   -25316890.80849 -19718971.92549  17868352.4444   17868357.8854
  18033977.555   -39550152.20649 -30794975.79749  18033981.3984   18033987.2784
  20395566.375   -21901548.13649 -16693411.70549  20395563.8594   20395571.7974
  21324898.906    -6741091.60149  -5248535.88749  21324900.5074   21324907.9174
  19716786.268   -24259541.40549 -18865445.93949  19716789.6264   19716795.6224
  20550771.502    -9359966.98149  -7274522.47449  20550775.8024   20550781.6344
 96  8 14 18 59 29.9910000  0  8 16 28  6 17 22 10 23 26
  19840582.352   -19079418.00449 -14859299.81549  19840584.4054   19840591.7054
  19472451.066   -28302600.569 9 -22035484.249 9  19472454.031    19472459.218
  17863739.730   -25341111.16349 -19737844.93849  17863743.6574   17863749.1364
  18015640.581   -39646507.17849 -30870057.58949  18015645.6124   18015651.5174
  20376699.553   -22000669.63749 -16770649.24149  20376702.9634   20376708.9684
  21332525.749    -6701001.02549  -5217296.53149  21332529.7674   21332537.2044
  19688709.668   -24407067.52149 -18980401.31649  19688715.9434   19688721.9324
  20527334.999    -9483111.62449  -7370479.32349  20527342.2094   20527347.6644
 96  8 14 18 59 59.9910000  0  8 16 28  6 17 22 10 23 26
  19844577.417   -19058413.94549 -14842933.05749  19844581.6194   19844587.7454
  19445026.760   -28446719.324 9 -22147784.568 9  19445029.563    19445034.083
  17859214.869   -25364889.09349 -19756373.21649  17859218.8904   17859224.2174
  17997363.350   -39742556.31449 -30944901.08049  17997368.2534   17997373.9554
  20357931.767   -22099300.81349 -16847504.71649  20357933.9124   20357939.6964
  21340185.074    -6660763.23749  -5185942.46349  21340186.4404   21340193.8834
  19660693.513   -24554310.36349 -19095135.96749  19660696.9574   19660702.8844
  20503974.539    -9605891.74649  -7466152.11949  20503977.7724   20503982.4864
 96  8 14 19  0 29.9910000  0  8 16 28  6 17 22 10 23 26
  19848635.989   -19037096.46849 -14826322.06549  19848638.6014   19848645.7164
  19417637.967   -28590658.756 9 -22259945.157 9  19417638.653    19417643.392
  17854769.308   -25388247.28249 -19774574.41849  17854773.8154   17854779.9954
  17979140.402   -39838326.20549 -31019526.96449  17979143.4494   17979149.7144
  20339250.587   -22197456.48149 -16923989.65949  20339255.8854   20339261.0404
  21347867.682    -6620391.25449  -5154483.86149  21347868.8254   21347876.7124
  19632723.673   -24701295.41549 -19209669.74049  19632726.0664   19632731.8814
  20480675.060    -9728329.39549  -7561558.06149  20480679.3394   20480684.1334
 96  8 14 19  0 59.9910000  0  8 16 28  6 17 22 10 23 26
  19852753.769   -19015450.96849 -14809455.49149  19852757.1924   19852764.5364
  19390284.249   -28734398.661 9 -22371950.273 9  19390286.039    19390290.587
  17850408.003   -25411168.31049 -19792434.97249  17850412.1324   17850417.8644
  17960971.496   -39933804.10149 -31093925.32349  17960974.9364   17960980.8444
  20320676.043   -22295103.36149 -17000078.13749  20320673.8674   20320680.6074
  21355581.546    -6579857.92349  -5122899.45849  21355582.7594   21355589.4114
  19604806.554   -24847997.67849 -19323983.16449  19604809.9464   19604815.7844
  20457440.793    -9850416.05549  -7656690.48849  20457445.6464   20457451.4384
 96  8 14 19  1 29.9910000  0  8 16 28  6 17 22 10 23 26
  19856934.886   -18993482.32349 -14792337.09949  19856938.3784   19856944.8384
  19362964.566   -28877946.704 9 -22483805.889 9  19362969.564    19362974.407
  17846127.794   -25433666.80149 -19809966.28249  17846131.0274   17846135.8274
  17942856.005   -40029000.64149 -31168104.44449  17942859.5354   17942865.5344
  20302182.331   -22392243.44249 -17075771.71249  20302188.6794   20302195.3064
  21363322.613    -6539165.75849  -5091191.35649  21363327.5924   21363332.7704
  19576945.133   -24994407.12449 -19438068.42549  19576948.7554   19576954.5924
  20434276.659    -9972151.48849  -7751549.24549  20434280.0934   20434287.7854
 96  8 14 19  1 59.9910000  0  8 16 28  6 17 22 10 23 26
  19861173.938   -18971207.62649 -14774980.23449  19861177.2794   19861184.0914
  19335685.360   -29021300.403 9 -22595510.050 9  19335689.965    19335695.275
  17841927.206   -25455739.73149 -19827165.98149  17841930.7584   17841936.0614
  17924794.214   -40123917.25249 -31242065.44149  17924797.5744   17924803.2584
  20283801.337   -22488863.80849 -17151060.32249  20283802.5154   20283808.3424
  21371097.666    -6498320.86449  -5059364.17349  21371098.6354   21371105.4684
  19549138.185   -25140530.77849 -19551930.97949  19549142.3624   19549148.1584
  20411179.878   -10093527.77449  -7846128.14149  20411183.5934   20411190.1704
 96  8 14 19  2 29.9900000  0  8 16 28  6 17 22 10 23 26
  19865470.066   -18948634.55149 -14757390.85449  19865472.7014   19865478.3614
  19308448.081   -29164438.742 9 -22707046.410 9  19308451.657    19308456.972
  17837810.025   -25477366.78449 -19844018.24449  17837814.8794   17837820.2334
  17906789.579   -40218527.47649 -31315787.69349  17906793.6974   17906799.5324
  20265516.258   -22584945.40449 -17225929.10449  20265518.3154   20265525.2004
  21378895.603    -6457325.30349  -5027419.62149  21378899.9524   21378908.3614
  19521390.242   -25286351.82149 -19665557.73449  19521393.2674   19521399.4164
  20388153.697   -10214530.59049  -7940416.02449  20388158.0254   20388162.1344
 96  8 14 19  2 59.9900000  0  8 16 28  6 17 22 10 23 26
  19869819.399   -18925779.08449 -14739581.43849  19869822.1574   19869828.8964
  19281248.678   -29307378.024 9 -22818427.655 9  19281251.113    19281256.650
  17833780.271   -25498549.53049 -19860524.29749  17833783.9594   17833789.3984
  17888844.199   -40312831.06349 -31389271.00549  17888848.4804   17888854.0674
  20247328.441   -22680513.97249 -17300398.11349  20247332.4344   20247338.6614
  21386728.821    -6416180.12849  -4995358.52249  21386730.2314   21386736.8044
  19493696.218   -25431878.76449 -19778955.33949  19493700.3184   19493706.8784
  20365198.307   -10335165.77049  -8034417.43749  20365200.8314   20365206.4164
 96  8 14 19  3 29.9900000  0  8 16 28  6 17 22 10 23 26
  19874214.933   -18902676.29749 -14721579.30549  19874218.5074   19874224.7024
  19254082.844   -29450131.303 9 -22929663.964 9  19254086.017    19254091.528
  17829832.566   -25519304.78749 -19876697.23449  17829834.6314   17829839.6684
  17870955.025   -40406839.50949 -31462524.34149  17870959.4334   17870965.0494
  20229238.872   -22775588.28849 -17374482.00649  20229240.1934   20229246.6684
  21394580.639    -6374908.46849  -4963198.83049  21394583.5864   21394591.2604
  19466056.914   -25577130.75349 -19892138.67449  19466059.9534   19466066.1564
  20342310.063   -10455431.22649  -8128130.75449  20342315.5384   20342320.5864
 96  8 14 19  3 59.9900000  0  8 16 28  6 17 22 10 23 26
  19878651.020   -18879368.58149 -14703417.47149  19878654.0234   19878659.7464
  19226945.236   -29592739.331 9 -23040787.102 9  19226948.703    19226953.888
  17825954.335   -25539677.83549 -19892572.35749  17825958.1984   17825963.1694
  17853113.241   -40500602.07549 -31535586.07949  17853117.0194   17853122.8454
  20211230.451   -22870209.18649 -17448212.57649  20211234.4134   20211240.9204
  21402444.718    -6333560.42749  -4930979.64049  21402452.1014   21402458.6704
  19438456.195   -25722172.22349 -20005157.97249  19438459.4734   19438465.8794
  20319490.431   -10575369.45049  -8221589.08249  20319492.1634   20319496.6924
 96  8 14 19  4 29.9900000  0  8 16 28  6 17 22 10 23 26
  19883129.042   -18855831.52749 -14685076.94049  19883132.4274   19883138.7714
  19199836.972   -29735204.076 9 -23151798.582 9  19199838.588    19199843.790
  17822147.777   -25559677.71649 -19908156.69849  17822151.9924   17822157.5024
  17835313.012   -40594136.69149 -31608470.19549  17835317.8254   17835323.6734
  20193312.023   -22964380.29149 -17521592.65249  20193314.5764   20193320.2874
  21410332.077    -6292136.71549  -4898701.49749  21410333.7614   21410342.2404
  19410893.884   -25867005.59649 -20118015.12249  19410898.9804   19410904.9044
  20296727.140   -10694983.86649  -8314795.09249  20296729.0104   20296735.9904
 96  8 14 19  4 59.9900000  0  8 16 28  6 17 22 10 23 26
  19887651.681   -18832066.45949 -14666558.75449  19887655.2054   19887660.7254
  19172749.889   -29877537.876 9 -23262708.032 9  19172753.577    19172758.771
  17818406.879   -25579331.41349 -19923471.28649  17818412.1114   17818416.8834
  17817550.085   -40687481.88449 -31681206.70949  17817554.4654   17817560.8044
  20175473.951   -23058114.77649 -17594632.52149  20175477.3774   20175483.5614
  21418226.561    -6250649.43949  -4866373.83449  21418228.4304   21418236.7174
  19383372.699   -26011631.07149 -20230710.27749  19383377.7844   19383384.1484
  20274022.088   -10814288.00749  -8407759.33949  20274026.7394   20274032.9974
 96  8 14 19  5 29.9900000  0  8 16 28  6 17 22 10 23 26
  19892221.764   -18808047.31649 -14647842.55349  19892225.7274   19892231.8054
  19145696.072   -30019713.934 9 -23373494.565 9  19145698.211    19145703.435
  17814735.668   -25598629.67949 -19938508.91549  17814739.5494   17814744.8404
  17799825.289   -40780635.98749 -31753794.32349  17799827.9854   17799833.9604
  20157728.708   -23151382.91349 -17667309.02749  20157728.6754   20157735.3174
  21426134.112    -6209087.93649  -4833988.32049  21426138.4254   21426146.1444
  19355897.189   -26156021.23349 -20343222.06249  19355901.3294   19355907.0494
  20251379.727   -10933272.08449  -8500474.18349  20251385.1284   20251390.6684
 96  8 14 19  5 59.9900000  0  8 16 28  6 17 22 10 23 26
  19896843.522   -18783758.37649 -14628916.14949  19896847.5544   19896853.9154
  19118671.897   -30161713.572 9 -23484143.628 9  19118676.556    19118681.889
  17811134.033   -25617560.00649 -19953259.83249  17811137.1624   17811142.9774
  17782134.830   -40873584.07149 -31826221.40749  17782140.8154   17782146.5744
  20140068.502   -23244170.90649 -17739611.35149  20140072.0584   20140078.8114
  21434063.875    -6167442.73449  -4801537.56449  21434063.5174   21434070.9244
  19328468.878   -26300144.61349 -20455525.97349  19328475.4584   19328481.3764
  20228803.154   -11051926.89149  -8592932.43249  20228805.8584   20228811.6534
 96  8 14 19  6 29.9900000  0  8 16 28  6 17 22 10 23 26
  19901520.172   -18759188.85249 -14609771.10149  19901523.3464   19901529.1644
  19091690.494   -30303507.256 9 -23594632.205 9  19091694.160    19091698.989
  17807604.923   -25636106.49149 -19967711.65949  17807608.1774   17807613.2974
  17764496.191   -40966280.40249 -31898452.31549  17764501.1304   17764507.0614
  20122507.373   -23336463.51649 -17811527.67249  20122509.0574   20122515.5254
  21442003.321    -6125686.32049  -4769000.13649  21442008.8324   21442016.6244
  19301109.364   -26443942.86249 -20567576.53649  19301111.6594   19301117.3104
  20206291.777   -11170220.11549  -8685108.97049  20206295.8434   20206301.6974
 96  8 14 19  6 59.9900000  0  8 16 28  6 17 22 10 23 26
  19906242.286   -18734372.73349 -14590433.89849  19906245.4084   19906251.7084
  19064743.807   -30445111.708 9 -23704973.323 9  19064747.480    19064752.596
  17804143.682   -25654289.80249 -19981880.49049  17804148.2924   17804153.6954
  17746906.053   -41058721.04149 -31970483.98449  17746910.2514   17746916.1604
  20105032.485   -23428286.43849 -17883077.99749  20105036.0124   20105042.6634
  21449966.007    -6083846.32249  -4736397.58249  21449970.9544   21449978.8784
  19273804.575   -26587428.48149 -20679383.49549  19273806.9094   19273812.7774
  20183848.640   -11288152.10749  -8777004.00249  20183852.8544   20183859.6474
 96  8 14 19  7 29.9900000  0  8 16 28  6 17 22 10 23 26
  19911014.366   -18709297.70549 -14570894.94249  19911016.7144   19911022.7074
  19037835.327   -30586511.072 9 -23815154.638 9  19037840.552    19037844.874
  17800755.448   -25672087.27149 -19995748.66849  17800760.9674   17800766.3754
  17729368.468   -41150879.04649 -32042295.42149  17729373.2684   17729378.9614
  20087652.138   -23519625.10749 -17954250.99049  20087655.4824   20087661.6634
  21457945.057    -6041927.18849  -4703733.36249  21457947.6804   21457955.6814
  19246555.705   -26730609.75349 -20790953.30249  19246560.9374   19246566.3444
  20161481.192   -11405686.86649  -8868589.50249  20161486.9144   20161493.1194
 96  8 14 19  7 59.9900000  0  8 16 28  6 17 22 10 23 26
  19915838.262   -18683937.19649 -14551133.52949  19915842.6404   19915848.5684
  19010973.467   -30727680.815 9 -23925157.027 9  19010976.806    19010981.292
  17797450.358   -25689463.66249 -20009288.73349  17797454.2114   17797459.7134
  17711892.797   -41242713.98049 -32113855.10949  17711897.4394   17711903.4294
  20070368.595   -23610456.10249 -18025028.38449  20070370.2204   20070377.0734
  21465940.780    -5999913.26049  -4670995.30549  21465943.1514   21465951.1494
  19219372.033   -26873473.37649 -20902275.59149  19219374.3514   19219380.5384
  20139202.722   -11522774.80549  -8959826.86749  20139205.9094   20139212.6564
 96  8 14 19  8 29.9900000  0  8 16 28  6 17 22 10 23 26
  19920722.379   -18658286.15449 -14531145.74049  19920723.5114   19920730.5634
  18984153.258   -30868617.745 9 -24034978.001 9  18984157.608    18984161.932
  17794228.565   -25706406.78049 -20022491.17949  17794230.4554   17794235.6454
  17694480.288   -41334220.66749 -32185159.01949  17694484.1064   17694490.1404
  20053178.541   -23700768.27649 -18095401.50049  20053185.2184   20053190.8784
  21473950.091    -5957810.33849  -4638187.88049  21473954.5474   21473964.0814
  19192244.054   -27016030.06249 -21013358.71149  19192246.6564   19192253.0914
  20117007.950   -11639404.21649  -9050706.89849  20117012.7894   20117018.8604
 96  8 14 19  8 59.9900000  0  8 16 28  6 17 22 10 23 26
  19925652.518   -18632368.22549 -14510950.00749  19925655.8524   19925662.9674
  18957376.296   -31009343.405 9 -24144634.354 9  18957378.284    18957382.623
  17791083.530   -25722923.64649 -20035361.48849  17791087.8684   17791092.6274
  17677120.123   -41425450.01249 -32256246.82349  17677124.0054   17677129.8614
  20036091.305   -23790574.74949 -18165380.58449  20036095.1114   20036101.2714
  21481973.783    -5915642.95849  -4605330.26449  21481978.7814   21481987.1364
  19165166.516   -27158316.29449 -21124231.08249  19165170.5304   19165176.9324
  20094898.169   -11755596.61249  -9141246.40849  20094901.5294   20094908.2094
 96  8 14 19  9 29.9900000  0  8 16 28  6 17 22 10 23 26
  19930625.281   -18606234.92649 -14490586.42549  19930628.7634   19930635.7284
  18930629.632   -31149893.845 9 -24254154.163 9  18930632.412    18930636.749
  17788015.624   -25739044.24749 -20047923.01649  17788019.5394   17788025.0394
  17659801.527   -41516453.77649 -32327158.85049  17659806.2804   17659812.4064
  20019090.484   -23879908.61149 -18234991.37649  20019095.0874   20019101.3734
  21490004.895    -5873454.13249  -4572455.93449  21490008.0374   21490016.8624
  19138136.922   -27300371.54549 -21234923.46449  19138138.0704   19138144.6024
  20072858.722   -11871410.25349  -9231490.78449  20072863.1814   20072869.7104
 96  8 14 19  9 59.9900000  0  8 16 28  6 17 22 10 23 26
  19935635.975   -18579902.15249 -14470067.41449  19935639.5424   19935647.0204
  18903916.067   -31290269.648 9 -24363537.898 9  18903919.735    18903924.147
  17785022.659   -25754775.78149 -20060181.37349  17785025.3474   17785031.0004
  17642527.295   -41607232.53549 -32397895.54749  17642531.9544   17642538.0114
  20002185.441   -23968772.02249 -18304235.60049  20002185.4434   20002191.3054
  21498040.516    -5831230.07649  -4539554.13749  21498042.1534   21498050.9254
  19111146.369   -27442178.49049 -21345422.36949  19111152.8084   19111159.1104
  20050889.216   -11986865.44049  -9321455.85049  20050893.1484   20050899.6944
 96  8 14 19 10 29.9900000  0  8 16 28  6 17 22 10 23 26
  19940683.278   -18553375.06949 -14449396.98749  19940687.9094   19940694.6634
  18877238.879   -31430466.080 9 -24472781.863 9  18877241.247    18877245.668
  17782102.397   -25770126.09749 -20072142.67149  17782104.7584   17782110.6724
  17625293.617   -41697799.91249 -32468467.53049  17625297.8224   17625303.5904
  19985361.586   -24057163.00349 -18373111.69049  19985365.3024   19985370.9984
  21506088.467    -5788951.94649  -4506610.19149  21506087.7904   21506095.5014
  19084214.887   -27583724.71849 -21455718.11149  19084217.5474   19084224.3404
  20028984.410   -12101974.05749  -9411150.86249  20028987.1414   20028994.0674
 96  8 14 19 10 59.9900000  0  8 16 28  6 17 22 10 23 26
  19945771.929   -18526638.09049 -14428563.01449  19945775.5714   19945782.7834
  18850595.624   -31570468.498 9 -24581874.646 9  18850599.551    18850603.994
  17779252.434   -25785099.01649 -20083809.90249  17779255.9194   17779260.9794
  17608099.777   -41788148.83949 -32538869.29249  17608104.7074   17608110.6764
  19968631.344   -24145079.98849 -18441618.44049  19968634.5954   19968641.0774
  21514142.390    -5746601.41249  -4473609.82249  21514147.0254   21514154.4114
  19057331.860   -27725002.44949 -21565804.63249  19057333.2504   19057340.0344
  20007146.028   -12216733.14149  -9500573.49749  20007149.7974   20007157.2494
 96  8 14 19 11 29.9900000  0  8 16 28  6 17 22 10 23 26
  19950906.602   -18499659.34149 -14407540.65149  19950909.9314   19950916.9194
  18823997.792   -31710244.977 9 -24690791.376 9  18824000.788    18824005.519
  17776479.423   -25799671.58049 -20095165.16749  17776482.9604   17776488.3184
  17590959.301   -41878233.84649 -32609065.40249  17590962.3354   17590968.3274
  19951997.091   -24232488.59749 -18509729.05249  19952002.0414   19952008.6664
  21522220.707    -5704150.27249  -4440531.07449  21522225.1524   21522233.3784
  19030503.077   -27865982.79849 -21675659.43949  19030505.8594   19030512.2984
  19985377.637   -12331121.63749  -9589707.39049  19985381.9124   19985389.1404
 96  8 14 19 11 59.9900000  0  8 16 28  6 17 22 10 23 26
  19956095.528   -18472400.25849 -14386299.83649  19956097.2934   19956103.9894
  18797446.517   -31849764.296 9 -24799507.727 9  18797451.435    18797455.943
  17773786.354   -25813818.35749 -20106188.64649  17773790.4744   17773795.7284
  17573870.508   -41968026.82949 -32679033.96449  17573875.4914   17573880.9844
  19935465.223   -24319354.53049 -18577416.79549  19935471.4644   19935477.9934
  21530329.606    -5661553.42649  -4407338.80349  21530331.1454   21530338.7574
  19003737.353   -28006630.66649 -21785255.16349  19003741.5034   19003747.5774
  19963690.213   -12445099.28849  -9678521.12449  19963693.5614   19963700.6424
 96  8 14 19 12 29.9900000  0  8 16 28  6 17 22 10 23 26
  19961327.692   -18444904.49249 -14364874.60449  19961329.4314   19961336.8984
  18770937.579   -31989071.548 9 -24908058.823 9  18770942.061    18770946.838
  17771167.880   -25827584.50649 -20116915.52549  17771171.3174   17771176.1594
  17556830.507   -42057568.60549 -32748806.77949  17556836.3924   17556841.8994
  19919041.117   -24405712.87849 -18644709.01749  19919038.7494   19919044.6404
  21538452.256    -5618872.91149  -4374081.29249  21538453.2364   21538460.5944
  18977026.815   -28147003.07349 -21894636.24249  18977029.3704   18977035.5704
  19942070.809   -12558705.48149  -9767045.40949  19942075.2834   19942081.2534
 96  8 14 19 12 59.9900000  0  8 16 28  6 17 22 10 23 26
  19966597.008   -18417197.82849 -14343285.03749  19966602.0644   19966608.7464
  18744467.976   -32128177.128 9 -25016452.774 9  18744471.091    18744476.101
  17768618.559   -25840966.61749 -20127343.17549  17768624.8954   17768630.3494
  17539841.532   -42146854.92549 -32818380.53849  17539845.5754   17539851.1924
  19902696.558   -24491569.73549 -18711610.47549  19902700.6364   19902706.0774
  21546583.616    -5576141.34549  -4340783.98949  21546585.3094   21546593.4974
  18950366.474   -28287112.72149 -22003812.56949  18950367.6804   18950373.8284
  19920521.206   -12671948.78049  -9855286.90049  19920525.3294   19920531.6274
 96  8 14 19 13 29.9900000  0  8 16 28  6 17 22 10 23 26
  19971912.140   -18389269.96649 -14321523.08049  19971915.8824   19971923.8234
  18718039.874   -32267061.343 9 -25124674.233 9  18718042.098    18718047.550
  17766152.832   -25853935.26949 -20137448.62849  17766155.9154   17766162.0414
  17522904.868   -42235854.13549 -32887730.57249  17522909.2234   17522915.1794
  19886460.332   -24576908.45149 -18778108.19349  19886460.5954   19886466.3574
  21554728.611    -5533338.43849  -4307431.11949  21554729.9074   21554737.3524
  18923758.596   -28426920.10249 -22112753.36349  18923762.7064   18923769.1604
  19899046.370   -12784804.89049  -9943226.71649  19899050.5094   19899056.0854
 96  8 14 19 13 59.9900000  0  8 16 28  6 17 22 10 23 26
  19977265.216   -18361150.92849 -14299612.19849  19977267.7124   19977274.3794
  18691647.992   -32405750.308 9 -25232743.547 9  18691650.440    18691655.981
  17763757.209   -25866529.33249 -20147262.20149  17763759.6884   17763765.5744
  17506019.959   -42324588.54349 -32956874.26649  17506023.7714   17506029.6804
  19870311.141   -24661760.93949 -18844227.02249  19870313.0794   19870320.5484
  21562881.254    -5490500.63849  -4274051.06049  21562881.8174   21562888.9044
  18897208.772   -28566443.41849 -22221472.81349  18897212.4534   18897218.9854
  19877640.543   -12897282.24349 -10030871.37449  19877645.7504   19877651.0014
 96  8 14 19 14 29.9900000  0  8 16 28  6 17 22 10 23 26
  19982659.658   -18332795.31549 -14277516.95049  19982663.3554   19982670.3974
  18665302.565   -32544189.671 9 -25340618.370 9  18665306.444    18665311.817
  17761440.335   -25878703.99449 -20156748.97249  17761444.0914   17761449.1594
  17489194.566   -42413004.27749 -33025769.64349  17489198.8944   17489204.6544
  19854263.759   -24746094.83249 -18909941.76149  19854264.9334   19854272.1624
  21571045.339    -5447592.05049  -4240615.86149  21571047.7764   21571055.4794
  18870723.636   -28705622.92549 -22329924.36149  18870727.9574   18870733.5894
  19856321.878   -13009328.29449 -10118179.96949  19856324.3684   19856330.4224
 96  8 14 19 14 59.9900000  0  9 16 28  6 17 22 10 23 26 21
  19988101.187   -18304204.12549 -14255238.13049  19988103.4724   19988111.1624
  18639008.310   -32682369.672 9 -25448291.095 9  18639011.743    18639016.947
  17759202.041   -25890453.55749 -20165904.50549  17759207.6024   17759212.6764
  17472430.281   -42501104.27149 -33094418.99549  17472434.0204   17472439.8644
  19838311.718   -24829921.68249 -18975261.39049  19838313.6204   19838319.7814
  21579225.152    -5404590.62649  -4207108.29249  21579230.6074   21579237.8004
  18844309.664   -28844429.17449 -22438085.05249  18844313.5084   18844319.5184
  19835082.205   -13120931.49949 -10205143.48849  19835086.7884   19835092.8744
  22028183.483    -3803083.14959  -2902355.99959  22028193.9194   22028202.0314
 96  8 14 19 15 29.9890000  0  9 16 28  6 17 22 10 23 26 21
  19993589.013   -18275358.36649 -14232760.95049  19993593.2284   19993600.9914
  18612766.157   -32820269.870 9 -25555745.782 9  18612770.331    18612775.222
  17757048.879   -25901782.39149 -20174732.18349  17757051.3534   17757057.5314
  17455723.335   -42588890.80849 -33162824.09049  17455728.6964   17455734.5704
  19822459.238   -24913223.80049 -19040172.14449  19822461.3574   19822467.4014
  21587428.926    -5361480.62349  -4173516.13549  21587431.9934   21587440.6434
  18817970.818   -28982849.00449 -22545944.64349  18817973.4394   18817979.3154
  19813937.123   -13232064.78449 -10291740.82449  19813939.9464   19813945.5994
  21996386.289    -3970240.24849  -3032608.20149  21996384.0764   21996392.8044
 96  8 14 19 15 59.9890000  0  9 16 28  6 17 22 10 23 26 21
  19999121.463   -18246280.32349 -14210102.76549  19999126.7714   19999133.7454
  18586575.894   -32957907.658 9 -25662995.999 9  18586578.835    18586583.526
  17754970.933   -25912701.33049 -20183240.46849  17754974.3034   17754978.9964
  17439073.212   -42676397.19049 -33231010.88049  17439076.8024   17439082.5704
  19806702.446   -24996010.75549 -19104681.45149  19806707.7154   19806714.2434
  21595653.942    -5318276.46949  -4139850.59549  21595654.6654   21595662.8854
  18791695.779   -29120927.59249 -22653538.32649  18791697.5204   18791703.5954
  19792875.694   -13342732.97649 -10377975.76949  19792880.6644   19792885.7024
  21964568.275    -4137371.77449  -3162840.52149  21964581.4774   21964588.9594
 96  8 14 19 16 29.9890000  0  9 16 28  6 17 22 10 23 26 21
  20004702.502   -18216962.67749 -14187257.88449  20004705.4074   20004712.6314
  18560439.863   -33095257.000 9 -25770021.456 9  18560442.123    18560446.884
  17752975.238   -25923179.91249 -20191405.62849  17752980.1284   17752985.8414
  17422476.609   -42763613.11649 -33298971.34449  17422480.0214   17422485.9574
  19791054.756   -25078260.49849 -19168772.16549  19791056.8464   19791062.6104
  21603893.780    -5274963.46149  -4106100.23449  21603897.3994   21603905.1244
  18765482.208   -29258662.01949 -22760863.83949  18765487.3464   18765493.4604
  19771908.257   -13452920.47749 -10463836.14349  19771911.8164   19771917.8114
  21932786.914    -4304434.77549  -3293019.45349  21932788.5574   21932798.0304
 96  8 14 19 16 59.9890000  0  9 16 28  6 17 22 10 23 26 21
  20010322.151   -18187428.93049 -14164244.59949  20010325.7594   20010332.3614
  18534354.234   -33232334.549 9 -25876835.122 9  18534357.040    18534361.701
  17751063.236   -25933233.18349 -20199239.37649  17751066.3924   17751071.9314
  17405930.703   -42850561.94749 -33366723.68349  17405934.1534   17405939.9714
  19775504.311   -25159975.78049 -19232446.42049  19775506.9514   19775512.7754
  21612152.461    -5231564.99749  -4072283.31049  21612155.8464   21612163.5484
  18739330.635   -29396100.29749 -22867958.58149  18739334.0154   18739339.7384
  19751027.304   -13562642.68049 -10549333.93849  19751031.5794   19751038.5544
  21901010.886    -4471446.74949  -3423158.58649  21901007.5994   21901016.1094
 96  8 14 19 17 29.9890000  0  9 16 28  6 17 22 10 23 26 21
  20015984.491   -18157676.99349 -14141061.32149  20015986.8344   20015993.8474
  18508320.993   -33369145.590 9 -25983441.124 9  18508322.677    18508327.268
  17749229.906   -25942870.93949 -20206749.32149  17749232.0704   17749238.4934
  17389435.073   -42937246.52849 -33434270.11549  17389438.7474   17389444.5034
  19760055.264   -25241159.58349 -19295706.52549  19760058.1444   19760064.2444
  21620420.526    -5188113.28249  -4038424.88049  21620424.7974   21620432.0654
  18713228.509   -29533270.93849 -22974844.78249  18713231.1924   18713237.4064
  19730236.696   -13671902.45849 -10634471.39949  19730240.5304   19730247.5164
  21869230.841    -4638404.58949  -3553255.56149  21869237.1514   21869245.9684
 96  8 14 19 17 59.9890000  0  9 16 28  6 17 22 10 23 26 21
  20021689.467   -18127680.63749 -14117687.56649  20021695.1484   20021702.0724
  18482341.557   -33505666.654 9 -26089821.163 9  18482343.529    18482348.479
  17747479.447   -25952065.00249 -20213913.55749  17747483.9314   17747488.1844
  17372995.020   -43023633.81749 -33501584.88549  17372999.7944   17373005.5854
  19744711.324   -25321796.47449 -19358540.46849  19744713.9774   19744718.9194
  21628705.585    -5144597.18649  -4004516.28049  21628705.2044   21628712.1014
  18687181.961   -29670140.95749 -23081496.72149  18687185.6124   18687191.6814
  19709537.711   -13780683.39149 -10719235.73749  19709539.8834   19709547.3714
  21837476.912    -4805280.04249  -3683288.32349  21837481.0374   21837488.8914
 96  8 14 19 18 29.9890000  0  8 16 28  6 17 22 23 26 21
  20027457.498   -18097393.64349 -14094087.32949  20027459.2574   20027465.1424
  18456422.881   -33641864.396 9 -26195949.273 9  18456425.944    18456430.445
  17745818.608   -25960782.63049 -20220706.54749  17745824.1544   17745830.3464
  17356622.512   -43109677.77049 -33568632.12849  17356626.2924   17356632.0514
  19729475.383   -25401851.05749 -19420920.67649  19729479.7604   19729484.8164
  18661204.659   -29806655.46949 -23187871.64849  18661207.9074   18661213.7674
  19688929.712   -13888960.90649 -10803607.79549  19688935.2034   19688941.4104
  21805740.605    -4972044.14349  -3813234.30249  21805747.5284   21805755.7104
 96  8 14 19 18 59.9890000  0  8 16 28  6 17 22 23 26 21
  20033280.559   -18066787.18149 -14070238.17349  20033283.0844   20033289.5524
  18430570.112   -33777714.518 9 -26301806.511 9  18430574.333    18430579.195
  17744258.300   -25968996.45049 -20227106.93949  17744261.1794   17744267.3404
  17340319.596   -43195347.36349 -33635387.65449  17340323.8384   17340329.9074
  19714354.683   -25481301.73649 -19482830.29349  19714360.3074   19714366.2494
  18635303.113   -29942769.55249 -23293934.55349  18635306.2974   18635312.1604
  19668424.561   -13996719.43149 -10887575.46449  19668429.7964   19668436.1954
  21774033.357    -5138678.96449  -3943079.57149  21774037.9574   21774046.3074
 96  8 14 19 19 29.9890000  0  8 16 28  6 17 22 23 26 21
  20039159.353   -18035896.33949 -14046167.42249  20039161.3134   20039167.7174
  18404779.991   -33913251.280 9 -26407419.565 9  18404782.705    18404787.248
  17742785.689   -25976739.00849 -20233140.13449  17742788.9804   17742793.3574
  17324082.291   -43280673.63849 -33701875.66449  17324086.7184   17324092.9184
  19699347.699   -25560183.97549 -19544296.97749  19699349.9134   19699356.4514
  18609476.651   -30078490.67649 -23399691.25949  18609479.2994   18609485.2454
  19648012.044   -14103994.71549 -10971166.57949  19648016.2774   19648021.8964
  21742337.638    -5305223.07949  -4072854.13549  21742344.9644   21742352.1474
 96  8 14 19 19 59.9890000  0  8 16 28  6 17 22 23 26 21
  20045082.897   -18004764.50549 -14021908.87349  20045085.6104   20045092.2084
  18379042.061   -34048497.206 9 -26512806.000 9  18379046.318    18379050.924
  17741394.369   -25984031.65449 -20238822.75049  17741400.1474   17741406.5454
  17307905.043   -43365682.89049 -33768116.63949  17307910.1384   17307915.8674
  19684444.031   -25638517.01249 -19605335.72249  19684443.8714   19684448.9454
  18583722.399   -30213826.18549 -23505147.48849  18583726.3454   18583731.6874
  19627683.046   -14210812.48749 -11054401.18449  19627689.1444   19627695.9044
  21710663.527    -5471702.90049  -4202578.59449  21710665.0144   21710672.3484
 96  8 14 19 20 29.9890000  0  8 16 28  6 17 22 23 26 21
  20051049.279   -17973407.18849 -13997474.63749  20051053.1014   20051059.5004
  18353362.042   -34183454.150 9 -26617967.256 9  18353364.643    18353369.519
  17740091.887   -25990891.34149 -20244167.98349  17740094.3324   17740100.4344
  17291787.914   -43450381.57149 -33834115.61449  17291792.3714   17291798.3634
  19669638.960   -25716310.19449 -19665953.79249  19669640.5244   19669646.0764
  18558042.452   -30348779.34049 -23610305.77349  18558045.2864   18558051.0944
  19607444.893   -14317171.25649 -11137278.14349  19607449.8004   19607456.3434
  21678994.870    -5638127.38949  -4332259.93449  21678995.0584   21679004.6924
 96  8 14 19 20 59.9890000  0  8 16 28  6 17 22 23 26 21
  20057062.444   -17941806.13049 -13972850.47549  20057066.1444   20057073.7224
  18327741.789   -34318086.952 9 -26722875.930 9  18327744.922    18327749.750
  17738871.767   -25997307.72349 -20249167.78649  17738874.7154   17738879.5634
  17275734.344   -43534752.52149 -33899859.21349  17275736.9644   17275743.0624
  19654939.357   -25793538.59149 -19726131.77149  19654944.3944   19654950.3374
  18532439.763   -30483314.43049 -23715138.30149  18532443.6664   18532449.8934
  19587300.970   -14423032.34849 -11219767.28449  19587305.1814   19587312.0494
  21647343.285    -5804468.98649  -4461876.67249  21647341.3874   21647349.2974
 96  8 14 19 21 29.9890000  0  8 16 28  6 17 22 23 26 21
  20063124.452   -17909955.08349 -13948031.51149  20063128.0334   20063133.7244
  18302186.158   -34452383.809 9 -26827522.828 9  18302189.294    18302193.892
  17737731.279   -26003287.57649 -20253827.45549  17737736.1834   17737742.1794
  17259741.500   -43618788.45349 -33965341.75949  17259745.6694   17259751.7824
  19640354.981   -25870184.26449 -19785855.67749  19640358.4494   19640365.1784
  18506921.103   -30617415.39049 -23819632.53649  18506925.3084   18506931.3614
  19567256.814   -14528363.19449 -11301843.25749  19567262.1964   19567267.7444
  21615702.540    -5970708.44149  -4591413.83849  21615706.7374   21615714.7864
 96  8 14 19 21 59.9890000  0  8 16 28  6 17 22 23 26 21
  20069232.582   -17877871.28149 -13923031.15749  20069232.9724   20069239.8354
  18276693.904   -34586354.118 9 -26931915.266 9  18276695.262    18276700.301
  17736673.823   -26008848.12349 -20258160.36149  17736677.9084   17736684.1894
  17243811.042   -43702497.32149 -34030569.44849  17243816.3144   17243822.5244
  19625877.691   -25946260.94049 -19845136.20949  19625881.8524   19625888.2494
  18481480.505   -30751102.46049 -23923804.25849  18481485.5304   18481491.8134
  19547311.726   -14633174.23849 -11383514.20349  19547317.4244   19547322.7794
  21584085.700    -6136844.68849  -4720870.56049  21584091.8304   21584100.8714
 96  8 14 19 22 29.9890000  0  8 16 28  6 17 22 23 26 21
  20075388.359   -17845494.74249 -13897802.73149  20075393.4994   20075401.1974
  18251269.910   -34719941.950 9 -27036009.677 9  18251274.458    18251279.382
  17735707.566   -26013935.46349 -20262124.55949  17735709.8504   17735714.7804
  17227956.163   -43785822.37749 -34095498.06449  17227960.0524   17227966.2264
  19611521.242   -26021719.22749 -19903934.88049  19611522.8364   19611528.9344
  18456130.045   -30884333.16849 -24027620.37949  18456132.4434   18456138.4724
  19527478.090   -14737411.34449 -11464737.90849  19527480.9784   19527487.4164
  21552503.214    -6302822.31649  -4850203.70349  21552507.5054   21552515.2014
 96  8 14 19 22 59.9890000  0  8 16 28  6 17 22 23 26 21
  20081598.895   -17812874.84649 -13872384.65949  20081601.2574   20081608.6354
  18225914.080   -34853189.833 9 -27139839.187 9  18225918.498    18225923.145
  17734825.854   -26018563.69549 -20265730.99349  17734829.8334   17734835.9784
  17212164.143   -43868807.87049 -34160162.08549  17212168.4954   17212174.4504
  19597271.341   -26096592.00549 -19962277.31749  19597275.1514   19597280.9584
  18430853.972   -31017158.11249 -24131120.31949  18430856.5404   18430863.0104
  19507742.037   -14841120.63249 -11545550.33749  19507746.0904   19507751.8684
  21520952.490    -6468672.94549  -4979437.88949  21520947.4434   21520956.9994
 96  8 14 19 23 29.9890000  0  8 16 28  6 17 22 23 26 21
  20087850.625   -17780003.83949 -13846770.91949  20087856.1534   20087863.3734
  18200623.796   -34986093.834 9 -27243400.742 9  18200627.418    18200632.381
  17734036.662   -26022705.88949 -20268958.72249  17734041.3784   17734046.0134
  17196441.750   -43951436.62649 -34224548.13449  17196445.1234   17196450.9114
  19583138.616   -26170874.45349 -20020159.74649  19583138.7724   19583146.0154
  18405652.036   -31149589.92649 -24234313.92149  18405655.6094   18405661.8814
  19488107.755   -14944298.61449 -11625948.74849  19488112.0784   19488118.1914
  21489407.601    -6634389.54249  -5108567.62449  21489412.7824   21489421.1194
 96  8 14 19 23 59.9890000  0  8 16 28  6 17 22 23 26 21
  20094156.298   -17746873.86549 -13820955.40749  20094160.3174   20094167.9954
  18175403.422   -35118633.368 9 -27346678.288 9  18175405.879    18175411.139
  17733347.961   -26026327.83249 -20271781.02949  17733351.5804   17733358.7564
  17180789.458   -44033688.75249 -34288640.70949  17180792.9604   17180798.7634
  19569115.940   -26244552.26949 -20077571.04949  19569118.8954   19569125.5434
  18380526.464   -31281631.21849 -24337203.22749  18380528.8014   18380535.3044
  19468574.960   -15046935.64449 -11705925.65849  19468580.3774   19468586.0284
  21457901.402    -6799965.32149  -5237587.62449  21457904.2274   21457913.9824
 96  8 14 19 24 29.9890000  0  8 16 28  6 17 22 23 26 21
  20100515.705   -17713467.11349 -13794924.20749  20100518.6544   20100524.9544
  18150254.444   -35250786.156 9 -27449654.479 9  18150258.128    18150263.185
  17732760.789   -26029414.42249 -20274186.19149  17732764.8534   17732768.9314
  17165209.787   -44115551.92849 -34352430.19549  17165214.6724   17165220.7084
  19555212.347   -26317607.19649 -20134496.97349  19555217.2714   19555223.3214
  18355478.175   -31413262.59849 -24439773.11149  18355480.8614   18355486.5584
  19449153.919   -15149010.42249 -11785464.43549  19449155.8294   19449162.6184
  21426425.120    -6965386.53149  -5366487.21849  21426425.9474   21426434.4954
 96  8 14 19 24 59.9890000  0  8 16 28  6 17 22 23 26 21
  20106926.258   -17679773.38249 -13768669.38549  20106929.1644   20106936.4254
  18125183.710   -35382535.472 9 -27552316.282 9  18125187.240    18125191.966
  17732277.238   -26031957.31349 -20276167.70749  17732281.4884   17732287.6424
  17149708.828   -44197017.66349 -34415909.98849  17149712.2664   17149718.4484
  19541434.576   -26390009.75149 -20190914.55149  19541439.6064   19541445.9654
  18330510.754   -31544461.54949 -24542006.04549  18330514.1984   18330519.9754
  19429838.242   -15250502.18249 -11864548.91949  19429843.6644   19429849.0714
  21394970.625    -7130637.58449  -5495254.19049  21394979.3534   21394988.3344
 96  8 14 19 25 29.9890000  0  8 16 28  6 17 22 23 26 21
  20113389.539   -17645822.54349 -13742214.24249  20113391.1464   20113397.6324
  18100183.236   -35513918.298 9 -27654692.505 9  18100185.667    18100190.789
  17731882.336   -26034024.57249 -20277778.57449  17731887.2994   17731892.3384
  17134272.589   -44278126.56249 -34479111.73349  17134277.9224   17134283.8134
  19527772.911   -26461803.70549 -20246857.90949  19527777.4124   19527783.6794
  18305618.538   -31675264.34949 -24643930.29149  18305623.4454   18305629.5664
  19410632.526   -15351443.23149 -11943204.28249  19410634.6204   19410641.9314
  21363556.760    -7295766.71849  -5623926.21249  21363556.4274   21363564.2484
 96  8 14 19 25 59.9890000  0  8 16 28  6 17 22 23 26 21
  20119885.798   -17611668.13349 -13715600.45849  20119890.6434   20119895.8374
  18075241.727   -35644979.003 9 -27756817.720 9  18075245.666    18075250.664
  17731568.581   -26035684.47449 -20279072.04349  17731572.1474   17731577.8804
  17118896.664   -44358942.85249 -34542085.46549  17118899.1374   17118904.6554
  19514218.717   -26533040.28849 -20302366.94149  19514221.2684   19514229.0944
  18280797.820   -31805705.85149 -24745573.00249  18280800.8874   18280807.0994
  19391516.318   -15451884.69649 -12021470.36449  19391521.9084   19391527.8754
  21332144.938    -7460811.34949  -5752532.33949  21332149.5744   21332157.7944
 96  8 14 19 26 29.9890000  0  8 16 28  6 17 22 23 26 21
  20126430.939   -17577281.60049 -13688805.79049  20126433.2774   20126440.9304
  18050367.782   -35775699.234 9 -27858677.633 9  18050370.379    18050375.630
  17731328.846   -26036934.10049 -20280045.79749  17731333.7604   17731339.4964
  17103574.484   -44439454.14849 -34604821.54849  17103578.4254   17103584.3144
  19500771.304   -26603706.84049 -20357431.79049  19500774.0464   19500780.9854
  18256051.627   -31935747.89249 -24846904.44849  18256054.7734   18256060.7464
  19372503.610   -15551809.68949 -12099333.98749  19372506.1294   19372512.6284
  21300766.875    -7625749.34149  -5881055.41149  21300762.9644   21300771.2234
 96  8 14 19 26 59.9890000  0  8 16 28  6 17 22 23 26 21
  20133015.255   -17542672.01949 -13661837.34449  20133019.6024   20133026.3664
  18025557.110   -35906076.970 9 -27960270.665 9  18025560.140    18025565.484
  17731169.098   -26037772.07449 -20280698.79649  17731173.2884   17731179.4594
  17088312.131   -44519655.97349 -34667316.47549  17088316.5404   17088322.3794
  19487431.507   -26673807.89249 -20412055.99949  19487434.5004   19487440.8984
  18231381.278   -32065389.44149 -24947923.82049  18231384.9994   18231390.8454
  19353584.466   -15651220.51949 -12176796.97049  19353588.5874   19353595.7004
  21269394.314    -7790579.19249  -6009494.21849  21269396.4934   21269403.5264
 96  8 14 19 27 29.9890000  0  8 16 28  6 17 22 23 26 21
  20139640.404   -17507855.02149 -13634707.25749  20139644.2814   20139652.2814
  18000810.515   -36036117.344 9 -28061600.819 9  18000814.493    18000819.570
  17731089.238   -26038207.97549 -20281038.47749  17731090.5014   17731097.6734
  17073107.109   -44599559.12049 -34729578.67449  17073111.5384   17073117.1194
  19474195.711   -26743369.43249 -20466259.80349  19474197.4774   19474203.4854
  18206785.602   -32194647.13949 -25048644.08949  18206787.7964   18206793.8484
  19334762.082   -15750130.51649 -12253869.68849  19334767.3734   19334771.8064
  21238054.051    -7955288.83049  -6137839.32549  21238053.1834   21238060.8414
 96  8 14 19 27 59.9890000  0  8 16 28  6 17 22 23 26 21
  20146303.523   -17472855.78849 -13607435.14949  20146305.0614   20146313.0374
  17976129.340   -36165818.349 9 -28162666.528 9  17976133.313    17976138.324
  17731083.229   -26038232.68149 -20281057.76649  17731086.7624   17731092.0604
  17057959.628   -44679160.37449 -34791605.63049  17057963.8184   17057969.3934
  19461058.753   -26812396.41849 -20520047.07849  19461062.2844   19461068.6854
  18182262.905   -32323512.89049 -25149058.94849  18182265.5314   18182271.9264
  19316035.725   -15848541.20449 -12330553.35049  19316040.8084   19316046.3094
  21206730.306    -8119872.18449  -6266086.07149  21206733.9034   21206741.5214
 96  8 14 19 28 29.9880000  0  8 16 28  6 17 22 23 26 21
  20152997.099   -17437662.14749 -13580011.58749  20153001.6874   20153009.8394
  17951518.545   -36295150.105 9 -28263444.511 9  17951521.904    17951527.279
  17731163.297   -26037812.58049 -20280730.44549  17731167.3424   17731172.6584
  17042877.563   -44758417.61049 -34853364.51749  17042881.7734   17042887.2024
  19448027.270   -26880861.14549 -20573396.23149  19448034.0944   19448040.1824
  18157817.984   -32451967.11649 -25249153.13149  18157821.4624   18157827.7894
  19297411.785   -15946422.20449 -12406824.26149  19297414.1444   19297419.9134
  21175441.658    -8284314.84749  -6394223.15049  21175442.6134   21175448.7694
 96  8 14 19 28 59.9880000  0  8 16 28  6 17 22 23 26 21
  20159734.186   -17402272.33249 -13552435.14849  20159736.0574   20159744.8264
  17926978.421   -36424111.009 9 -28363933.520 9  17926981.692    17926986.903
  17731329.444   -26036935.49149 -20280047.03849  17731332.9894   17731338.4664
  17027860.132   -44837329.54349 -34914854.34149  17027865.0324   17027870.8114
  19435110.173   -26948752.33949 -20626298.47549  19435113.8774   19435120.5894
  18133450.711   -32580013.28049 -25348929.34849  18133455.0854   18133461.4704
  19278885.106   -16043766.51449 -12482676.97449  19278890.3754   19278895.6044
  21144179.761    -8448611.31249  -6522246.31549  21144178.1344   21144185.3714
 96  8 14 19 29 29.9880000  0  8 16 28  6 17 22 23 26 21
  20166507.211   -17366667.85049 -13524691.42449  20166511.3164   20166519.0714
  17902511.650   -36552691.616 9 -28464126.194 9  17902513.757    17902518.540
  17731587.543   -26035589.41449 -20278998.16949  17731590.6164   17731595.6684
  17012912.829   -44915887.18149 -34976068.09149  17012916.1914   17012922.0084
  19422304.434   -27016060.49449 -20678746.38849  19422306.2124   19422312.2854
  18109164.290   -32707632.61549 -25448372.97249  18109169.8694   18109176.0644
  19260469.879   -16140551.60749 -12558093.93549  19260472.5464   19260477.8964
  21112933.713    -8612759.74649  -6650154.13449  21112941.5244   21112947.7224
 96  8 14 19 29 59.9880000  0  8 16 28  6 17 22 23 26 21
  20173326.265   -17330846.15949 -13496778.45949  20173327.7704   20173335.2834
  17878114.403   -36680895.785 9 -28564025.541 9  17878117.124    17878122.303
  17731929.375   -26033782.19849 -20277589.99549  17731934.0134   17731939.2584
  16998032.996   -44994076.60849 -35036994.92549  16998037.0954   16998043.1324
  19409607.806   -27082785.19649 -20730739.67449  19409609.1254   19409615.1714
  18084964.862   -32834820.19649 -25547480.16549  18084966.9444   18084972.8294
  19242157.666   -16236776.74149 -12633074.56849  19242161.2324   19242166.9794
  21081721.404    -8776800.88649  -6777978.35949  21081725.4814   21081733.2244
 96  8 14 19 30 29.9880000  0  8 16 28  6 17 22 23 26 21
  20180186.257   -17294792.85449 -13468685.02049  20180188.5044   20180196.9874
  17853788.509   -36808721.334 9 -28663629.859 9  17853792.720    17853797.927
  17732359.419   -26031522.06649 -20275828.86749  17732363.6864   17732369.7334
  16983223.589   -45071899.56549 -35097636.19649  16983227.6904   16983233.9844
  19397021.988   -27148920.05049 -20782273.33949  19397023.7464   19397030.6794
  18060840.535   -32961581.46349 -25646255.16849  18060845.0124   18060851.1764
  19223955.738   -16332433.99249 -12707612.67249  19223958.7554   19223965.0184
  21050525.331    -8940736.29249  -6905720.22049  21050528.6564   21050536.2804
 96  8 14 19 30 59.9880000  0  8 16 28  6 17 22 23 26 21
  20187092.130   -17258486.57849 -13440394.42549  20187098.6054   20187105.4164
  17829539.047   -36936154.658 9 -28762928.543 9  17829543.034    17829548.269
  17732878.476   -26028797.41149 -20273705.79149  17732882.5884   17732888.1544
  16968486.285   -45149348.75849 -35157986.21849  16968489.6084   16968495.6374
  19384546.687   -27214456.58749 -20833340.78149  19384552.8854   19384558.7124
  18036805.740   -33087895.68249 -25744681.81249  18036808.3554   18036814.4854
  19205863.570   -16427503.99249 -12781693.18749  19205867.2104   19205873.7314
  21019353.464    -9104542.90449  -7033361.69749  21019357.9394   21019364.6794
 96  8 14 19 31 29.9880000  0  8 16 28  6 17 22 23 26 21
  20194050.573   -17221924.18549 -13411904.28149  20194054.3694   20194063.5894
  17805367.207   -37063185.694 9 -28861913.756 9  17805369.994    17805375.268
  17733487.064   -26025599.51649 -20271213.95549  17733490.8924   17733496.4284
  16953820.898   -45226412.70049 -35218036.05349  16953825.1164   16953831.0374
  19372193.411   -27279396.95049 -20883943.67349  19372194.3134   19372201.0874
  18012851.169   -33213759.51349 -25842757.51449  18012857.3794   18012863.4314
  19187882.647   -16521981.68449 -12855312.17249  19187889.3304   19187894.9374
  20988209.844    -9268221.99649  -7160903.82449  20988211.2324   20988216.6874
 96  8 14 19 31 59.9880000  0  8 16 28  6 17 22 23 26 21
  20201058.081   -17185122.92849 -13383228.03849  20201058.3074   20201066.9194
  17781272.551   -37189806.953 9 -28960579.666 9  17781274.563    17781279.810
  17734186.984   -26021928.35949 -20268353.34049  17734189.3054   17734195.2454
  16939226.946   -45303102.41649 -35277794.27949  16939231.3904   16939237.4904
  19359952.175   -27343728.72349 -20934072.32649  19359953.0724   19359959.7984
  17988988.985   -33339173.92449 -25940483.01049  17988991.5634   17988997.6454
  19170020.661   -16615870.74349 -12928472.47549  19170022.2674   19170027.8774
  20957085.154    -9431750.20449  -7288328.33349  20957092.6984   20957099.3394
 96  8 14 19 32 29.9880000  0  8 16 28  6 17 22 23 26 21
  20208103.976   -17148095.62849 -13354375.64249  20208104.8954   20208112.7744
  17757252.576   -37316022.855 9 -29058929.719 9  17757256.694    17757261.729
  17734977.088   -26017775.06549 -20265117.05349  17734980.8554   17734985.6394
  16924698.208   -45379447.46449 -35337283.92949  16924703.3324   16924709.4414
  19347821.450   -27407460.64649 -20983733.58949  19347825.2314   19347831.7904
  17965205.595   -33464146.60349 -26037864.30749  17965210.0564   17965216.2924
  19152262.048   -16709173.66449 -13001176.05549  19152267.5424   19152273.0754
  20926005.662    -9595103.68549  -7415616.75749  20926006.2734   20926013.9824
 96  8 14 19 32 59.9880000  0  8 16 28  6 17 22 23 26 21
  20215184.258   -17110862.29549 -13325362.70449  20215191.1514   20215197.3494
  17733310.866   -37441844.193 9 -29156972.306 9  17733313.456    17733318.567
  17735856.704   -26013140.89749 -20261506.05149  17735860.7284   17735867.7514
  16910234.620   -45455460.55249 -35396514.90549  16910238.6834   16910244.6264
  19335805.735   -27470604.23449 -21032936.38349  19335809.6654   19335815.7474
  17941506.214   -33588692.92149 -26134913.37149  17941509.7084   17941515.7144
  19134615.327   -16801910.73049 -13073438.69249  19134619.8914   19134625.2954
  20894953.820    -9758287.02449  -7542772.56749  20894954.0224   20894962.0634
 96  8 14 19 33 29.9880000  0  8 16 28  6 17 22 23 26 21
  20222307.067   -17073452.42049 -13296212.19549  20222308.7724   20222316.6874
  17709438.985   -37567287.996 9 -29254720.723 9  17709442.631    17709447.265
  17736827.199   -26008055.25549 -20257543.23149  17736829.7404   17736835.0214
  16895829.250   -45531167.42649 -35455507.28149  16895832.1624   16895838.0284
  19323901.406   -27533174.46949 -21081692.41949  19323902.5884   19323908.8934
  17917882.134   -33712841.52849 -26231652.53649  17917885.1514   17917891.0394
  19117075.066   -16894098.20649 -13145273.08449  19117077.4034   19117083.2624
  20863926.314    -9921311.34949  -7669804.46349  20863931.7374   20863939.2434
 96  8 14 19 33 59.9880000  0  8 16 28  6 17 22 23 26 21
  20229461.446   -17035843.12849 -13266906.28449  20229465.3854   20229473.0434
  17685644.752   -37692325.569 9 -29352152.595 9  17685648.876    17685653.789
  17737881.801   -26002502.87549 -20253216.75549  17737886.3684   17737892.2514
  16881485.414   -45606540.71549 -35514239.71849  16881489.0414   16881494.9714
  19312105.301   -27595144.64849 -21129980.87349  19312110.5504   19312117.1414
  17894338.722   -33836555.76449 -26328053.23149  17894343.1554   17894349.1024
  19099640.420   -16985702.26349 -13216652.86349  19099646.0694   19099651.5174
  20832943.378   -10084141.53249  -7796685.08249  20832945.8904   20832954.0354
 96  8 14 19 34 29.9880000  0  8 16 28  6 17 22 23 26 21
  20236660.852   -16998026.48349 -13237438.82249  20236661.8544   20236669.1524
  17661930.924   -37816946.698 9 -29449259.967 9  17661934.105    17661939.202
  17739027.501   -25996486.71949 -20248528.86149  17739030.5374   17739036.8164
  16867208.206   -45681561.47649 -35572697.45849  16867213.0394   16867219.1604
  19300430.565   -27656509.07349 -21177797.33249  19300432.8054   19300439.4124
  17870883.160   -33959825.91449 -26424107.88149  17870885.4174   17870891.2934
  19082322.678   -17076714.27249 -13287571.28649  19082326.8084   19082331.9144
  20801992.222   -10246780.54849  -7923416.74049  20801996.4844   20802004.6664
 96  8 14 19 34 59.9880000  0  8 16 28  6 17 22 23 26 21
  20243898.259   -16959977.58349 -13207790.38249  20243902.5764   20243910.2464
  17638299.600   -37941129.364 9 -29546025.674 9  17638302.778    17638308.064
  17740260.302   -25990011.74049 -20243483.45749  17740264.3664   17740268.0864
  16853004.178   -45756205.30249 -35630861.47949  16853008.8284   16853014.7134
  19288871.489   -27717239.35049 -21225119.64449  19288876.6734   19288883.0404
  17847512.917   -34082634.73349 -26519803.04749  17847515.8204   17847521.9194
  19065118.041   -17167124.19249 -13358020.59449  19065122.0234   19065127.2314
  20771093.237   -10409222.45349  -8049994.80449  20771084.6964   20771093.8134
 96  8 14 19 35 29.9880000  0  8 16 28  6 17 22 23 26 21
  20251183.465   -16921703.35449 -13177966.35249  20251186.0574   20251194.2104
  17614752.429   -38064877.362 9 -29642452.683 9  17614754.253    17614759.404
  17741575.171   -25983098.33749 -20238096.43649  17741579.1324   17741585.1204
  16838869.488   -45830485.41149 -35688742.09349  16838873.8974   16838879.6324
  19277434.533   -27777337.94649 -21271949.74349  19277439.6574   19277445.5144
  17824229.929   -34204977.18149 -26615134.80849  17824234.7814   17824240.5974
  19048029.421   -17256930.65149 -13427999.63549  19048032.7664   19048037.9504
  20740203.853   -10571483.86549  -8176432.21349  20740207.3484   20740214.6054
 96  8 14 19 35 59.9880000  0  8 16 28  6 17 22 23 26 21
  20258506.127   -16883208.80849 -13147970.67349  20258511.1764   20258519.4604
  17591283.832   -38188189.315 9 -29738539.918 9  17591288.721    17591293.898
  17742974.418   -25975738.81949 -20232361.77749  17742977.9854   17742983.8694
  16824804.519   -45904395.80849 -35746334.62249  16824809.0574   16824814.9774
  19266122.526   -27836800.20749 -21318283.96849  19266124.2854   19266130.5594
  17801041.322   -34326849.19449 -26710100.00449  17801043.3154   17801049.2024
  19031052.186   -17346143.48449 -13497516.11549  19031056.3554   19031061.4904
  20709358.365   -10733570.87449  -8302733.76249  20709363.4834   20709370.8314
 96  8 14 19 36 29.9880000  0  8 16 28  6 17 22 23 26 21
  20265876.200   -16844493.42949 -13117802.90949  20265879.4324   20265885.9604
  17567903.367   -38311067.683 9 -29834289.290 9  17567905.823    17567911.033
  17744462.636   -25967930.10349 -20226277.10249  17744465.4114   17744471.5934
  16810809.598   -45977940.24849 -35803641.98049  16810813.9354   16810820.0574
  19254927.934   -27895625.03249 -21364121.50549  19254930.5414   19254936.6374
  17777934.637   -34448269.20949 -26804712.99249  17777937.8494   17777943.6084
  19014185.315   -17434774.03349 -13566578.86549  19014190.3014   19014196.4484
  20678554.533   -10895484.31749  -8428900.04949  20678552.9164   20678559.8544
 96  8 14 19 36 59.9880000  0  8 16 28  6 17 22 23 26 21
  20273285.063   -16805560.25849 -13087465.41349  20273287.3404   20273294.4174
  17544599.981   -38433521.747 9 -29929708.040 9  17544603.512    17544608.599
  17746032.953   -25959677.67749 -20219846.67049  17746036.0454   17746040.8594
  16796884.049   -46051120.94449 -35860665.90549  16796887.9704   16796894.1014
  19243847.205   -27953839.51449 -21409483.44649  19243852.8974   19243859.1984
  17754912.349   -34569254.18449 -26898986.98849  17754914.9114   17754920.9374
  18997430.942   -17522823.78749 -13635189.05749  18997434.9464   18997441.8024
  20647766.440   -11057225.41149  -8554932.02849  20647773.9244   20647781.5864
 96  8 14 19 37 29.9880000  0  8 16 28  6 17 22 23 26 21
  20280729.843   -16766435.73849 -13056978.82249  20280733.0104   20280739.6574
  17521376.561   -38555559.359 9 -30024802.280 9  17521380.580    17521385.729
  17747686.977   -25950979.21649 -20213068.69649  17747691.6944   17747696.6724
  16783026.278   -46123943.82449 -35917411.00649  16783030.4464   16783036.4644
  19232883.347   -28011467.27449 -21454388.21449  19232886.2674   19232893.0154
  17731970.607   -34689809.00949 -26992925.79549  17731974.3394   17731980.0604
  18980788.132   -17610287.29549 -13703342.41649  18980791.1444   18980797.1604
  20617026.547   -11218787.11349  -8680824.22449  20617029.5734   20617037.1234
 96  8 14 19 37 59.9880000  0  9 16  3 28  6 17 22 23 26 21
  20288208.652   -16727124.32849 -13026346.59149  20288213.4174   20288220.3264
  21133024.688    -7740837.16959  -5174852.29459  21133029.9244   21133035.4474
  17498234.593   -38677178.313 9 -30119570.291 9  17498237.200    17498242.543
  17749426.273   -25941823.47549 -20205934.39049  17749432.1934   17749438.4074
  16769239.304   -46196396.88849 -35973867.94049  16769243.6674   16769249.1924
  19222026.696   -28068524.26449 -21498848.21749  19222028.5714   19222035.3894
  17709109.862   -34809945.89449 -27086538.94249  17709112.8544   17709118.6884
  18964253.719   -17697167.46649 -13771041.24849  18964258.6864   18964264.9804
  20586314.868   -11380160.77749  -8806569.88249  20586320.6984   20586329.4234
 96  8 14 19 38 29.9880000  0  9 16  3 28  6 17 22 23 26 21
  20295725.633   -16687623.11949 -12995566.47949  20295730.1974   20295737.1154
  21101118.851    -7908518.29149  -5305512.87049  21101120.6124   21101126.1664
  17475171.071   -38798370.185 9 -30214005.510 9  17475175.346    17475180.272
  17751260.084   -25932210.64349 -20198443.88549  17751261.6844   17751267.6654
  16755524.309   -46268472.45549 -36030030.71849  16755528.1784   16755533.7724
  19211276.912   -28125010.57549 -21542863.54149  19211280.0294   19211285.5974
  17686330.278   -34929651.87349 -27179816.31249  17686333.4904   17686339.2194
  18947836.318   -17783451.41349 -13838275.46449  18947839.5334   18947844.6994
  20555646.103   -11541348.49549  -8932170.66649  20555647.5604   20555656.4894
 96  8 14 19 38 59.9880000  0  9 16  3 28  6 17 22 23 26 21
  20303277.769   -16647936.61349 -12964641.97549  20303283.2134   20303289.9694
  21069227.832    -8076065.72949  -5436069.29349  21069236.2494   21069243.3664
  17452193.149   -38919124.039 9 -30308099.418 9  17452196.427    17452201.434
  17753179.066   -25922126.91249 -20190586.47749  17753182.4154   17753187.7124
  16741880.472   -46340169.89049 -36085898.85149  16741884.4654   16741890.2014
  19200638.347   -28180924.43049 -21586432.79749  19200640.5294   19200646.0354
  17663639.437   -35048897.40549 -27272734.90349  17663642.0024   17663648.0024
  18931533.031   -17869116.11749 -13905027.17149  18931537.2144   18931542.4954
  20525007.516   -11702349.51449  -9057625.95949  20525009.8374   20525018.7894
 96  8 14 19 39 29.9880000  0  9 16  3 28  6 17 22 23 26 21
  20310859.008   -16608101.74649 -12933601.90149  20310862.8104   20310869.9374
  21037372.618    -8243498.68949  -5566536.47949  21037375.2094   21037381.5994
  17429294.245   -39039460.932 9 -30401868.424 9  17429297.267    17429301.896
  17755182.083   -25911592.02349 -20182377.52349  17755187.3964   17755191.3294
  16728301.932   -46411520.77449 -36141496.94849  16728306.4544   16728312.1494
  19190104.845   -28236276.65549 -21629564.41649  19190106.9234   19190112.9314
  17641032.040   -35167692.03949 -27365302.14149  17641036.1384   17641042.0174
  18915344.060   -17954190.44249 -13971318.83249  18915349.2104   18915353.4944
  20494395.474   -11863192.54149  -9182958.14549  20494403.1794   20494410.9334
 96  8 14 19 39 59.9880000  0  9 16  3 28  6 17 22 23 26 21
  20318477.887   -16568072.83349 -12902410.58049  20318480.4114   20318487.7514
  21005536.044    -8410787.75449  -5696891.55649  21005542.0114   21005548.7564
  17406484.112   -39159330.542 9 -30495273.312 9  17406486.858    17406491.626
  17757281.421   -25900562.51849 -20173783.12049  17757283.9754   17757290.8114
  16714800.149   -46482476.01349 -36196786.74849  16714804.1894   16714809.9574
  19179685.488   -28291014.95349 -21672217.63749  19179689.5564   19179696.5824
  17618522.572   -35285988.05049 -27457480.84149  17618525.0654   17618530.8984
  18899273.352   -18038632.49849 -14037117.84449  18899279.1314   18899285.4304
  20463830.916   -12023841.82249  -9308139.37449  20463833.3744   20463840.3014
 96  8 14 19 40 29.9880000  0  9 16  3 28  6 17 22 23 26 21
  20326133.184   -16527848.45149 -12871066.94249  20326135.2424   20326142.8474
  20973727.610    -8577945.07349  -5827143.97449  20973732.9904   20973739.1764
  17383762.710   -39278730.258 9 -30588312.046 9  17383765.806    17383770.573
  17759471.555   -25889055.44549 -20164816.60749  17759475.3184   17759480.1814
  16701369.681   -46553050.74649 -36251780.05049  16701374.2524   16701380.3404
  19169390.806   -28345129.76649 -21714385.04649  19169392.7744   19169399.3604
  17596109.942   -35403767.12549 -27549256.73649  17596112.4294   17596118.3634
  18883327.811   -18122439.69149 -14102422.14649  18883331.2874   18883337.4274
  20433295.989   -12184295.44249  -9433168.11449  20433300.1484   20433307.3724
 96  8 14 19 40 59.9870000  0  9 16  3 28  6 17 22 23 26 21
  20333826.637   -16487414.97349 -12839560.37249  20333829.6154   20333837.3304
  20941945.432    -8744981.53849  -5957302.20249  20941945.3324   20941952.1094
  17361132.777   -39397651.230 9 -30680977.731 9  17361135.907    17361140.796
  17761749.450   -25877078.73149 -20155484.15349  17761754.4954   17761758.7084
  16688011.737   -46623247.97949 -36306479.19249  16688016.2214   16688022.2494
  19159210.102   -28398624.76549 -21756069.46849  19159212.6684   19159219.4294
  17573795.621   -35521027.88049 -27640628.73849  17573798.3894   17573804.3064
  18867502.509   -18205604.14649 -14167225.61649  18867505.4874   18867512.8914
  20402806.162   -12344533.14449  -9558028.61049  20402807.4164   20402815.4474
 96  8 14 19 41 29.9870000  0  9 16  3 28  6 17 22 23 26 21
  20341560.018   -16446767.70549 -12807887.23749  20341564.2274   20341570.7254
  20910175.481    -8911922.62549  -6087386.12849  20910179.8044   20910184.1394
  17338593.125   -39516104.893 9 -30773279.281 9  17338594.930    17338600.007
  17764115.735   -25864645.72949 -20145796.11549  17764118.5214   17764125.2044
  16674724.236   -46693078.04449 -36360892.23049  16674728.2884   16674733.9474
  19149145.482   -28451507.26349 -21797276.61849  19149150.3704   19149155.4454
  17551573.190   -35637804.47749 -27731623.48549  17551576.5824   17551582.6514
  18851792.657   -18288151.95249 -14231548.57949  18851797.6974   18851803.9104
  20372347.617   -12504563.96549  -9682727.91649  20372354.1314   20372361.6744
 96  8 14 19 41 59.9870000  0  9 16  3 28  6 17 22 23 26 21
  20349341.847   -16405878.95049 -12776025.90749  20349344.5034   20349352.6984
  20878425.030    -9078745.02749  -6217377.60249  20878433.5064   20878439.3284
  17316144.153   -39634064.737 9 -30865196.038 9  17316147.894    17316152.758
  17766573.090   -25851747.03049 -20135745.22549  17766575.7344   17766580.6854
  16661507.939   -46762524.97649 -36415006.72749  16661512.8474   16661518.6334
  19139204.929   -28503751.99949 -21837986.82149  19139207.8534   19139213.7614
  17529447.083   -35754080.56049 -27822228.21649  17529449.7554   17529456.0324
  18836208.257   -18370058.97449 -14295372.22049  18836211.5264   18836217.5544
  20341939.200   -12664362.74949  -9807246.40249  20341946.1274   20341953.2874
 96  8 14 19 42 29.9870000  0  9 16  3 28  6 17 22 23 26 21
  20357168.104   -16364732.80249 -12743964.02049  20357173.8184   20357182.2954
  20846711.088    -9245429.04649  -6347261.21849  20846713.4604   20846719.9064
  17293792.536   -39751524.104 9 -30956722.813 9  17293796.290    17293800.957
  17769114.158   -25838373.34049 -20125324.20249  17769120.1254   17769124.3424
  16648366.915   -46831582.41749 -36468817.73149  16648371.8304   16648377.6494
  19129386.042   -28555353.12549 -21878195.50549  19129388.4154   19129394.5144
  17507416.100   -35869847.04049 -27912435.85449  17507419.8564   17507426.4654
  18820742.864   -18451321.39649 -14358693.57649  18820746.9664   18820753.6354
  20311584.666   -12823922.48949  -9931578.61749  20311581.8134   20311590.6354
 96  8 14 19 42 59.9870000  0  9 16  3 28  6 17 22 23 26 21
  20365044.034   -16323372.35349 -12711735.18149  20365044.6524   20365054.4454
  20815004.566    -9412007.61349  -6477062.66649  20815015.1644   20815021.7664
  17271531.757   -39868512.620 9 -31047882.689 9  17271533.992    17271538.693
  17771751.259   -25824527.02649 -20114534.90249  17771753.1114   17771760.6454
  16635297.017   -46900269.24449 -36522339.93349  16635300.8394   16635306.6564
  19119677.341   -28606347.23449 -21917931.19249  19119684.0904   19119691.2324
  17485475.681   -35985156.08949 -28002287.04949  17485477.2074   17485483.5524
  18805396.524   -18531963.63749 -14421531.66849  18805401.5264   18805407.8854
  20281255.248   -12983276.60749 -10055750.60549  20281257.9194   20281266.1434
 96  8 14 19 43 29.9870000  0  9 16  3 28  6 17 22 23 26 21
  20372948.800   -16281815.75949 -12679353.48549  20372953.7894   20372961.3874
  20783343.906    -9578451.55149  -6606759.18449  20783340.6594   20783348.3514
  17249359.128   -39985025.247 9 -31138671.745 9  17249362.339    17249367.274
  17774479.427   -25810188.70949 -20103362.20149  17774483.3964   17774487.5604
  16622300.801   -46968564.37549 -36575556.92749  16622304.8014   16622310.4744
  19110094.572   -28656717.92649 -21957181.10549  19110099.5874   19110105.4604
  17463621.650   -36099998.72749 -28091774.80849  17463623.9184   17463629.8124
  18790169.782   -18611982.37949 -14483883.93049  18790174.3864   18790181.1604
  20250971.293   -13142424.21849 -10179761.66449  20250973.3074   20250982.0504
 96  8 14 19 43 59.9870000  0  9 16  3 28  6 17 22 23 26 21
  20380889.662   -16240089.70149 -12646839.68449  20380893.8454   20380901.0974
  20751692.259    -9744757.71449  -6736348.35149  20751695.0694   20751703.2244
  17227274.477   -40101073.913 9 -31229099.270 9  17227278.870    17227283.854
  17777295.293   -25795378.06549 -20091821.50649  17777301.3674   17777307.6534
  16609378.885   -47036467.94449 -36628468.80349  16609383.0214   16609388.9214
  19100626.805   -28706479.42349 -21995956.30549  19100629.5924   19100636.2454
  17441857.727   -36214373.33149 -28180897.86749  17441859.3914   17441865.0094
  18775061.183   -18691382.72549 -14545754.34649  18775065.0074   18775070.6514
  20220723.371   -13301372.38749 -10303617.35649  20220725.9264   20220734.3824
 96  8 14 19 44 29.9870000  0  9 16  3 28  6 17 22 23 26 21
  20388862.072   -16198186.50349 -12614187.83849  20388868.0764   20388875.9494
  20720071.424    -9910895.02149  -6865805.95749  20720078.9314   20720087.3654
  17205286.130   -40216637.330 9 -31319148.679 9  17205287.850    17205293.041
  17780210.382   -25780068.04749 -20079891.63149  17780214.2584   17780220.2774
  16596537.842   -47103949.26749 -36681051.65349  16596541.6854   16596547.6354
  19091275.625   -28755631.22049 -22034256.43149  19091277.2534   19091282.9514
  17420182.401   -36328263.42149 -28269643.38849  17420186.2944   17420192.2934
  18760073.095   -18770140.80649 -14607124.29549  18760077.6444   18760083.9034
  20190516.315   -13460095.95049 -10427298.00649  20190522.0504   20190530.9164
 96  8 14 19 44 59.9870000  0  9 16  3 28  6 17 22 23 26 21
  20396866.684   -16156127.14749 -12581414.35949  20396870.7694   20396879.2394
  20688497.800   -10076860.01349  -6995129.27449  20688497.2974   20688505.7854
  17183384.047   -40331715.369 9 -31408819.873 9  17183389.075    17183394.462
  17783215.984   -25764276.37349 -20067586.49249  17783219.1464   17783226.3134
  16583776.028   -47171016.45749 -36733311.80449  16583779.4304   16583784.9384
  19082036.973   -28804180.35449 -22072086.94049  19082038.5594   19082044.9744
  17398602.950   -36441671.80449 -28358013.55249  17398605.2094   17398611.4874
  18745209.344   -18848249.89649 -14667988.52649  18745213.6734   18745220.4904
  20160360.149   -13618580.91549 -10550792.74649  20160363.4684   20160371.0564
 96  8 14 19 45 29.9870000  0  9 16  3 28  6 17 22 23 26 21
  20404901.599   -16113915.04049 -12548521.84149  20404903.9644   20404912.6194
  20656946.072   -10242649.06049  -7124315.48649  20656950.5494   20656957.0524
  17161577.516   -40446320.535 9 -31498122.595 9  17161580.652    17161585.891
  17786302.694   -25748052.22549 -20054944.31249  17786306.8964   17786312.3994
  16571086.087   -47237696.85249 -36785270.55749  16571090.4844   16571096.7014
  19072908.971   -28852135.02849 -22109454.23149  19072912.5864   19072919.0724
  17377112.902   -36554595.42549 -28446005.97349  17377116.7244   17377122.9644
  18730463.810   -18925735.11549 -14728366.61749  18730469.0064   18730475.3644
  20130247.808   -13776827.57649 -10674101.78749  20130249.5334   20130258.4784
